[[{"header":{"parameterUnit":"m.s-1","parameterCategory":1,"la1":31.0,"la2":29.5877,"lo1":-88.7671,"lo2":-86.6584,"dy":0.0162,"dx":0.0185,"nx":115,"ny":88,"refTime":"2024-06-30T12:00:00:Z","depth":0,"parameterNumber":2,"parameterNumberName":"U-component_of_WINDS"},"data":[0.0,0.0,0.0,0.0,0.0,0.0,0.0,0.0,0.0,0.0,0.0,0.0,0.0,0.0,0.0,0.0,0.0,0.0,0.0,0.0,0.0,0.0,0.0,0.0,0.0,0.0,0.0,0.0,0.0,0.0,0.0,0.0,0.0,0.0,0.0,0.0,0.0,0.0,0.0,0.0,0.0,0.0,0.0,0.0,0.0,0.0,0.0,0.0,0.0,0.0,0.0,0.0,0.0,0.0,0.0,0.0,0.0,0.0,0.0,0.0,0.0,0.0,0.0,0.0,0.0,0.0,0.0,0.0,0.0,0.0,0.0,0.0,0.0,0.0,0.0,0.0,0.0,0.0,0.0,0.0,0.0,0.0,0.0,0.0,0.0,0.0,0.0,0.0,0.0,0.0,0.0,0.0,0.0,0.0,0.0,0.0,0.0,0.0,0.0,0.0,0.0,0.0,0.0,0.0,0.0,0.0,0.0,0.0,0.0,0.0,0.0,0.0,0.0,0.0,0.0,0.0,0.0,0.0,0.0,0.0,0.0,0.0,0.0,0.0,0.0,0.0,0.0,0.0,0.0,0.0,0.0,0.0,0.0,0.0,0.0,0.0,0.0,0.0,0.0,0.0,0.0,0.0,0.0,0.0,0.0,0.0,0.0,0.0,0.0,0.0,0.0,0.0,0.0,0.0,0.0,0.0,0.0,0.0,0.0,0.0,0.0,0.0,0.0,0.0,0.0,0.0,0.0,0.0,0.0,0.0,0.0,0.0,0.0,0.0,0.0,0.0,0.0,0.0,0.0,0.0,0.0,0.0,0.0,0.0,0.0,0.0,0.0,0.0,0.0,0.0,0.0,0.0,0.0,0.0,0.0,0.0,0.0,0.0,0.0,0.0,0.0,0.0,0.0,0.0,0.0,0.0,0.0,0.0,0.0,0.0,0.0,0.0,0.0,0.0,0.0,0.0,0.0,0.0,0.0,0.0,0.0,0.0,0.0,0.0,0.0,0.0,0.0,0.0,0.0,0.0,0.0,0.0,0.0,0.0,0.0,0.0,0.0,0.0,0.0,0.0,0.0,0.0,0.0,0.0,0.0,0.0,0.0,0.0,0.0,0.0,0.0,0.0,0.0,0.0,0.0,0.0,0.0,0.0,0.0,0.0,0.0,0.0,0.0,0.0,0.0,0.0,0.0,0.0,0.0,0.0,0.0,0.0,0.0,0.0,0.0,0.0,0.0,0.0,0.0,0.0,0.0,0.0,0.0,0.0,0.0,0.0,0.0,0.0,0.0,0.0,0.0,0.0,0.0,0.0,0.0,0.0,0.0,0.0,0.0,0.0,0.0,0.0,0.0,0.0,0.0,0.0,0.0,0.0,0.0,0.0,0.0,0.0,0.0,0.0,0.0,0.0,0.0,0.0,0.0,0.0,0.0,0.0,0.0,0.0,0.0,0.0,0.0,0.0,0.0,0.0,0.0,0.0,0.0,0.0,0.0,0.0,0.0,0.0,0.0,0.0,0.0,0.0,0.0,0.0,0.0,0.0,0.0,0.0,0.0,0.0,0.0,0.0,0.0,0.0,0.0,0.0,0.0,0.0,0.0,0.0,0.0,0.0,0.0,0.0,0.0,0.0,0.0,0.0,0.0,0.0,0.0,0.0,0.0,0.0,0.0,0.0,0.0,0.0,0.0,0.0,0.0,0.0,0.0,0.0,0.0,0.0,0.0,0.0,0.0,0.0,0.0,0.0,0.0,0.0,0.0,0.0,0.0,0.0,0.0,0.0,0.0,0.0,0.0,0.0,0.0,0.0,0.0,0.0,0.0,0.0,0.0,0.0,0.0,0.0,0.0,0.0,0.0,0.0,0.0,0.0,0.0,0.0,0.0,0.0,0.0,0.0,0.0,0.0,0.0,0.0,0.0,0.0,0.0,0.0,0.0,0.0,0.0,0.0,0.0,0.0,0.0,0.0,0.0,0.0,0.0,0.0,0.0,0.0,0.0,0.0,0.0,0.0,0.0,0.0,0.0,0.0,0.0,0.0,0.0,0.0,0.0,0.0,0.0,0.0,0.0,0.0,0.0,0.0,0.0,0.0,0.0,0.0,0.0,0.0,0.0,0.0,0.0,0.0,0.0,0.0,0.0,0.0,0.0,0.0,0.0,0.0,0.0,0.0,0.0,0.0,0.0,0.0,0.0,0.0,0.0,0.0,0.0,0.0,0.0,0.0,0.0,0.0,0.0,0.0,0.0,0.0,0.0,0.0,0.0,0.0,0.0,0.0,0.0,0.0,0.0,0.0,0.0,0.0,0.0,0.0,0.0,0.0,0.0,0.0,0.0,0.0,0.0,0.0,0.0,0.0,0.0,0.0,0.0,0.0,0.0,0.0,0.0,0.0,0.0,0.0,0.0,0.0,0.0,0.0,0.0,0.0,0.0,0.0,0.0,0.0,0.0,0.0,0.0,0.0,0.0,0.0,0.0,0.0,0.0,0.0,0.0,0.0,0.0,0.0,0.0,0.0,0.0,0.0,0.0,0.0,0.0,0.0,0.0,0.0,0.0,0.0,0.0,0.0,0.0,0.0,0.0,0.0,0.0,0.0,0.0,0.0,0.0,0.0,0.0,0.0,0.0,0.0,0.0,0.0,0.0,0.0,0.0,0.0,0.0,0.0,0.0,0.0,0.0,0.0,0.0,0.0,0.0,0.0,0.0,0.0,0.0,0.0,0.0,0.0,0.0,0.0,0.0,0.0,0.0,0.0,0.0,0.0,0.0,0.0,0.0,0.0,0.0,0.0,0.0,0.0,0.0,0.0,0.0,0.0,0.0,0.0,0.0,0.0,0.0,0.0,0.0,0.0,0.0,0.0,0.0,0.0,0.0,0.0,0.0,0.0,0.0,0.0,0.0,0.0,0.0,0.0,0.0,0.0,0.0,0.0,0.0,0.0,0.0,0.0,0.0,0.0,0.0,0.0,0.0,0.0,0.0,0.0,0.0,0.0,0.0,0.0,0.0,0.0,0.0,0.0,0.0,0.0,0.0,0.0,0.0,0.0,0.0,0.0,0.0,0.0,0.0,0.0,0.0,0.0,0.0,0.0,0.0,0.0,0.0,0.0,0.0,0.0,0.0,0.0,0.0,0.0,0.0,0.0,0.0,0.0,0.0,0.0,0.0,0.0,0.0,0.0,0.0,0.0,0.0,0.0,0.0,0.0,0.0,0.0,0.0,0.0,0.0,0.0,0.0,0.0,0.0,0.0,0.0,0.0,0.0,0.0,0.0,0.0,0.0,0.0,0.0,0.0,0.0,0.0,0.0,0.0,0.0,0.0,0.0,0.0,0.0,0.0,0.0,0.0,0.0,0.0,0.0,0.0,0.0,0.0,0.0,0.0,0.0,0.0,0.0,0.0,0.0,0.0,0.0,0.0,0.0,0.0,0.0,0.0,0.0,0.0,0.0,0.0,0.0,0.0,0.0,0.0,0.0,0.0,0.0,0.0,0.0,0.0,0.0,0.0,0.0,0.0,0.0,0.0,0.0,0.0,0.0,0.0,0.0,0.0,0.0,0.0,0.0,0.0,0.0,0.0,0.0,0.0,0.0,0.0,0.0,0.0,0.0,0.0,0.0,0.0,0.0,0.0,0.0,0.0,0.0,0.0,0.0,0.0,0.0,0.0,0.0,0.0,0.0,0.0,0.0,0.0,0.0,0.0,0.0,0.0,0.0,0.0,0.0,0.0,0.0,0.0,0.0,0.0,0.0,0.0,0.0,0.0,0.0,0.0,0.0,0.0,0.0,0.0,0.0,0.0,0.0,0.0,0.0,0.0,0.0,0.0,0.0,0.0,0.0,0.0,0.0,0.0,0.0,0.0,0.0,0.0,0.0,0.0,0.0,0.0,0.0,0.0,0.0,0.0,0.0,0.0,0.0,0.0,0.0,0.0,0.0,0.0,0.0,0.0,0.0,0.0,0.0,0.0,0.0,0.0,0.0,0.0,0.0,0.0,0.0,0.0,0.0,0.0,0.0,0.0,0.0,0.0,0.0,0.0,0.0,0.0,0.0,0.0,0.0,0.0,0.0,0.0,0.0,0.0,0.0,0.0,0.0,0.0,0.0,0.0,0.0,0.0,0.0,0.0,0.0,0.0,0.0,0.0,0.0,0.0,0.0,0.0,0.0,0.0,0.0,0.0,0.0,0.0,0.0,0.0,0.0,0.0,0.0,0.0,0.0,0.0,0.0,0.0,0.0,0.0,0.0,0.0,0.0,0.0,0.0,0.0,0.0,0.0,0.0,0.0,3.0208,0.0,0.0,0.0,0.0,0.0,0.0,0.0,0.0,0.0,0.0,0.0,0.0,0.0,0.0,0.0,0.0,0.0,0.0,0.0,0.0,0.0,0.0,0.0,0.0,0.0,0.0,0.0,0.0,0.0,0.0,0.0,0.0,0.0,0.0,0.0,0.0,0.0,0.0,0.0,0.0,0.0,0.0,0.0,0.0,0.0,0.0,0.0,0.0,0.0,0.0,0.0,0.0,0.0,0.0,0.0,0.0,0.0,0.0,0.0,0.0,0.0,0.0,0.0,0.0,0.0,0.0,0.0,0.0,0.0,0.0,0.0,0.0,0.0,0.0,0.0,0.0,0.0,0.0,0.0,0.0,0.0,0.0,0.0,0.0,0.0,0.0,0.0,0.0,0.0,0.0,0.0,0.0,0.0,0.0,0.0,0.0,0.0,0.0,0.0,0.0,0.0,0.0,0.0,0.0,0.0,0.0,0.0,0.0,0.0,0.0,3.0225,3.0089,3.0308,3.0423,3.0412,0.0,0.0,0.0,0.0,0.0,0.0,0.0,0.0,0.0,0.0,0.0,0.0,0.0,0.0,0.0,0.0,0.0,0.0,0.0,0.0,0.0,0.0,0.0,0.0,0.0,0.0,0.0,0.0,0.0,0.0,0.0,0.0,0.0,0.0,0.0,0.0,0.0,0.0,0.0,0.0,0.0,0.0,0.0,0.0,0.0,0.0,0.0,0.0,0.0,0.0,0.0,0.0,0.0,0.0,0.0,0.0,0.0,0.0,0.0,0.0,0.0,0.0,0.0,0.0,0.0,0.0,0.0,0.0,0.0,0.0,0.0,0.0,0.0,0.0,0.0,0.0,0.0,0.0,0.0,0.0,0.0,0.0,0.0,0.0,0.0,0.0,0.0,0.0,0.0,0.0,0.0,0.0,0.0,0.0,0.0,0.0,0.0,0.0,0.0,0.0,0.0,0.0,0.0,0.0,0.0,0.0,0.0,0.0,0.0,0.0,0.0,0.0,3.0614,3.0577,3.0228,0.0,0.0,0.0,0.0,0.0,0.0,0.0,0.0,0.0,0.0,0.0,0.0,0.0,0.0,0.0,0.0,0.0,0.0,0.0,0.0,0.0,0.0,0.0,0.0,0.0,0.0,0.0,0.0,0.0,0.0,0.0,0.0,0.0,0.0,0.0,0.0,0.0,0.0,0.0,0.0,0.0,0.0,0.0,0.0,0.0,0.0,0.0,0.0,0.0,0.0,0.0,0.0,0.0,0.0,0.0,0.0,0.0,0.0,0.0,0.0,0.0,0.0,0.0,0.0,0.0,0.0,0.0,0.0,0.0,0.0,0.0,0.0,0.0,0.0,0.0,0.0,0.0,0.0,0.0,0.0,0.0,0.0,0.0,0.0,0.0,0.0,0.0,0.0,0.0,0.0,0.0,0.0,0.0,0.0,0.0,0.0,0.0,0.0,0.0,0.0,0.0,0.0,0.0,0.0,0.0,0.0,0.0,0.0,0.0,0.0,3.0481,3.1259,3.1526,0.0,2.9654,0.0,0.0,0.0,0.0,0.0,0.0,0.0,0.0,0.0,0.0,0.0,0.0,0.0,0.0,0.0,0.0,0.0,0.0,0.0,0.0,0.0,0.0,0.0,0.0,0.0,0.0,0.0,0.0,0.0,0.0,0.0,0.0,0.0,0.0,0.0,0.0,0.0,0.0,0.0,0.0,0.0,0.0,0.0,0.0,0.0,0.0,0.0,0.0,0.0,0.0,0.0,0.0,0.0,0.0,0.0,0.0,0.0,0.0,0.0,0.0,0.0,0.0,0.0,0.0,0.0,0.0,0.0,0.0,0.0,0.0,0.0,0.0,0.0,0.0,0.0,0.0,0.0,0.0,0.0,0.0,0.0,0.0,0.0,0.0,0.0,0.0,0.0,0.0,0.0,0.0,0.0,0.0,0.0,0.0,0.0,0.0,0.0,0.0,0.0,0.0,0.0,0.0,0.0,0.0,0.0,0.0,0.0,0.0,0.0,0.0,0.0,3.1223,3.1097,3.0525,0.0,0.0,0.0,0.0,0.0,0.0,0.0,0.0,0.0,0.0,0.0,0.0,0.0,0.0,0.0,0.0,0.0,0.0,0.0,0.0,0.0,0.0,0.0,0.0,0.0,0.0,0.0,0.0,0.0,0.0,0.0,0.0,0.0,0.0,0.0,0.0,0.0,0.0,0.0,0.0,0.0,0.0,0.0,0.0,0.0,0.0,0.0,0.0,0.0,0.0,0.0,0.0,0.0,0.0,0.0,0.0,0.0,0.0,0.0,0.0,0.0,0.0,0.0,0.0,0.0,0.0,0.0,0.0,0.0,0.0,0.0,0.0,0.0,0.0,0.0,0.0,0.0,0.0,0.0,0.0,0.0,0.0,0.0,0.0,0.0,0.0,0.0,0.0,0.0,0.0,0.0,0.0,0.0,0.0,0.0,0.0,0.0,0.0,0.0,0.0,0.0,0.0,0.0,0.0,0.0,0.0,0.0,0.0,0.0,0.0,3.0961,0.0,3.1642,3.1362,3.0652,2.9441,0.0,0.0,0.0,0.0,0.0,0.0,0.0,0.0,0.0,0.0,0.0,0.0,0.0,0.0,0.0,0.0,0.0,0.0,0.0,0.0,0.0,0.0,0.0,0.0,0.0,0.0,0.0,0.0,0.0,0.0,0.0,0.0,0.0,0.0,0.0,0.0,0.0,0.0,0.0,0.0,0.0,0.0,0.0,0.0,0.0,0.0,0.0,0.0,0.0,0.0,0.0,0.0,0.0,0.0,0.0,0.0,0.0,0.0,0.0,0.0,0.0,0.0,0.0,0.0,0.0,0.0,0.0,0.0,0.0,0.0,0.0,0.0,0.0,0.0,0.0,0.0,0.0,0.0,0.0,0.0,0.0,0.0,0.0,0.0,0.0,0.0,0.0,0.0,0.0,0.0,0.0,0.0,0.0,0.0,0.0,0.0,0.0,0.0,0.0,0.0,0.0,0.0,0.0,0.0,0.0,0.0,0.0,0.0,0.0,3.1424,3.1747,3.3031,3.3025,3.1853,0.0,0.0,0.0,0.0,0.0,0.0,0.0,0.0,0.0,0.0,0.0,0.0,0.0,0.0,0.0,0.0,0.0,0.0,0.0,0.0,0.0,0.0,0.0,0.0,0.0,0.0,0.0,0.0,0.0,0.0,0.0,0.0,0.0,0.0,0.0,0.0,0.0,0.0,0.0,0.0,0.0,0.0,0.0,0.0,0.0,0.0,0.0,0.0,0.0,0.0,0.0,0.0,0.0,0.0,0.0,0.0,0.0,0.0,0.0,0.0,0.0,0.0,0.0,0.0,0.0,0.0,0.0,0.0,0.0,0.0,0.0,0.0,0.0,0.0,0.0,0.0,0.0,0.0,0.0,0.0,0.0,0.0,0.0,0.0,0.0,0.0,0.0,0.0,0.0,0.0,0.0,0.0,0.0,0.0,0.0,0.0,0.0,0.0,0.0,0.0,0.0,0.0,0.0,0.0,0.0,0.0,0.0,0.0,0.0,3.0653,3.1074,3.1911,3.3074,3.1478,2.9921,0.0,0.0,0.0,0.0,0.0,0.0,0.0,0.0,0.0,0.0,0.0,0.0,0.0,0.0,0.0,0.0,0.0,0.0,0.0,0.0,0.0,0.0,0.0,0.0,0.0,0.0,0.0,0.0,0.0,0.0,0.0,0.0,0.0,0.0,0.0,0.0,0.0,0.0,0.0,0.0,0.0,0.0,0.0,0.0,0.0,0.0,0.0,0.0,0.0,0.0,0.0,0.0,0.0,0.0,0.0,0.0,0.0,0.0,0.0,0.0,0.0,0.0,0.0,0.0,0.0,0.0,0.0,0.0,0.0,0.0,0.0,0.0,0.0,0.0,0.0,0.0,0.0,0.0,0.0,0.0,0.0,0.0,0.0,0.0,0.0,0.0,0.0,0.0,0.0,0.0,0.0,0.0,0.0,0.0,0.0,0.0,0.0,0.0,0.0,0.0,0.0,0.0,0.0,0.0,0.0,0.0,0.0,0.0,0.0,3.0232,0.0,3.1898,0.0,3.0685,2.8955,0.0,0.0,0.0,0.0,0.0,0.0,0.0,0.0,0.0,0.0,0.0,0.0,0.0,0.0,0.0,0.0,0.0,0.0,0.0,0.0,0.0,0.0,0.0,0.0,0.0,0.0,0.0,0.0,0.0,0.0,0.0,0.0,0.0,0.0,0.0,0.0,0.0,0.0,0.0,0.0,0.0,0.0,0.0,0.0,0.0,0.0,0.0,0.0,0.0,0.0,0.0,0.0,0.0,0.0,0.0,0.0,0.0,0.0,0.0,0.0,0.0,0.0,0.0,0.0,0.0,0.0,0.0,0.0,0.0,0.0,0.0,0.0,0.0,0.0,0.0,0.0,0.0,0.0,0.0,0.0,0.0,0.0,0.0,0.0,0.0,0.0,0.0,0.0,0.0,0.0,0.0,0.0,0.0,0.0,0.0,0.0,0.0,0.0,0.0,0.0,0.0,0.0,0.0,0.0,0.0,0.0,0.0,0.0,3.0002,3.1021,3.144,3.1716,3.187,3.0895,2.9279,0.0,0.0,0.0,0.0,0.0,0.0,0.0,0.0,0.0,0.0,0.0,0.0,0.0,0.0,0.0,0.0,0.0,0.0,0.0,0.0,0.0,0.0,0.0,0.0,0.0,0.0,0.0,0.0,0.0,0.0,0.0,0.0,0.0,0.0,0.0,0.0,0.0,0.0,0.0,0.0,0.0,0.0,0.0,0.0,0.0,0.0,0.0,0.0,0.0,0.0,0.0,0.0,0.0,0.0,0.0,0.0,0.0,0.0,0.0,0.0,0.0,0.0,0.0,0.0,0.0,0.0,0.0,0.0,0.0,0.0,0.0,0.0,0.0,0.0,0.0,0.0,0.0,0.0,0.0,0.0,0.0,0.0,0.0,0.0,0.0,0.0,0.0,0.0,0.0,0.0,0.0,0.0,0.0,0.0,0.0,0.0,0.0,0.0,0.0,0.0,0.0,0.0,0.0,0.0,0.0,0.0,0.0,0.0,0.0,3.0399,3.0717,3.0926,3.0965,2.9594,2.8213,0.0,0.0,0.0,0.0,0.0,0.0,0.0,0.0,0.0,0.0,0.0,0.0,0.0,0.0,0.0,0.0,0.0,0.0,0.0,0.0,0.0,0.0,0.0,0.0,0.0,0.0,0.0,0.0,0.0,0.0,0.0,0.0,0.0,0.0,0.0,0.0,0.0,0.0,0.0,0.0,0.0,0.0,0.0,0.0,0.0,0.0,0.0,0.0,0.0,0.0,0.0,0.0,0.0,0.0,0.0,0.0,0.0,0.0,0.0,0.0,0.0,0.0,0.0,0.0,0.0,0.0,0.0,0.0,0.0,0.0,0.0,0.0,0.0,0.0,0.0,0.0,0.0,0.0,0.0,0.0,0.0,0.0,0.0,0.0,0.0,0.0,0.0,0.0,0.0,0.0,0.0,0.0,0.0,0.0,0.0,0.0,0.0,0.0,0.0,0.0,0.0,0.0,0.0,0.0,0.0,0.0,0.0,0.0,0.0,2.9921,3.0298,3.0547,3.0637,2.9303,2.8028,2.6878,0.0,0.0,0.0,0.0,0.0,0.0,0.0,0.0,0.0,0.0,0.0,0.0,0.0,0.0,0.0,0.0,0.0,0.0,0.0,0.0,0.0,0.0,0.0,0.0,0.0,0.0,0.0,0.0,0.0,0.0,0.0,0.0,0.0,0.0,0.0,0.0,0.0,0.0,0.0,0.0,0.0,0.0,0.0,0.0,0.0,0.0,0.0,0.0,0.0,0.0,0.0,0.0,0.0,0.0,0.0,0.0,0.0,0.0,0.0,0.0,0.0,0.0,0.0,0.0,0.0,0.0,0.0,0.0,0.0,0.0,0.0,0.0,0.0,0.0,0.0,0.0,0.0,0.0,0.0,0.0,0.0,0.0,0.0,0.0,0.0,0.0,0.0,0.0,0.0,0.0,0.0,0.0,0.0,0.0,0.0,0.0,0.0,0.0,0.0,0.0,0.0,0.0,0.0,0.0,0.0,0.0,0.0,0.0,2.9409,2.9999,3.0438,3.067,2.9755,2.8576,0.0,0.0,0.0,0.0,0.0,0.0,0.0,0.0,0.0,0.0,0.0,0.0,0.0,0.0,0.0,0.0,0.0,0.0,0.0,0.0,0.0,0.0,0.0,0.0,0.0,0.0,0.0,0.0,0.0,0.0,0.0,0.0,0.0,0.0,0.0,0.0,0.0,0.0,0.0,0.0,0.0,0.0,0.0,0.0,0.0,0.0,0.0,0.0,0.0,0.0,0.0,0.0,0.0,0.0,0.0,0.0,0.0,0.0,0.0,0.0,0.0,0.0,0.0,0.0,0.0,0.0,0.0,0.0,0.0,0.0,0.0,0.0,0.0,0.0,0.0,0.0,0.0,0.0,0.0,0.0,0.0,0.0,0.0,0.0,0.0,0.0,0.0,0.0,0.0,0.0,0.0,0.0,0.0,0.0,0.0,0.0,0.0,0.0,0.0,0.0,0.0,0.0,0.0,0.0,0.0,0.0,0.0,0.0,0.0,2.718,2.7879,2.9,3.0378,2.9012,2.8059,0.0,0.0,0.0,0.0,0.0,0.0,0.0,0.0,0.0,0.0,0.0,0.0,0.0,0.0,0.0,0.0,0.0,0.0,0.0,0.0,0.0,0.0,0.0,0.0,0.0,0.0,0.0,0.0,0.0,0.0,0.0,0.0,0.0,0.0,0.0,0.0,0.0,0.0,0.0,0.0,0.0,0.0,0.0,0.0,0.0,0.0,0.0,0.0,0.0,0.0,0.0,0.0,0.0,0.0,0.0,0.0,0.0,0.0,0.0,0.0,0.0,0.0,0.0,0.0,0.0,0.0,0.0,0.0,0.0,0.0,0.0,0.0,0.0,0.0,0.0,0.0,0.0,0.0,0.0,0.0,0.0,0.0,0.0,0.0,0.0,0.0,0.0,0.0,0.0,0.0,0.0,0.0,0.0,0.0,0.0,0.0,0.0,0.0,0.0,0.0,0.0,0.0,0.0,0.0,0.0,0.0,0.0,0.0,2.5032,2.2973,2.329,2.4108,2.5384,2.7008,2.7643,0.0,0.0,0.0,0.0,0.0,0.0,0.0,0.0,0.0,0.0,0.0,0.0,0.0,0.0,0.0,0.0,0.0,0.0,0.0,0.0,0.0,0.0,0.0,0.0,0.0,0.0,0.0,0.0,0.0,0.0,0.0,0.0,0.0,0.0,0.0,0.0,0.0,0.0,0.0,0.0,0.0,0.0,0.0,0.0,0.0,0.0,0.0,0.0,0.0,0.0,0.0,0.0,0.0,0.0,0.0,0.0,0.0,0.0,0.0,0.0,0.0,0.0,0.0,0.0,0.0,0.0,0.0,0.0,0.0,0.0,0.0,0.0,0.0,0.0,0.0,0.0,0.0,0.0,0.0,0.0,0.0,0.0,0.0,0.0,0.0,0.0,0.0,0.0,0.0,0.0,0.0,0.0,0.0,0.0,0.0,0.0,0.0,0.0,0.0,0.0,0.0,0.0,0.0,0.0,0.0,0.0,0.0,0.0,1.9533,1.7379,1.686,1.7012,1.8021,2.3716,2.6535,0.0,0.0,0.0,0.0,0.0,0.0,0.0,0.0,0.0,0.0,0.0,0.0,0.0,0.0,0.0,0.0,0.0,0.0,0.0,0.0,0.0,0.0,0.0,0.0,0.0,0.0,0.0,0.0,0.0,0.0,0.0,0.0,0.0,0.0,0.0,0.0,0.0,0.0,0.0,0.0,0.0,0.0,0.0,0.0,0.0,0.0,0.0,0.0,0.0,0.0,0.0,0.0,0.0,0.0,0.0,0.0,0.0,0.0,0.0,0.0,0.0,0.0,0.0,0.0,0.0,0.0,0.0,0.0,0.0,0.0,0.0,0.0,0.0,0.0,0.0,0.0,0.0,0.0,0.0,0.0,0.0,0.0,0.0,0.0,0.0,0.0,0.0,0.0,0.0,0.0,0.0,0.0,0.0,0.0,0.0,0.0,0.0,0.0,0.0,0.0,0.0,0.0,0.0,0.0,0.0,0.0,0.0,0.0,1.1078,1.0361,0.8508,0.9379,1.3231,1.7671,2.0788,0.0,0.0,0.0,0.0,0.0,0.0,0.0,0.0,0.0,0.0,0.0,0.0,0.0,0.0,0.0,0.0,0.0,0.0,0.0,0.0,0.0,0.0,0.0,0.0,0.0,0.0,0.0,0.0,0.0,0.0,0.0,0.0,0.0,0.0,0.0,0.0,0.0,0.0,0.0,0.0,0.0,0.0,0.0,0.0,0.0,0.0,0.0,0.0,2.781,0.0,0.0,0.0,0.0,0.0,0.0,0.0,0.0,0.0,0.0,0.0,0.0,0.0,0.0,0.0,0.0,0.0,0.0,0.0,0.0,0.0,0.0,0.0,0.0,0.0,0.0,0.0,0.0,0.0,0.0,0.0,0.0,0.0,0.0,0.0,0.0,0.0,0.0,0.0,0.0,0.0,0.0,0.0,0.0,0.0,0.0,0.0,0.0,0.0,0.0,0.0,0.0,0.0,0.0,0.0,0.0,0.0,0.0,0.0,0.4849,0.3058,0.3022,0.4364,0.7075,0.9063,1.3084,0.0,0.0,0.0,0.0,0.0,0.0,0.0,0.0,0.0,0.0,0.0,0.0,0.0,0.0,0.0,0.0,0.0,0.0,0.0,0.0,0.0,0.0,0.0,0.0,0.0,0.0,0.0,0.0,0.0,0.0,0.0,0.0,0.0,0.0,0.0,0.0,0.0,0.0,0.0,0.0,0.0,0.0,0.0,0.0,0.0,0.0,0.0,0.0,0.0,0.0,0.0,0.0,0.0,0.0,0.0,0.0,0.0,0.0,0.0,0.0,0.0,0.0,0.0,0.0,0.0,0.0,0.0,0.0,0.0,0.0,0.0,0.0,0.0,0.0,0.0,0.0,0.0,0.0,0.0,0.0,0.0,0.0,0.0,0.0,0.0,0.0,0.0,0.0,0.0,0.0,0.0,0.0,0.0,0.0,0.0,0.0,0.0,0.0,0.0,0.0,0.0,0.0,0.0,0.0,0.0,0.0,0.0,0.142,-0.098,-0.3803,-0.178,-0.0,0.1173,0.0663,0.4963,1.4633,0.0,0.0,0.0,0.0,0.0,0.0,0.0,0.0,0.0,0.0,0.0,0.0,0.0,0.0,0.0,0.0,0.0,0.0,0.0,0.0,0.0,0.0,0.0,0.0,0.0,0.0,0.0,0.0,0.0,0.0,0.0,0.0,0.0,0.0,0.0,0.0,0.0,0.0,2.48,2.5968,0.0,0.0,0.0,0.0,0.0,0.0,0.0,0.0,2.11,0.0,0.0,0.0,0.0,0.0,0.0,0.0,0.0,0.0,0.0,0.0,0.0,0.0,0.0,0.0,0.0,0.0,0.0,0.0,0.0,0.0,0.0,0.0,0.0,0.0,0.0,0.0,0.0,0.0,0.0,0.0,0.0,0.0,0.0,0.0,0.0,0.0,0.0,0.0,0.0,0.0,0.0,0.0,0.0,0.0,0.0,0.0,0.0,0.0,0.0,0.0,0.0,0.0,0.0,0.0,0.0,-0.2717,-0.6509,-0.8692,-0.915,-0.8744,-0.6161,-0.1406,-0.2994,-0.1187,0.4769,0.0,0.0,0.0,0.0,0.0,0.0,0.0,0.0,0.0,0.0,0.0,0.0,0.0,0.0,0.0,0.0,0.0,0.0,0.0,0.0,0.0,0.0,0.0,0.0,0.0,0.0,0.0,0.0,0.0,0.0,0.0,0.0,0.0,0.0,0.0,0.0,0.0,0.0,0.0,2.6414,2.7492,0.0,0.0,0.0,0.0,0.0,0.0,0.0,0.0,0.9215,0.0,0.0,0.0,0.0,0.0,0.0,0.0,0.0,0.0,0.0,0.0,0.0,0.0,0.0,0.0,0.0,0.0,0.0,0.0,0.0,0.0,0.0,0.0,0.0,0.0,0.0,0.0,0.0,0.0,0.0,0.0,0.0,0.0,0.0,0.0,0.0,0.0,0.0,0.0,0.0,0.0,0.0,0.0,0.0,0.0,0.0,0.0,0.0,0.0,0.0,0.0,0.0,0.0,0.0,0.0,-0.9925,-1.0696,-1.1225,-1.1679,-0.8483,-0.5308,-0.2442,-0.4343,-0.4102,0.0,0.0,0.0,0.0,0.0,0.0,0.0,0.0,0.0,0.0,0.0,0.0,0.0,0.0,0.0,0.0,0.0,0.0,0.0,0.0,0.0,0.0,0.0,0.0,0.0,0.0,0.0,0.0,0.0,0.0,0.0,0.0,0.0,0.0,0.0,0.0,0.0,0.0,0.0,0.0,2.6818,2.7766,2.8859,0.0,0.0,0.0,0.0,0.0,0.0,0.6651,0.0051,0.0,0.0,0.0,0.0,0.0,0.0,0.0,0.0,0.0,0.0,0.0,0.0,0.0,0.0,0.0,0.0,0.0,0.0,0.0,0.0,0.0,0.0,0.0,0.0,0.0,0.0,0.0,0.0,0.0,0.0,0.0,0.0,0.0,0.0,0.0,0.0,0.0,0.0,0.0,0.0,0.0,0.0,0.0,0.0,0.0,0.0,0.0,0.0,0.0,0.0,0.0,0.0,0.0,0.0,0.0,-1.3104,-1.2015,-1.1711,-1.2103,-0.6031,-0.2691,-0.2665,-0.4656,-0.5303,0.0,0.0,0.0,0.0,0.0,0.0,0.0,0.0,0.0,0.0,0.0,0.0,0.0,0.0,0.0,0.0,0.0,0.0,0.0,0.0,0.0,0.0,0.0,0.0,0.0,0.0,0.0,0.0,0.0,0.0,0.0,0.0,0.0,0.0,0.0,0.0,0.0,0.0,0.0,0.0,0.0,2.7752,2.8144,2.8688,0.0,0.0,0.0,0.0,0.7621,-0.1509,0.0,0.0,0.0,0.0,0.0,0.0,0.0,0.0,0.0,0.0,0.0,0.0,0.0,0.0,0.0,0.0,0.0,0.0,0.0,0.0,0.0,0.0,0.0,0.0,0.0,0.0,0.0,0.0,0.0,0.0,0.0,0.0,0.0,0.0,0.0,0.0,0.0,0.0,0.0,0.0,0.0,0.0,0.0,0.0,0.0,0.0,0.0,0.0,0.0,0.0,0.0,0.0,0.0,0.0,0.0,0.0,-0.5452,-0.9525,-1.1142,-0.9697,-0.3923,-0.1102,-0.1914,-0.4003,-0.4798,0.0,0.0,0.0,0.0,0.0,0.0,0.0,0.0,0.0,0.0,0.0,0.0,0.0,0.0,0.0,0.0,0.0,0.0,0.0,0.0,0.0,0.0,0.0,0.0,0.0,0.0,0.0,0.0,0.0,0.0,0.0,0.0,0.0,0.0,0.0,0.0,0.0,0.0,0.0,0.0,0.0,2.6913,2.5032,2.4983,2.2446,0.0,0.0,0.3178,-0.6279,-1.2334,0.0,0.0,0.0,0.0,0.0,0.0,0.0,0.0,0.0,0.0,0.0,0.0,0.0,0.0,0.0,0.0,0.0,0.0,0.0,0.0,0.0,0.0,0.0,0.0,0.0,0.0,0.0,0.0,0.0,0.0,0.0,0.0,0.0,0.0,0.0,0.0,0.0,0.0,0.0,0.0,0.0,0.0,0.0,0.0,0.0,0.0,0.0,0.0,0.0,0.0,0.0,0.0,0.0,0.0,0.0,-0.7826,-0.6545,-0.7376,-0.8101,-0.8467,-0.3091,-0.0284,-0.0614,-0.2778,-0.3972,0.0,0.0,0.0,0.0,0.0,0.0,0.0,0.0,0.0,0.0,0.0,0.0,0.0,0.0,0.0,0.0,0.0,0.0,0.0,0.0,0.0,0.0,0.0,0.0,0.0,0.0,0.0,0.0,0.0,0.0,0.0,0.0,0.0,0.0,0.0,0.0,0.0,0.0,0.0,0.0,0.0,0.0,1.3948,1.4405,0.0,0.0,0.0,-0.2797,-0.856,0.0,0.0,0.0,0.0,0.0,0.0,0.0,0.0,0.0,0.0,0.0,0.0,0.0,0.0,0.0,0.0,0.0,0.0,0.0,0.0,0.0,0.0,0.0,0.0,0.0,0.0,0.0,0.0,0.0,0.0,0.0,0.0,0.0,0.0,0.0,0.0,0.0,0.0,0.0,0.0,0.0,0.0,0.0,0.0,0.0,0.0,0.0,0.0,0.0,0.0,0.0,0.0,0.0,0.0,0.0,0.0,0.0,-0.4351,-0.4622,-0.4986,-0.5261,-0.177,0.0279,0.0391,-0.1622,0.0,0.0,0.0,0.0,0.0,0.0,0.0,0.0,0.0,0.0,0.0,0.0,0.0,0.0,0.0,0.0,0.0,0.0,0.0,0.0,0.0,0.0,0.0,0.0,0.0,0.0,0.0,1.8386,0.0,0.0,0.0,0.0,0.0,0.0,0.0,0.0,0.0,0.0,0.0,0.0,0.0,0.0,1.2252,0.5295,0.5794,0.562,0.0,0.0,-0.7988,-1.1495,-1.7264,-2.1321,0.0,0.0,0.0,0.0,0.0,0.0,0.0,0.0,0.0,0.0,0.0,0.0,0.0,0.0,0.0,0.0,0.0,0.0,0.0,0.0,0.0,0.0,0.0,0.0,0.0,0.0,0.0,0.0,0.0,0.0,0.0,0.0,0.0,0.0,0.0,0.0,0.0,0.0,0.0,0.0,0.0,0.0,0.0,0.0,0.0,0.0,0.0,0.0,0.0,0.0,0.0,0.0,0.0,0.0,0.0,0.6535,-0.0809,-0.2634,0.1472,0.1111,0.0838,0.0838,-0.0556,-0.1183,0.0,0.0,0.0,0.0,0.0,0.0,0.0,0.0,0.0,0.0,0.0,0.0,0.0,0.0,0.0,0.0,0.0,0.0,0.0,0.0,0.0,0.0,0.0,0.0,0.0,0.0,0.0,0.0,0.0,0.0,0.0,0.0,0.0,0.0,0.0,0.0,0.0,0.0,0.0,0.0,0.0,0.6992,0.3843,0.2971,-0.0531,0.0,0.0,-1.3178,-1.9536,-2.1164,-2.1568,-2.0953,0.0,0.0,0.0,0.0,0.0,0.0,0.0,0.0,0.0,0.0,0.0,0.0,0.0,0.0,0.0,0.0,0.0,0.0,0.0,0.0,0.0,0.0,0.0,0.0,0.0,0.0,0.0,0.0,0.0,0.0,0.0,0.0,0.0,0.0,0.0,0.0,0.0,0.0,0.0,0.0,0.0,0.0,0.0,0.0,0.0,0.0,0.0,0.0,0.0,0.0,0.0,0.0,0.0,0.7255,0.8618,0.3548,0.1411,0.2345,0.2128,0.2071,0.2183,0.1394,0.0863,0.0,0.0,0.0,0.0,0.0,0.0,0.0,0.0,0.0,0.0,0.0,0.0,0.0,0.0,0.0,0.0,0.0,0.0,0.0,0.0,0.0,0.0,0.0,0.0,0.0,0.0,0.0,0.0,0.7979,1.0143,1.3539,0.0,0.0,0.0,0.0,0.0,0.0,0.0,0.0,0.0,0.0,-0.3638,-0.7692,-0.822,0.0,0.0,-1.4599,-1.6136,-1.9482,-2.0505,-2.0784,-2.0388,-2.0339,0.0,0.0,0.0,0.0,0.0,0.0,0.0,0.0,0.0,0.0,0.0,0.0,0.0,0.0,0.0,0.0,0.0,0.0,0.0,0.0,0.0,0.0,0.0,0.0,0.0,0.0,0.0,0.0,0.0,0.0,0.0,0.0,0.0,0.0,0.0,0.0,0.0,0.0,0.0,0.0,0.0,0.0,0.0,0.0,0.0,0.0,0.0,0.0,0.0,0.0,0.0,0.0,0.9948,0.9256,0.6015,0.3955,0.3132,0.2968,0.2971,0.3084,0.291,0.2434,0.0,0.0,0.0,0.0,0.0,0.0,0.0,0.0,0.0,0.0,0.0,0.0,0.0,0.0,0.0,0.0,0.0,0.0,0.0,0.0,0.0,0.0,0.0,0.0,0.0,0.0,0.0,0.0,0.5264,0.8171,1.1936,0.0,0.0,0.0,0.0,0.0,0.0,0.0,0.0,0.0,0.0,-1.1747,-1.4122,-1.4565,-1.4868,-1.554,-1.6604,-1.7703,-1.8827,-1.9683,-2.0112,-1.9907,0.0,0.0,0.0,0.0,0.0,0.0,0.0,0.0,0.0,0.0,0.0,0.0,0.0,0.0,0.0,0.0,0.0,0.0,0.0,0.0,0.0,0.0,0.0,0.0,0.0,0.0,0.0,0.0,0.0,0.0,1.8744,0.0,0.0,0.0,0.0,0.0,0.0,0.0,0.0,0.0,0.0,0.0,0.0,0.0,0.0,0.0,0.0,0.0,0.0,0.0,0.0,0.0,0.0,0.9363,0.9577,0.6056,0.4358,0.4577,0.3802,0.3412,0.3411,0.3477,0.3259,0.2574,0.0,0.0,0.0,0.0,0.0,0.0,0.0,0.0,0.0,0.0,0.0,0.0,0.0,0.0,0.0,0.0,0.0,0.0,0.0,0.0,0.0,0.0,0.0,0.0,0.0,0.0,-0.4499,0.0608,0.5828,0.0,0.0,0.0,0.0,0.0,0.0,0.0,0.0,0.0,0.0,-1.243,-1.5812,-1.2545,-1.3455,-1.4834,-1.568,-1.6829,-1.7872,-1.8685,-1.9254,-1.9619,0.0,0.0,0.0,0.0,0.0,0.0,0.0,0.0,0.0,0.0,0.0,0.0,0.0,0.0,0.0,0.0,0.0,0.0,0.0,0.0,0.0,0.0,0.0,0.0,0.0,0.0,0.0,-0.1578,0.2923,0.0,0.0,0.0,0.0,0.0,0.0,0.0,0.0,0.0,0.0,0.0,-2.3597,-2.0038,0.0,0.0,0.0,0.0,0.0,0.0,0.0,0.0,0.0,0.0,0.0,0.0,0.8327,0.764,0.58,0.4734,0.4575,0.4078,0.3923,0.4256,0.3834,0.3349,0.2823,0.0,0.0,0.0,0.0,0.0,0.0,0.0,0.0,0.0,0.0,0.0,0.0,0.0,0.0,0.0,0.0,0.0,0.0,0.0,0.0,0.0,0.0,0.0,0.0,0.0,-0.2876,0.0,0.0,0.0,0.0,0.0,0.0,0.0,0.0,0.0,0.0,0.0,-1.3997,-1.157,-1.6187,-1.7709,-1.1976,-1.3137,-1.4843,0.0,0.0,0.0,0.0,0.0,0.0,0.0,0.0,0.0,0.0,0.0,0.0,0.0,0.0,-2.7009,-2.6005,-2.5493,-2.491,-2.39,0.0,0.0,0.0,0.0,0.0,0.0,0.0,0.0,0.0,0.0,0.0,0.0,0.0,0.0,-0.8286,0.0,0.1568,0.0,0.0,0.0,0.0,0.0,0.0,0.0,0.0,-2.1557,-2.5426,-2.9566,-2.5721,-2.3726,0.0,-2.4052,-2.353,0.0,0.0,0.0,0.0,0.0,0.0,0.0,0.0,0.722,0.6599,0.5513,0.4871,0.4656,0.4277,0.4154,0.4365,0.3899,0.3445,0.3142,0.3071,0.2976,0.0,0.0,0.0,0.0,0.0,0.0,0.0,0.0,0.0,0.0,0.0,0.0,0.0,0.0,0.0,0.0,0.0,0.0,0.0,0.0,0.0,0.0,0.0,-0.5191,0.0,0.0,0.0,0.0,0.0,0.0,0.0,0.0,0.0,-1.1075,-1.7017,-1.998,-1.6067,-1.8882,-1.8652,-1.1484,0.0,0.0,0.0,0.0,0.0,0.0,0.0,-1.8047,-1.7829,-1.7457,-1.7555,-1.8562,-2.1643,-2.4261,-2.5183,0.0,0.0,-2.6238,-2.5678,-2.5031,-2.3963,-2.3693,-2.3246,-2.2069,-2.1458,-2.0791,0.0,0.0,0.0,0.0,0.0,0.0,0.0,0.0,-1.8547,-1.5314,0.0,-0.7661,0.0,0.0,0.0,0.0,0.0,0.0,0.0,0.0,-2.769,-3.018,-2.9874,-2.9632,-2.9508,-2.9372,-2.9349,-2.8581,-2.6726,-1.9922,0.0,0.0,0.0,0.0,0.0,0.0,0.6166,0.6355,0.5302,0.4774,0.4887,0.446,0.412,0.3863,0.3672,0.3591,0.3586,0.3731,0.342,0.2575,0.4517,0.0,0.0,0.0,0.0,0.0,0.0,0.0,0.0,0.0,0.0,0.0,0.0,0.0,0.0,0.0,0.0,0.0,0.0,0.0,0.0,-0.832,0.0,0.0,0.0,0.0,0.0,0.0,0.0,0.0,0.0,0.0,-2.2288,-2.3624,-2.3068,-1.9379,0.0,0.0,0.0,0.0,-1.4314,-1.5835,-1.7081,-1.8317,-1.9579,-1.9143,-1.8721,-1.8875,0.0,0.0,-2.0811,-2.257,-2.395,-2.5,-2.5815,-2.6572,-2.6988,-2.6488,-2.5729,-2.4602,-2.4032,-2.3426,-2.2221,-2.1155,-2.0276,-1.9859,0.0,0.0,0.0,0.0,-2.2107,-2.3157,-2.337,-2.217,-1.9732,-1.6278,-1.2272,0.0,0.0,0.0,0.0,0.0,0.0,-2.3243,-2.7979,-2.9243,-2.9681,-2.9529,-2.9068,-2.885,-2.8827,-2.8768,-2.8433,-2.7544,-2.1865,-1.8135,-1.6308,0.0,0.0,0.0,0.0,0.5284,0.5087,0.5093,0.5039,0.4886,0.4769,0.4577,0.4294,0.376,0.3542,0.3676,0.3097,0.2796,0.2942,0.3965,0.0,0.0,0.0,0.0,0.0,0.0,0.0,0.0,0.0,0.0,0.0,0.0,0.0,0.0,0.0,0.0,0.0,0.0,0.0,-1.601,-1.1433,-0.8967,0.0,0.0,0.0,0.0,0.0,0.0,0.0,0.0,0.0,-2.6427,-2.749,-2.5979,0.0,0.0,-1.9141,-1.2793,-1.3494,-1.5133,-1.6472,0.0,0.0,0.0,-1.8877,-1.8383,-1.8041,-1.8041,-1.8637,-2.0334,-2.1725,-2.3089,-2.4435,-2.4721,-2.49,-2.548,-2.5558,-2.5213,-2.4461,-2.3585,-2.2584,-2.1506,-2.054,-1.9625,-2.3132,-2.151,-2.0858,-2.1011,-2.1867,-2.3643,-2.4865,-2.5596,-2.5198,-2.3953,-2.2039,-1.9048,-1.602,-1.3088,-1.1695,0.0,0.0,0.0,-2.6261,-2.9939,-2.9465,-2.912,-2.8857,-2.8411,-2.8228,-2.8246,-2.8201,-2.7894,-2.7276,-2.4156,-2.2114,-2.0754,0.0,0.0,-0.3776,0.2151,0.5017,0.4677,0.5009,0.5033,0.469,0.4426,0.4466,0.4737,0.401,0.3702,0.3957,0.3298,0.2917,0.2947,0.3828,0.4925,0.0,0.0,0.0,0.0,0.0,0.0,0.0,0.0,0.0,0.0,0.0,0.7104,0.4223,0.0,0.0,0.0,-0.9807,-1.5229,-2.1063,-1.5844,0.0,0.0,0.0,0.0,0.0,0.0,0.0,-2.5733,-2.4755,-2.4691,-2.7637,-2.8343,-2.6716,-2.1758,-2.1604,-2.0073,-1.479,0.0,-1.6305,-1.7135,-1.8129,-1.8961,-1.9275,-1.8963,-1.8574,-1.8234,-1.834,-1.8949,-2.0186,-2.1315,-2.248,-2.3574,-2.3906,-2.4078,-2.4508,-2.442,-2.4119,-2.3701,-2.298,-2.1993,-2.0917,-2.0029,-1.9187,-2.5535,-2.4971,-2.1672,-2.1174,-2.2662,-2.4074,-2.5577,-2.7063,-2.761,-2.7658,-2.7296,-2.6509,-2.4263,-2.1082,-2.1051,0.0,0.0,-2.8485,-2.8679,-2.9044,-2.8908,-2.8557,-2.8093,-2.7851,-2.7742,-2.7757,-2.7829,-2.7264,-2.6204,-2.6332,-2.5856,-2.4386,-1.0872,-0.4101,-0.3987,0.2083,0.5222,0.4952,0.512,0.4932,0.439,0.3822,0.4057,0.512,0.4343,0.4074,0.437,0.4012,0.3511,0.2905,0.3896,0.486,0.5545,0.0,0.0,0.0,0.0,0.0,0.0,0.0,0.0,0.0,0.0,0.0,0.0,0.0,0.0,0.0,-1.5323,0.0,-2.4305,-2.0903,0.0,0.0,0.0,-1.5374,-1.7377,-2.1716,-2.4758,-2.5322,0.0,0.0,0.0,0.0,-2.5955,-2.2618,-2.2595,-2.1299,-1.6876,-1.6898,-1.7546,-1.7767,-1.8195,-1.8685,-1.9223,-1.9125,-1.897,-1.8992,-1.9064,-1.9445,-2.0308,-2.1247,-2.2138,-2.2955,-2.34,-2.3706,-2.3854,-2.3268,-2.2596,-2.2465,-2.2094,-2.1479,-2.0406,-1.9528,-1.8744,-2.5783,-2.5561,-2.4622,-2.4774,-2.5703,-2.648,-2.7388,-2.8256,-2.8306,-2.7841,-2.6994,-2.665,-2.5707,-2.4453,-2.4855,-2.6034,-2.78,-2.8086,-2.8372,-2.8623,-2.8394,-2.8164,-2.7945,-2.7517,-2.7544,-2.7897,-2.7712,-2.7231,-2.6482,-2.6099,-2.5433,-2.3996,-1.3013,-0.7587,-0.7705,0.1251,0.5882,0.5609,0.6043,0.5898,0.5236,0.4679,0.4524,0.4788,0.4339,0.4207,0.4429,0.3765,0.3465,0.3755,0.4005,0.4759,0.6114,0.5258,0.0,0.0,0.0,0.0,0.0,0.0,0.0,0.0,0.0,0.4714,-0.0044,0.0,-0.4488,0.0,-1.5164,-2.0077,-2.4856,-2.3291,0.0,0.0,-2.1906,-2.1578,-2.1836,-2.345,-2.4572,-2.4571,-2.5185,-2.5619,-2.5733,-2.6079,-2.5729,-2.4096,-2.3349,-2.1742,-1.849,-1.7793,-1.7861,-1.8154,-1.8319,-1.8376,-1.8345,-1.8532,-1.8834,-1.9227,-1.9699,-2.0246,-2.0695,-2.1227,-2.1897,-2.2494,-2.2771,-2.2897,-2.2994,-2.2548,-2.1673,-2.0637,-2.017,-1.9995,-1.9774,-1.8698,-1.7769,-2.5717,-2.5497,-2.5546,-2.6021,-2.6765,-2.7291,-2.7927,-2.856,-2.8326,-2.787,-2.7333,-2.7107,-2.6841,-2.6578,-2.7013,-2.7378,-2.774,-2.8059,-2.8135,-2.7967,-2.7941,-2.7767,-2.7444,-2.7207,-2.7037,-2.6948,-2.6693,-2.6151,-2.5376,-2.5049,-2.3344,-2.0185,-1.2424,-0.7334,-0.4684,0.2928,0.6583,0.6095,0.6317,0.6154,0.5622,0.5056,0.471,0.4821,0.4317,0.4136,0.4324,0.3906,0.3706,0.3813,0.3979,0.4401,0.494,0.396,0.3708,0.0,0.0,0.0,0.0,0.0,0.0,0.0,0.0,0.0,0.0,0.0,-0.6347,0.0,-1.7544,0.0,-2.4495,-2.3994,-2.3545,-2.3588,-2.3616,-2.3538,-2.3338,-2.3734,-2.4055,-2.4113,-2.427,-2.449,-2.4702,-2.4709,-2.4527,-2.3935,-2.3091,-2.1896,-2.0269,-1.9435,-1.8997,-1.8629,-1.8412,-1.8222,-1.7939,-1.8242,-1.8595,-1.8807,-1.9176,-1.9617,-2.0099,-2.0459,-2.088,-2.1595,-2.1591,-2.1524,-2.171,-2.1045,-2.02,-1.9603,-1.8754,-1.848,-1.8778,-1.8061,-1.7376,-2.5613,-2.5177,-2.5516,-2.609,-2.6791,-2.7232,-2.782,-2.8449,-2.8008,-2.782,-2.7858,-2.7552,-2.7531,-2.7672,-2.7998,-2.8008,-2.784,-2.8201,-2.7954,-2.7289,-2.7552,-2.7356,-2.6748,-2.6748,-2.6325,-2.5597,-2.5376,-2.4687,-2.3618,-2.3758,-2.0863,-1.5127,-1.058,-0.5312,0.057,0.546,0.7447,0.6578,0.6421,0.6206,0.588,0.5235,0.4895,0.4893,0.4328,0.4036,0.4009,0.4117,0.3973,0.3528,0.3802,0.3715,0.3128,0.2153,0.1245,0.0,-0.0349,0.0,0.0,0.0,0.0,0.0,0.0,0.0,0.0,-0.4853,-0.9109,-1.5665,-2.0628,-2.3477,-2.3483,-2.3655,-2.3445,-2.277,-2.2992,-2.3193,-2.3231,-2.3224,-2.3355,-2.3646,-2.3258,-2.3185,-2.3634,-2.3285,-2.2988,-2.2869,-2.2295,-2.1623,-2.1238,-2.0594,-1.9829,-1.8929,-1.8324,-1.7817,-1.777,-1.7964,-1.8119,-1.8075,-1.8154,-1.8408,-1.9147,-1.9346,-1.9785,-2.0528,-2.0364,-2.0127,-2.0448,-1.9443,-1.874,-1.8757,-1.7756,-1.7108,-1.7744,-1.7531,-1.7288,-2.5725,-2.553,-2.5803,-2.6401,-2.7126,-2.7452,-2.7829,-2.8255,-2.8102,-2.7878,-2.7569,-2.7284,-2.727,-2.7483,-2.7739,-2.7672,-2.7352,-2.7961,-2.7789,-2.699,-2.7426,-2.7004,-2.5878,-2.5909,-2.559,-2.4957,-2.4641,-2.3818,-2.2538,-2.3163,-2.0631,-1.5068,-0.9724,-0.4561,0.0441,0.0,0.0,0.0,0.7139,0.6756,0.6426,0.5901,0.5285,0.4634,0.4335,0.0,0.3731,0.382,0.377,0.3578,0.3122,0.0,0.0,0.0,0.0,0.0,0.0,0.0,0.0,0.0,0.0,0.0,-0.4669,-0.6238,-0.82,-1.3268,-1.7003,-1.8274,-2.0985,-2.2586,-2.2365,-2.2681,-2.2846,-2.2603,-2.2618,-2.2723,-2.2934,-2.2979,-2.29,-2.2525,-2.2651,-2.2639,-2.2378,-2.2393,-2.2292,-2.1988,-2.1658,-2.0926,-1.9834,-1.9389,-1.8866,-1.8241,-1.7574,-1.7066,-1.7098,-1.7117,-1.722,-1.7347,-1.744,-1.7812,-1.8515,-1.887,-1.9289,-1.9995,-2.0016,-1.9728,-1.9446,-1.8877,-1.8103,-1.7436,-1.6785,-1.6586,-1.7264,-1.6996,-1.6727,-2.4631,0.0,-2.481,-2.5305,0.0,-2.6262,-2.6503,-2.6763,-2.7503,-2.7573,-2.7184,-2.7064,-2.7128,-2.731,-2.7267,-2.7204,-2.712,-2.7465,-2.7382,-2.7006,-2.6961,-2.658,-2.582,-2.5391,-2.4769,-2.3947,-2.3765,-2.304,-2.1873,-2.2425,-1.864,-1.0781,-0.8234,-0.3218,0.4252,0.7391,0.8682,0.8262,0.7563,0.702,0.6588,0.5937,0.5228,0.4517,0.0,0.0,0.0,0.0,0.0,0.0,0.0,0.0,0.0,0.0,0.0,-0.5442,-0.5915,-0.5997,-0.5751,-0.5483,-0.5709,-0.6611,-0.8827,-1.0667,-1.1796,-1.5818,-1.8413,-1.8776,-2.0588,-2.1843,-2.1986,-2.1952,-2.1741,-2.1423,-2.1322,-2.1317,-2.1264,-2.1458,-2.1534,-2.1434,-2.1206,-2.1083,-2.1106,-2.0789,-2.0677,-2.0681,-2.0584,-2.0173,-1.9294,-1.8912,-1.8524,-1.7664,-1.7193,-1.6775,-1.651,-1.6529,-1.6441,-1.6257,-1.6394,-1.6763,-1.7284,-1.7512,-1.7896,-1.8535,-1.8381,-1.8091,-1.8068,-1.7571,-1.6981,-1.6652,-1.6379,-1.6366,-1.6671,-1.6508,-1.6336,-2.3464,-2.3635,-2.3728,-2.4153,-2.4739,-2.4954,-2.5014,-2.5083,0.0,0.0,0.0,-2.6656,-2.6797,-2.7021,-2.6783,-2.6733,-2.6859,-2.6946,-2.6942,-2.6839,-2.6441,-2.6052,-2.5652,-2.4855,-2.3952,-2.2884,-2.2837,-2.2316,-2.1339,-2.0844,-1.582,-0.7252,-0.6189,-0.1128,0.781,0.8412,0.8408,0.8418,0.7714,0.702,0.6534,0.5716,0.5011,0.4462,0.3906,0.3398,0.2992,0.2618,0.2198,0.1596,0.0873,-0.0382,-0.2382,-0.3748,-0.5372,-0.7258,-0.8015,-0.8299,-0.8119,-0.8471,-0.902,-0.9699,-1.1567,-1.3018,-1.3719,-1.5752,-1.7234,-1.7964,-1.9473,-2.0594,-2.1151,-2.0832,-2.0344,-1.982,-1.9727,-1.9635,-1.9519,-1.9798,-2.0223,-2.0323,-1.9968,-1.9589,-1.9917,-1.9404,-1.9006,-1.9442,-1.956,-1.9244,-1.8755,-1.8482,-1.8084,-1.72,-1.6929,-1.6748,-1.6256,-1.6126,-1.5926,-1.5375,-1.5393,-1.5607,-1.5908,-1.6064,-1.6467,-1.72,-1.6716,-1.6615,-1.6839,-1.638,-1.5858,-1.6119,-1.601,-1.5953,-1.6014,-1.5899,-1.5913,-2.3543,-2.3315,-2.3819,-2.42,-2.4484,-2.4735,-2.4564,-2.4246,-2.4829,-2.5314,-2.5704,-2.5752,-2.6025,-2.6418,-2.6632,-2.6547,-2.6237,-2.669,-2.6548,0.0,-2.6057,-2.5385,-2.4047,-2.3833,-2.3101,-2.1958,-2.1998,-2.173,-2.0743,-1.6997,-1.2261,-0.7282,-0.2787,0.2278,0.7362,0.7613,0.761,0.783,0.7447,0.6964,0.6258,0.5504,0.4851,0.4247,0.3351,0.27,0.2414,0.1706,0.0934,0.0159,-0.0599,-0.1821,-0.3615,-0.4957,-0.6343,-0.7832,-0.8115,-0.8452,-0.892,-0.9091,-0.9722,-1.0872,-1.0969,-1.144,-1.2822,-1.484,-1.6009,-1.5921,-1.7219,-1.8057,-1.8282,-1.8386,-1.8367,-1.8248,-1.8235,-1.8474,-1.9053,-1.9377,-1.9537,-1.9571,-1.9691,-1.9491,-1.9135,-1.8827,-1.8703,-1.8939,-1.8788,-1.8334,-1.7787,-1.736,-1.7144,-1.6823,-1.6737,-1.6614,-1.6244,-1.6008,-1.5662,-1.5198,-1.48,-1.4879,-1.5359,-1.5549,-1.5901,-1.6498,-1.6368,-1.6312,-1.6368,-1.5961,-1.5611,-1.5599,-1.5337,-1.5152,-1.5406,-1.5211,-1.5321,-2.2443,-2.2435,-2.2531,-2.2789,-2.3131,-2.3003,-2.2812,-2.2656,-2.275,-2.3468,-2.4539,-2.458,-2.4854,-2.5351,-2.519,-2.5154,-2.5242,-2.556,-2.5512,-2.5144,-2.4867,-2.4471,-2.3934,-2.3217,-2.2549,-2.1878,-2.1848,-2.1683,-2.094,-1.6527,-1.208,-0.7684,-0.0481,0.4521,0.6835,0.7074,0.713,0.7244,0.6977,0.6591,0.6206,0.5342,0.4689,0.4363,0.3239,0.2163,0.1256,0.0387,-0.0387,-0.0925,-0.2257,-0.3636,-0.4979,-0.6069,-0.7046,-0.7944,-0.8322,-0.8597,-0.8759,-0.9158,-0.9538,-0.9989,-1.0154,-1.0486,-1.1181,-1.3137,-1.4579,-1.5157,-1.6212,-1.7009,-1.7303,-1.726,-1.7068,-1.6794,-1.6705,-1.6822,-1.7204,-1.7751,-1.8117,-1.8413,-1.8589,-1.8599,-1.8436,-1.8173,-1.8094,-1.8263,-1.8033,-1.7653,-1.7335,-1.696,-1.6729,-1.6669,-1.6571,-1.63,-1.5982,-1.5623,-1.5271,-1.48,-1.4558,-1.4512,-1.4777,-1.5011,-1.5232,-1.5484,-1.5573,-1.5629,-1.5668,-1.5457,-1.5244,-1.5091,-1.5123,-1.5089,-1.5061,-1.501,-1.5286,-2.1456,-2.1526,-2.1363,-2.1485,-2.182,-2.1446,-2.13,-2.1268,-2.1167,-2.181,-2.2855,-2.3167,-2.3622,-2.4079,-2.3713,-2.3684,-2.4015,-2.4278,-2.4348,-2.4236,-2.3772,-2.3674,-2.3763,-2.279,-2.2248,-2.1901,-2.0825,-2.0056,-1.9295,-1.4058,-0.914,-0.4891,0.1809,0.5494,0.6159,0.6428,0.6647,0.666,0.6329,0.6107,0.61,0.5179,0.4643,0.4368,0.2905,0.1506,0.0112,-0.083,-0.1543,-0.2089,-0.3533,-0.4798,-0.5779,-0.6588,-0.718,-0.761,-0.8041,-0.8281,-0.8187,-0.8658,-0.8888,-0.877,-0.9323,-0.9763,-1.0054,-1.149,-1.3144,-1.4433,-1.5224,-1.589,-1.6342,-1.6175,-1.5821,-1.5412,-1.5362,-1.5439,-1.5578,-1.6175,-1.6888,-1.7462,-1.7618,-1.776,-1.7801,-1.7632,-1.7468,-1.7496,-1.7338,-1.7133,-1.695,-1.6593,-1.646,-1.6361,-1.6312,-1.6064,-1.5597,-1.5232,-1.4926,-1.4471,-1.4373,-1.4373,-1.4466,-1.461,-1.4702,-1.4834,-1.4966,-1.5102,-1.5108,-1.5023,-1.4932,-1.4759,-1.4697,-1.4662,-1.4446,-1.4552,-1.4927,-2.1394,-2.086,-2.1031,-2.1118,-2.1086,-2.1031,-2.0853,-2.0638,-2.0753,-2.0577,-2.0512,-2.1595,-2.2361,-2.2739,-2.2647,-2.2551,-2.2551,-2.312,-2.3267,-2.3112,-2.3244,-2.3181,-2.2963,-2.2559,-2.2426,-2.1672,-1.7568,-1.5357,-1.445,-0.5964,0.0583,0.401,0.4315,0.457,0.5336,0.5616,0.5839,0.6055,0.5506,0.5397,0.5773,0.5138,0.4598,0.4208,0.2184,0.0447,-0.0668,-0.1518,-0.24,-0.3344,-0.3807,-0.4527,-0.5492,-0.5966,-0.6373,-0.6863,-0.6867,-0.6877,-0.7033,-0.7339,-0.7645,-0.7996,-0.8482,-0.8983,-0.9566,-1.0559,-1.183,-1.3121,-1.3695,-1.4291,-1.48,-1.4564,-1.4349,-1.4359,-1.4341,-1.4616,-1.5266,-1.5764,-1.6361,-1.731,-1.7365,-1.7523,-1.7441,-1.7269,-1.7096,-1.6883,-1.6801,-1.6577,-1.62,-1.6044,-1.5858,-1.5648,-1.5822,-1.5756,-1.5175,-1.4954,-1.4737,-1.4419,-1.4274,-1.428,-1.4378,-1.4518,-1.4702,-1.461,-1.484,-1.492,-1.4875,-1.4789,-1.4616,-1.4363,-1.4043,-1.3462,-1.3352,-1.3533,-1.3945,-2.1308,-2.0819,-2.0712,-2.0481,-2.0177,-2.0089,-2.0019,-1.9965,-2.0139,-1.9992,-1.9717,-1.9972,-2.0452,-2.103,-2.0975,-2.0983,-2.1212,-2.1719,-2.1953,-2.1956,-2.2272,-2.251,-2.2703,-2.2634,-2.1014,-1.7915,-1.5679,-1.3196,-0.9738,-0.428,0.08,0.4729,0.4406,0.4299,0.4904,0.5179,0.5456,0.5727,0.5062,0.4835,0.4946,0.4524,0.3866,0.2968,0.1626,0.0336,-0.0838,-0.171,-0.2442,-0.3182,-0.3786,-0.446,-0.5114,-0.5341,-0.5598,-0.5872,-0.6031,-0.6027,-0.5916,-0.6342,-0.689,-0.7365,-0.7663,-0.8196,-0.9054,-0.9862,-1.0687,-1.154,-1.271,-1.365,-1.395,-1.3868,-1.3763,-1.3868,-1.401,-1.4373,-1.5034,-1.5351,-1.5828,-1.6479,-1.651,-1.651,-1.6515,-1.6503,-1.6453,-1.6286,-1.625,-1.6025,-1.5817,-1.5623,-1.5287,-1.4903,-1.4795,-1.4818,-1.4716,-1.4525,-1.4326,-1.4203,-1.4109,-1.415,-1.415,-1.4197,-1.4296,-1.4291,-1.4425,-1.4471,-1.4373,-1.4305,-1.4195,-1.3847,-1.3371,-1.2811,-1.267,-1.2723,-1.3035,-2.0975,-2.0488,-2.0085,-1.9688,-1.9244,-1.9155,-1.9148,-1.9236,-1.9405,-1.9236,-1.8849,-1.8528,-1.8579,-1.8936,-1.9148,-1.9462,-1.9861,-2.0288,-2.0663,-2.0998,-2.146,-2.2036,-2.2484,-2.1,-1.8606,-1.5064,-1.1998,-0.8329,-0.4089,-0.1663,0.139,0.4194,0.4187,0.4189,0.4524,0.4853,0.5016,0.5013,0.4506,0.4059,0.3785,0.3523,0.2969,0.2184,0.1121,0.0056,-0.0841,-0.1665,-0.239,-0.293,-0.3578,-0.4166,-0.4596,-0.4779,-0.4951,-0.5011,-0.5088,-0.4996,-0.4776,-0.5322,-0.6028,-0.6714,-0.7063,-0.7664,-0.858,-0.9354,-0.9913,-1.0474,-1.1868,-1.2861,-1.3064,-1.3122,-1.3271,-1.3462,-1.3668,-1.4046,-1.4691,-1.5,-1.5319,-1.5748,-1.5763,-1.558,-1.5591,-1.5599,-1.5622,-1.5593,-1.557,-1.5441,-1.5303,-1.4908,-1.4451,-1.4021,-1.359,-1.3663,-1.425,-1.405,-1.3815,-1.3968,-1.4015,-1.3968,-1.3978,-1.4031,-1.4031,-1.412,-1.4025,-1.3914,-1.379,-1.3738,-1.3472,-1.2975,-1.2531,-1.2252,-1.2157,-1.2126,-1.2385,-2.0288,-1.9544,-1.8923,-1.8598,-1.8451,-1.8451,-1.8366,-1.8338,-1.8559,-1.8124,-1.7382,-1.7416,-1.7031,-1.6466,-1.7446,-1.8083,-1.8432,-1.8914,-1.9492,-2.0111,-2.0943,-2.1752,-2.2019,-1.7422,-1.5268,-1.3881,-0.6128,0.0287,0.4446,0.5019,0.4867,0.4018,0.4021,0.4078,0.4302,0.4579,0.4467,0.4018,0.368,0.3069,0.2293,0.2018,0.2019,0.1961,0.056,-0.0448,-0.0948,-0.1627,-0.231,-0.2929,-0.3075,-0.3416,-0.3904,-0.4188,-0.4364,-0.4328,-0.3963,-0.3749,-0.3789,-0.4158,-0.489,-0.5963,-0.6684,-0.7439,-0.8315,-0.9194,-0.981,-1.0163,-1.0969,-1.1616,-1.1868,-1.2084,-1.2384,-1.2764,-1.3059,-1.3547,-1.4326,-1.446,-1.492,-1.526,-1.5181,-1.4949,-1.4915,-1.4829,-1.4823,-1.4812,-1.4755,-1.4667,-1.4305,-1.3852,-1.3391,-1.2954,-1.2565,-1.2501,-1.3503,-1.3525,-1.3467,-1.3621,-1.3716,-1.3815,-1.3931,-1.3989,-1.3989,-1.3947,-1.3831,-1.361,-1.3286,-1.2976,-1.2623,-1.2246,-1.1969,-1.1739,-1.1607,-1.1597,-1.1851,-1.9491,-1.8696,-1.812,-1.7841,-1.7713,-1.7652,-1.7652,-1.776,-1.7928,-1.7626,-1.6995,-1.676,-1.6225,-1.549,-1.577,-1.6446,-1.7286,-1.7437,-1.7795,-1.851,-1.9656,-1.8783,-1.611,-1.4507,-1.0658,-0.5636,-0.2348,0.1464,0.5219,0.5391,0.4846,0.4244,0.4135,0.4192,0.4354,0.4358,0.419,0.3795,0.3238,0.2626,0.2014,0.1513,0.1178,0.1009,0.0112,-0.0561,-0.0896,-0.1328,-0.1732,-0.209,-0.2466,-0.2857,-0.3213,-0.3662,-0.3924,-0.3845,-0.3759,-0.3671,-0.3649,-0.36,-0.4185,-0.54,-0.6091,-0.6899,-0.7922,-0.8666,-0.9197,-0.9562,-0.9961,-1.032,-1.0635,-1.1338,-1.1918,-1.2173,-1.2418,-1.2851,-1.3426,-1.3426,-1.3469,-1.4283,-1.4294,-1.3956,-1.3951,-1.405,-1.4231,-1.4267,-1.4236,-1.4031,-1.3611,-1.31,-1.2546,-1.208,-1.1597,-1.1473,-1.2235,-1.2764,-1.2967,-1.3117,-1.3266,-1.3515,-1.3626,-1.3646,-1.3646,-1.3356,-1.3356,-1.3142,-1.2739,-1.2293,-1.1934,-1.1706,-1.1416,-1.125,-1.1108,-1.119,-1.1494,-1.8296,-1.7733,-1.7111,-1.6824,-1.6727,-1.6625,-1.6625,-1.6733,-1.6811,-1.6538,-1.5959,-1.569,-1.5219,-1.4531,-1.4091,-1.4464,-1.5498,-1.5763,-1.6032,-1.6389,-1.7974,-1.6423,-1.2592,-1.0787,-0.6832,-0.1064,0.0858,0.2741,0.4953,0.512,0.4737,0.4244,0.419,0.4249,0.4299,0.4249,0.3968,0.3409,0.296,0.2347,0.168,0.1177,0.0785,0.0561,0.028,-0.0224,-0.0841,-0.1122,-0.1436,-0.176,-0.2211,-0.2559,-0.2904,-0.3358,-0.3595,-0.3515,-0.3511,-0.3551,-0.3412,-0.3251,-0.3763,-0.5035,-0.5658,-0.6468,-0.7661,-0.8306,-0.8735,-0.9054,-0.9312,-0.9521,-0.9829,-1.0525,-1.1216,-1.1471,-1.1769,-1.215,-1.2793,-1.2497,-1.2701,-1.3341,-1.3256,-1.3074,-1.3132,-1.343,-1.346,-1.3345,-1.3326,-1.3182,-1.2619,-1.2113,-1.1674,-1.1326,-1.0816,-1.0675,-1.1052,-1.1514,-1.2325,-1.257,-1.2812,-1.3072,-1.3304,-1.3281,-1.3162,-1.2904,-1.2658,-1.2477,-1.215,-1.1685,-1.1382,-1.121,-1.1057,-1.0879,-1.0851,-1.0853,-1.1206,-1.6744,-1.6544,-1.5876,-1.568,-1.5635,-1.5484,-1.5266,-1.5271,-1.5197,-1.4971,-1.452,-1.4231,-1.3951,-1.3304,-1.2502,-1.2288,-1.307,-1.3873,-1.4069,-1.3943,-1.5616,-1.4379,-1.0355,-0.5344,-0.265,-0.0711,0.3595,0.5452,0.4888,0.5115,0.4895,0.4348,0.4187,0.4136,0.4022,0.4135,0.3635,0.2854,0.2683,0.2124,0.1065,0.0897,0.0897,0.0953,0.1066,0.0561,-0.0785,-0.1122,-0.1438,-0.1925,-0.2217,-0.253,-0.2987,-0.338,-0.3559,-0.3399,-0.3239,-0.3116,-0.3038,-0.3031,-0.3514,-0.4634,-0.538,-0.6202,-0.7286,-0.8037,-0.8468,-0.8742,-0.8949,-0.9208,-0.9364,-0.9662,-1.0123,-1.0795,-1.1078,-1.1416,-1.1859,-1.211,-1.2213,-1.2316,-1.2187,-1.2412,-1.2725,-1.2764,-1.2569,-1.2135,-1.2026,-1.1972,-1.1416,-1.0909,-1.0576,-1.0478,-1.0237,-1.0007,-1.011,-1.0312,-1.1246,-1.2016,-1.2241,-1.2503,-1.2797,-1.2913,-1.2757,-1.2453,-1.2152,-1.1945,-1.1567,-1.1163,-1.0941,-1.0762,-1.0636,-1.0621,-1.0659,-1.0728,-1.0948,-1.612,-1.5844,-1.554,-1.5322,-1.5193,-1.4988,-1.4892,-1.4909,-1.4692,-1.4365,-1.3951,-1.3553,-1.3097,-1.2584,-1.1774,-1.1458,-1.1494,-1.1059,-1.0925,-1.1186,-1.0426,-0.8013,-0.4134,0.0052,0.2685,0.368,0.5113,0.567,0.5226,0.506,0.4789,0.446,0.4187,0.4189,0.4298,0.4133,0.3576,0.2737,0.2682,0.229,0.1512,0.0896,0.0784,0.1231,0.129,0.0897,0.0168,-0.0393,-0.0949,-0.1543,-0.2133,-0.2708,-0.3176,-0.3457,-0.3662,-0.3743,-0.3654,-0.351,-0.3275,-0.2876,-0.3035,-0.3947,-0.4556,-0.5326,-0.6258,-0.6848,-0.7441,-0.8037,-0.8302,-0.8511,-0.9099,-0.9312,-0.9569,-1.0146,-1.0293,-1.0584,-1.1086,-1.1375,-1.1216,-1.0918,-1.1023,-1.1279,-1.1434,-1.1534,-1.1488,-1.1196,-1.1191,-1.0998,-1.0494,-1.0237,-0.9917,-0.9721,-0.9524,-0.9528,-0.9636,-0.9792,-1.0387,-1.1128,-1.1468,-1.2081,-1.2406,-1.2435,-1.2229,-1.2049,-1.1709,-1.1394,-1.1014,-1.0767,-1.0623,-1.05,-1.0462,-1.0462,-1.05,-1.0648,-1.0831,-1.5299,-1.4994,-1.4617,-1.4324,-1.4143,-1.3742,-1.3643,-1.369,-1.3391,-1.3311,-1.3241,-1.2754,-1.2316,-1.1936,-1.112,-1.0395,-0.982,-0.8724,-0.8335,-0.816,-0.642,-0.3613,-0.0378,0.3075,0.5171,0.5889,0.5841,0.5508,0.5171,0.4956,0.4737,0.4463,0.4301,0.419,0.4298,0.391,0.3352,0.2682,0.2625,0.2403,0.1847,0.1513,0.1456,0.1622,0.1794,0.1626,0.1064,0.0616,-0.0224,-0.1337,-0.2222,-0.2824,-0.318,-0.3398,-0.3656,-0.3884,-0.3616,-0.3308,-0.335,-0.2706,-0.2573,-0.3349,-0.4009,-0.4666,-0.5382,-0.5925,-0.6686,-0.7122,-0.7602,-0.7978,-0.8514,-0.8949,-0.9166,-0.9483,-0.9684,-0.9932,-1.0233,-1.0375,-1.0419,-1.0163,-1.0364,-1.0513,-1.0661,-1.0767,-1.0669,-1.0466,-1.047,-1.0265,-0.9814,-0.9614,-0.9361,-0.9211,-0.9211,-0.9267,-0.9267,-0.942,-0.9573,-1.0123,-1.0661,-1.1412,-1.203,-1.1901,-1.1714,-1.1508,-1.122,-1.0985,-1.0639,-1.0575,-1.0433,-1.039,-1.0307,-1.0312,-1.0351,-1.0423,-1.057,-1.4274,-1.4082,-1.3304,-1.2909,-1.2609,-1.1953,-1.1855,-1.181,-1.1607,-1.1922,-1.225,-1.1864,-1.1497,-1.1216,-1.0257,-0.9273,-0.8156,-0.7481,-0.6514,-0.5358,-0.3858,-0.1758,0.0992,0.3874,0.5395,0.5738,0.5679,0.5344,0.5011,0.4906,0.4745,0.452,0.4473,0.4306,0.3967,0.358,0.3076,0.2462,0.2571,0.2405,0.202,0.2468,0.2633,0.2069,0.2577,0.2522,0.1847,0.1398,0.0391,-0.1448,-0.2326,-0.2728,-0.2863,-0.3188,-0.3591,-0.3979,-0.3093,-0.2933,-0.3051,-0.2513,-0.2238,-0.2795,-0.3514,-0.434,-0.4719,-0.5328,-0.5873,-0.6202,-0.6791,-0.7329,-0.7661,-0.8093,-0.8527,-0.8896,-0.9208,-0.9413,-0.9364,-0.9309,-0.9458,-0.9703,-0.9909,-1.0012,-1.0254,-1.0411,-1.0163,-0.981,-0.971,-0.9506,-0.9253,-0.905,-0.9001,-0.8952,-0.8949,-0.9005,-0.9057,-0.9162,-0.9361,-0.9536,-0.9951,-1.0493,-1.1282,-1.1196,-1.0963,-1.0813,-1.083,-1.0582,-1.0404,-1.0322,-1.0244,-1.0201,-1.0162,-1.0162,-1.0196,-1.0269,-1.0302,-1.381,-1.3552,-1.2856,-1.2463,-1.2209,-1.1362,-1.1166,-1.1412,-1.1065,-1.1187,-1.1469,-1.1221,-1.0799,-1.0368,-0.9492,-0.8603,-0.7697,-0.6812,-0.5607,-0.3989,-0.1714,0.0772,0.3045,0.456,0.546,0.5686,0.5519,0.5238,0.5071,0.5016,0.4855,0.4632,0.4473,0.4193,0.3739,0.3465,0.3131,0.2627,0.2517,0.2741,0.2913,0.2802,0.2967,0.3297,0.325,0.2859,0.2072,0.1342,0.0503,-0.0669,-0.1463,-0.2095,-0.2483,-0.2973,-0.3403,-0.3665,-0.3364,-0.2821,-0.2456,-0.2074,-0.2018,-0.2239,-0.2739,-0.3186,-0.3739,-0.4067,-0.4615,-0.5162,-0.5649,-0.5973,-0.6458,-0.6838,-0.7165,-0.7765,-0.857,-0.911,-0.9005,-0.8903,-0.8903,-0.8837,-0.889,-0.8984,-0.903,-0.9082,-0.9033,-0.8781,-0.8781,-0.883,-0.8577,-0.8527,-0.8527,-0.858,-0.8629,-0.8742,-0.885,-0.9005,-0.9096,-0.9211,-0.9358,-0.9377,-1.0048,-1.0314,-1.0035,-0.9835,-1.0304,-1.0249,-1.0181,-1.0093,-1.0015,-0.9966,-0.9976,-0.9976,-1.0,-1.0069,-1.0064,-1.3291,-1.3035,-1.212,-1.1616,-1.1316,-1.0301,-1.0049,-1.0254,-1.0257,-1.0372,-1.0486,-1.0387,-0.9965,-0.9315,-0.8439,-0.7661,-0.6861,-0.5668,-0.4229,-0.2446,0.0388,0.2775,0.4341,0.5075,0.5407,0.5519,0.5352,0.5183,0.5014,0.5016,0.4853,0.4575,0.4189,0.3855,0.352,0.2962,0.2741,0.2572,0.2519,0.2744,0.3189,0.319,0.3357,0.3634,0.336,0.2914,0.2351,0.1734,0.0894,-0.0,-0.0715,-0.1261,-0.1778,-0.2417,-0.2907,-0.3249,-0.2913,-0.2464,-0.2183,-0.1738,-0.157,-0.1794,-0.2073,-0.2408,-0.2797,-0.3072,-0.3678,-0.4233,-0.4615,-0.4992,-0.5423,-0.5858,-0.646,-0.7063,-0.7931,-0.853,-0.859,-0.8646,-0.848,-0.8309,-0.8196,-0.8093,-0.7987,-0.7993,-0.799,-0.7934,-0.799,-0.8043,-0.7996,-0.8049,-0.8046,-0.8046,-0.8099,-0.8153,-0.8312,-0.8415,-0.8554,-0.8674,-0.8696,-0.87,-0.9139,-0.9555,-0.971,-0.969,-0.9871,-0.9999,-0.9906,-0.9818,-0.9769,-0.973,-0.9739,-0.966,-0.969,-0.9707,-0.9741,-1.2715,-1.2421,-1.1229,-1.0568,-1.0108,-0.9033,-0.8722,-0.8879,-0.9089,-0.9287,-0.9381,-0.9343,-0.8911,-0.8298,-0.7655,-0.6763,-0.581,-0.4912,-0.273,-0.0557,0.2117,0.4127,0.4684,0.513,0.5299,0.5354,0.5185,0.5071,0.5013,0.491,0.4745,0.452,0.3904,0.3516,0.3354,0.2628,0.2293,0.2629,0.2687,0.2854,0.3299,0.3522,0.3635,0.3528,0.3301,0.3023,0.2744,0.235,0.1679,0.0505,-0.0,-0.0446,-0.0838,-0.1564,-0.2014,-0.224,-0.2076,-0.1964,-0.1792,-0.1121,-0.1009,-0.1402,-0.1737,-0.1959,-0.2182,-0.2571,-0.2962,-0.3411,-0.3901,-0.4114,-0.4388,-0.5261,-0.5971,-0.6468,-0.7017,-0.7673,-0.8049,-0.8259,-0.8146,-0.7818,-0.7762,-0.7554,-0.7399,-0.7297,-0.7354,-0.7343,-0.7345,-0.7399,-0.7402,-0.7399,-0.7402,-0.7405,-0.7458,-0.7515,-0.767,-0.7824,-0.7939,-0.8091,-0.8059,-0.8158,-0.8685,-0.9128,-0.9494,-0.969,-0.9542,-0.9594,-0.9709,-0.962,-0.9452,-0.9368,-0.9293,-0.9217,-0.9172,-0.9226,-0.9253,-1.2098,-1.1124,-1.047,-0.9917,-0.9354,-0.8359,-0.8099,-0.8418,-0.82,-0.8296,-0.8389,-0.8488,-0.8013,-0.7213,-0.7147,-0.6737,-0.5301,-0.47,-0.313,0.1783,0.3119,0.4348,0.4906,0.524,0.5297,0.5299,0.5299,0.5185,0.5071,0.5016,0.4908,0.4634,0.441,0.413,0.3518,0.3239,0.3236,0.3294,0.3074,0.3242,0.3577,0.3635,0.3637,0.3585,0.3302,0.3077,0.2964,0.2744,0.2297,0.1735,0.0951,0.0336,-0.0056,-0.0671,-0.1063,-0.1233,-0.1514,-0.1347,-0.0,-0.0,-0.0449,-0.0953,-0.1289,-0.157,-0.1959,-0.207,-0.2407,-0.2746,-0.2967,-0.3129,-0.335,-0.4286,-0.5054,-0.5494,-0.6157,-0.6823,-0.6987,-0.7249,-0.7238,-0.702,-0.691,-0.6858,-0.6753,-0.6753,-0.6753,-0.6753,-0.6807,-0.6807,-0.6807,-0.6807,-0.6807,-0.681,-0.681,-0.6864,-0.7077,-0.725,-0.7495,-0.7659,-0.7669,-0.7643,-0.8145,-0.8518,-0.889,-0.9004,-0.9018,-0.9145,-0.9341,-0.9181,-0.8971,-0.8931,-0.8882,-0.8805,-0.876,-0.882,-0.8731,-1.1225,-1.0364,-0.9488,-0.8859,-0.8339,-0.7714,-0.7453,-0.7503,-0.7664,-0.761,-0.7495,-0.7486,-0.7117,-0.644,-0.5778,-0.461,-0.3101,-0.1663,0.0388,0.3279,0.4171,0.4617,0.5011,0.5452,0.5618,0.5409,0.5301,0.5242,0.5128,0.5071,0.5014,0.4741,0.4522,0.4076,0.3627,0.3404,0.3292,0.3516,0.3351,0.3465,0.3858,0.3802,0.3635,0.3527,0.3303,0.3189,0.2969,0.2857,0.2691,0.2297,0.1736,0.1232,0.095,0.0503,0.0168,-0.0112,-0.028,-0.0505,-0.0,-0.0,-0.0168,-0.0449,-0.0841,-0.1177,-0.1457,-0.1569,-0.1848,-0.2184,-0.2296,-0.2409,-0.2855,-0.3793,-0.44,-0.4789,-0.5447,-0.5946,-0.605,-0.6426,-0.675,-0.6482,-0.6426,-0.632,-0.6211,-0.6211,-0.6159,-0.6159,-0.6485,-0.6485,-0.6268,-0.6268,-0.6206,-0.6152,-0.6157,-0.6211,-0.6482,-0.6732,-0.6998,-0.7221,-0.7417,-0.7428,-0.7635,-0.7914,-0.8209,-0.8398,-0.8651,-0.8814,-0.8931,-0.8732,-0.8574,-0.857,-0.8525,-0.8435,-0.8349,-0.8386,-0.8218,-1.0352,-0.954,-0.8498,-0.7806,-0.7374,-0.7122,-0.6753,-0.6581,-0.7074,-0.6912,-0.6534,-0.6411,-0.6093,-0.5228,-0.3382,-0.1605,0.0883,0.3092,0.4992,0.5105,0.5368,0.5431,0.555,0.5937,0.6159,0.5626,0.5679,0.5622,0.5346,0.5236,0.523,0.4901,0.4348,0.4128,0.385,0.3404,0.3403,0.3793,0.3688,0.3634,0.3912,0.3855,0.3688,0.3526,0.3416,0.3247,0.3081,0.2971,0.286,0.2748,0.241,0.2183,0.1959,0.1679,0.1454,0.1009,0.0785,0.0505,0.0224,-0.0,0.0056,-0.0,-0.0449,-0.0785,-0.0953,-0.1178,-0.1401,-0.1679,-0.1903,-0.2294,-0.3019,-0.3741,-0.4241,-0.4575,-0.4958,-0.5119,-0.5222,-0.5825,-0.5989,-0.5991,-0.5882,-0.5775,-0.5721,-0.5666,-0.5616,-0.5673,-0.6,-0.6109,-0.5891,-0.5725,-0.5611,-0.5555,-0.5504,-0.5557,-0.5773,-0.6355,-0.6623,-0.6862,-0.7089,-0.7246,-0.7231,-0.7391,-0.7715,-0.8148,-0.8394,-0.8476,-0.8439,-0.8275,-0.8197,-0.8246,-0.8118,-0.7987,-0.7949,-0.7916,-0.7697,-0.9773,-0.8087,-0.7877,-0.7453,-0.6977,-0.6652,-0.6374,-0.6211,-0.6161,-0.5782,-0.5283,-0.5384,-0.4657,-0.316,-0.0991,0.2198,0.513,0.6918,0.7424,0.7144,0.7111,0.6876,0.6468,0.6904,0.6964,0.6866,0.6864,0.6642,0.6052,0.5943,0.5664,0.5062,0.4842,0.4736,0.4574,0.4298,0.4236,0.4403,0.4298,0.4244,0.4185,0.4073,0.3909,0.3692,0.3635,0.3469,0.3303,0.3083,0.2862,0.286,0.2692,0.2634,0.2464,0.2071,0.1792,0.1568,0.1233,0.0953,0.0841,0.0505,0.0224,0.0056,-0.0112,-0.0449,-0.0729,-0.0953,-0.1121,-0.1513,-0.1959,-0.2518,-0.3021,-0.369,-0.3971,-0.425,-0.4472,-0.475,-0.4798,-0.4903,-0.5064,-0.5171,-0.5173,-0.5228,-0.523,-0.523,-0.523,-0.5285,-0.5504,-0.5504,-0.5285,-0.5122,-0.5069,-0.4959,-0.4906,-0.4958,-0.5064,-0.5814,-0.6328,-0.6481,-0.6748,-0.7002,-0.7009,-0.7012,-0.724,-0.7499,-0.7776,-0.7863,-0.7825,-0.778,-0.7739,-0.7739,-0.7617,-0.7496,-0.7447,-0.736,-0.7098,-0.8518,-0.6851,-0.6465,-0.6036,-0.5553,-0.5611,-0.5445,-0.5224,-0.523,-0.5009,-0.445,-0.4058,-0.3386,-0.1885,0.0055,0.3566,0.702,0.8623,0.8781,0.8613,0.8626,0.8249,0.7685,0.8122,0.8336,0.8491,0.8593,0.7916,0.6699,0.665,0.6372,0.6041,0.5825,0.5721,0.5559,0.5447,0.5336,0.5338,0.523,0.5119,0.5005,0.4781,0.4618,0.4458,0.413,0.3907,0.3796,0.3687,0.3355,0.3134,0.3242,0.3186,0.2909,0.2632,0.2296,0.2015,0.1736,0.1624,0.1512,0.112,0.0616,0.0504,0.028,0.0056,-0.0224,-0.0449,-0.0841,-0.1402,-0.1793,-0.2463,-0.302,-0.3634,-0.3967,-0.4024,-0.4249,-0.4306,-0.4302,-0.4245,-0.4298,-0.4405,-0.4625,-0.4737,-0.4794,-0.4792,-0.4901,-0.4954,-0.5062,-0.4899,-0.4679,-0.4625,-0.4515,-0.4408,-0.4353,-0.4574,-0.4736,-0.5384,-0.6009,-0.6196,-0.6415,-0.6693,-0.669,-0.6621,-0.6563,-0.6666,-0.6914,-0.7196,-0.7321,-0.7318,-0.7276,-0.7189,-0.7017,-0.6846,-0.6849,-0.6719,-0.6456,-0.7197,-0.5708,-0.5103,-0.456,-0.4234,-0.462,-0.4567,-0.4234,-0.4622,-0.4398,-0.3676,-0.3006,-0.2223,-0.083,0.1592,0.4742,0.8182,0.9434,0.9761,0.9912,1.0057,0.9695,0.9338,0.9404,0.978,0.9828,0.9894,0.9377,0.7874,0.7506,0.7292,0.6804,0.6642,0.6539,0.6322,0.6048,0.6209,0.6209,0.6209,0.6095,0.5928,0.5651,0.5433,0.5277,0.4899,0.4567,0.4453,0.4398,0.4122,0.3846,0.3901,0.3901,0.3405,0.3299,0.3021,0.2572,0.2405,0.2404,0.2236,0.179,0.1231,0.0838,0.056,0.0448,0.0336,-0.0,-0.0505,-0.1345,-0.1905,-0.2462,-0.3129,-0.3683,-0.3961,-0.4022,-0.397,-0.3968,-0.3968,-0.3912,-0.3744,-0.3909,-0.4076,-0.4298,-0.4462,-0.4517,-0.4624,-0.4567,-0.4675,-0.4345,-0.4125,-0.4122,-0.4068,-0.3853,-0.3855,-0.4132,-0.4515,-0.5011,-0.5575,-0.5965,-0.6226,-0.6554,-0.6374,-0.6187,-0.6141,-0.6021,-0.6179,-0.6462,-0.6634,-0.6768,-0.6683,-0.6553,-0.6331,-0.6198,-0.6146,-0.6016,-0.5797,-0.6108,-0.495,-0.4395,-0.4009,-0.3904,-0.4398,-0.4286,-0.379,-0.4236,-0.3903,-0.2847,-0.2511,-0.1449,0.0776,0.4214,0.7541,0.9838,1.0864,1.1162,1.1336,1.144,1.1332,1.1019,1.0691,1.0952,1.1002,1.0762,0.9747,0.8918,0.8712,0.8031,0.7337,0.7015,0.6588,0.6756,0.6591,0.6209,0.6263,0.6263,0.6152,0.5932,0.5762,0.5601,0.5441,0.5279,0.5224,0.5167,0.5056,0.4889,0.4836,0.4783,0.4506,0.4117,0.4398,0.4125,0.3572,0.3072,0.2794,0.2849,0.2458,0.1955,0.1396,0.0952,0.0841,0.0785,0.0504,-0.0168,-0.1623,-0.2015,-0.2517,-0.3183,-0.3742,-0.391,-0.3856,-0.3748,-0.3747,-0.369,-0.3467,-0.3356,-0.3354,-0.3519,-0.4016,-0.4348,-0.4348,-0.4346,-0.4291,-0.4179,-0.3847,-0.3627,-0.3624,-0.3514,-0.3297,-0.3298,-0.3576,-0.4075,-0.4625,-0.515,-0.5638,-0.5972,-0.6237,-0.5962,-0.5688,-0.5571,-0.5549,-0.5612,-0.5607,-0.5741,-0.583,-0.5919,-0.5867,-0.5645,-0.554,-0.5436,-0.5267,-0.4976,-0.4553,-0.4237,-0.3624,-0.3292,-0.3238,-0.3456,-0.3401,-0.3181,-0.3347,-0.3018,-0.2183,-0.151,0.0111,0.2873,0.6026,0.8573,1.0687,1.1701,1.2393,1.2652,1.2696,1.2638,1.2628,1.2395,1.2316,1.2262,1.2012,1.1562,1.0649,0.9898,0.928,0.8649,0.8234,0.8087,0.7664,0.7351,0.7295,0.7295,0.7244,0.7079,0.691,0.6743,0.6637,0.6374,0.6095,0.5875,0.5823,0.5769,0.5494,0.5386,0.5389,0.533,0.4889,0.4889,0.478,0.456,0.4503,0.4284,0.3959,0.3182,0.2623,0.2288,0.1845,0.1399,0.1287,0.1119,0.0503,-0.095,-0.1174,-0.1788,-0.2737,-0.3129,-0.3242,-0.3245,-0.3246,-0.3246,-0.319,-0.3079,-0.2912,-0.291,-0.2963,-0.3293,-0.3624,-0.3515,-0.3459,-0.3515,-0.3404,-0.3238,-0.3073,-0.3019,-0.2907,-0.2797,-0.2797,-0.2909,-0.3574,-0.4182,-0.4672,-0.513,-0.5454,-0.5624,-0.5367,-0.5207,-0.5012,-0.4774,-0.4637,-0.4703,-0.4799,-0.5014,-0.5265,-0.5132,-0.4998,-0.4765,-0.4535,-0.4156,-0.3949,-0.3409,-0.3405,-0.285,-0.2573,-0.2516,-0.2626,-0.2626,-0.2516,-0.2681,-0.2351,-0.1569,-0.0503,0.1721,0.4515,0.6833,0.9003,1.1036,1.2044,1.3025,1.3552,1.3737,1.3684,1.3669,1.3579,1.3399,1.371,1.2967,1.2463,1.2012,1.1366,1.0712,1.0064,0.9444,0.9141,0.889,0.8418,0.8099,0.7895,0.7791,0.7678,0.7616,0.7616,0.7461,0.7246,0.6918,0.6588,0.6482,0.6426,0.6152,0.6043,0.6154,0.6098,0.5605,0.5658,0.5546,0.5382,0.5435,0.5386,0.4732,0.3959,0.3461,0.3015,0.2569,0.1678,0.1622,0.1679,0.1398,-0.0056,-0.0168,-0.0894,-0.1734,-0.2235,-0.246,-0.2574,-0.2633,-0.2578,-0.2578,-0.2465,-0.2408,-0.235,-0.2349,-0.2294,-0.246,-0.2461,-0.2516,-0.2685,-0.2629,-0.2572,-0.2463,-0.2408,-0.2297,-0.2128,-0.2124,-0.229,-0.2898,-0.3507,-0.4055,-0.4527,-0.485,-0.4818,-0.4459,-0.4396,-0.4311,-0.4079,-0.3759,-0.3693,-0.3735,-0.4174,-0.4526,-0.4258,-0.3948,-0.3812,-0.3549,-0.3208,-0.3081,-0.2905,-0.2513,-0.2073,-0.1908,-0.1908,-0.246,-0.235,-0.202,-0.246,-0.2295,-0.1458,0.0279,0.2542,0.5095,0.7044,0.9217,1.1512,1.2206,1.318,1.3947,1.4326,1.4403,1.4392,1.4242,1.3967,1.3978,1.3595,1.3155,1.2754,1.2463,1.1516,1.0419,1.0214,0.9699,0.9291,0.8984,0.8421,0.8112,0.7904,0.7845,0.7729,0.7726,0.7622,0.7518,0.7306,0.7203,0.7206,0.7033,0.6864,0.6756,0.6812,0.6758,0.6317,0.648,0.6317,0.6095,0.6261,0.5991,0.5224,0.4512,0.3906,0.3071,0.2347,0.1903,0.1958,0.1847,0.1454,0.1006,0.0726,0.0112,-0.0671,-0.123,-0.1509,-0.1791,-0.1905,-0.2017,-0.2017,-0.1961,-0.1903,-0.1791,-0.1791,-0.1792,-0.1736,-0.1848,-0.2016,-0.2183,-0.196,-0.1904,-0.1793,-0.1682,-0.1626,-0.1513,-0.1453,-0.1673,-0.2166,-0.2751,-0.328,-0.365,-0.3929,-0.3707,-0.3297,-0.3331,-0.3593,-0.3188,-0.2897,-0.2808,-0.2762,-0.3024,-0.32,-0.3117,-0.2986,-0.2939,-0.2896,-0.2679,-0.2594,-0.2516,-0.1736,-0.157,-0.1628,-0.1797,-0.1962,-0.1963,-0.1853,-0.2019,-0.168,-0.0841,0.0723,0.2544,0.4834,0.7046,0.9065,1.104,1.2103,1.3223,1.4046,1.4425,1.4731,1.4858,1.4903,1.4772,1.472,1.431,1.3947,1.3789,1.3155,1.2614,1.1765,1.1015,1.0677,1.0222,0.9451,0.8682,0.8109,0.7904,0.7845,0.7845,0.7842,0.7785,0.7619,0.7464,0.7362,0.7257,0.7141,0.7136,0.7136,0.7136,0.692,0.6758,0.7031,0.6864,0.6534,0.681,0.6261,0.5332,0.4732,0.4019,0.3134,0.2576,0.2353,0.2409,0.2465,0.2183,0.179,0.151,0.1006,0.0391,-0.0056,-0.0391,-0.0896,-0.1233,-0.14,-0.1456,-0.1401,-0.1288,-0.1176,-0.1289,-0.1402,-0.1346,-0.129,-0.1514,-0.1682,-0.1458,-0.1234,-0.1234,-0.1232,-0.1174,-0.1109,-0.1048,-0.1089,-0.1516,-0.2014,-0.2484,-0.2761,-0.3044,-0.2775,-0.2507,-0.2717,-0.2825,-0.2375,-0.2099,-0.2099,-0.2053,-0.1918,-0.2052,-0.232,-0.2324,-0.2238,-0.2194,-0.215,-0.215,-0.2293,-0.1513,-0.129,-0.1403,-0.1684,-0.1628,-0.1684,-0.1797,-0.1797,-0.1177,-0.0056,0.1223,0.2823,0.4905,0.7166,0.9023,1.0734,1.2026,1.3256,1.4082,1.4599,1.4966,1.5193,1.5238,1.5011,1.5198,1.488,1.4425,1.3947,1.3351,1.2822,1.2281,1.1778,1.1347,1.0736,0.9972,0.8995,0.8371,0.8159,0.8005,0.7955,0.7901,0.7901,0.7729,0.7622,0.7521,0.7362,0.7249,0.7195,0.7195,0.7139,0.7195,0.7141,0.7141,0.7139,0.7085,0.681,0.6315,0.5384,0.4401,0.3799,0.3078,0.2911,0.2856,0.2914,0.2971,0.263,0.2461,0.2237,0.1957,0.1341,0.0838,0.0279,-0.028,-0.0841,-0.1009,-0.0953,-0.0897,-0.0673,-0.0504,-0.0504,-0.028,-0.028,-0.0224,-0.0672,-0.0784,-0.0617,-0.0673,-0.1066,-0.1062,-0.1001,-0.0879,-0.0758,-0.0799,-0.089,-0.1272,-0.1595,-0.1776,-0.198,-0.2087,-0.2022,-0.2163,-0.2067,-0.1613,-0.1433,-0.1433,-0.1387,-0.1298,-0.1521,-0.1788,-0.1746,-0.1615,-0.1658,-0.1657,-0.1748,-0.2403,-0.1903,-0.1177,-0.1178,-0.1572,-0.1572,-0.1684,-0.174,-0.1684,-0.0897,0.0447,0.2,0.36,0.5406,0.7553,0.919,1.0602,1.207,1.3256,1.3978,1.4444,1.4926,1.5011,1.496,1.4817,1.4748,1.4471,1.414,1.3705,1.3409,1.2934,1.2461,1.2013,1.1601,1.0977,1.0218,0.9451,0.8883,0.8722,0.8415,0.8005,0.7904,0.7901,0.7845,0.7833,0.7785,0.7678,0.7676,0.7673,0.7673,0.7461,0.7408,0.741,0.7252,0.7195,0.7082,0.6645,0.6043,0.533,0.3958,0.3298,0.3132,0.3078,0.3022,0.3078,0.3077,0.3076,0.2853,0.2909,0.2685,0.2181,0.1566,0.1006,0.0503,-0.0,-0.028,-0.0168,-0.0112,0.0112,0.0168,0.0727,0.1174,0.1118,0.0895,0.0336,0.0168,0.028,-0.0,-0.0559,-0.0887,-0.0769,-0.0759,-0.0638,-0.0518,-0.0506,-0.0537,-0.0721,-0.0,-0.103,-0.1198,-0.1424,-0.1628,-0.1416,-0.0903,-0.0717,-0.0627,-0.0673,-0.0674,-0.0721,-0.0723,-0.1034,-0.1078,-0.1121,-0.1214,-0.1401,-0.2347,-0.1791,-0.1177,-0.1066,-0.1234,-0.1291,-0.1347,-0.1403,-0.1009,-0.028,0.0726,0.206,0.3714,0.5515,0.7135,0.8884,1.0509,1.1288,1.2423,1.3329,1.3873,1.4045,1.4185,1.4283,1.4335,1.4231,1.4107,1.3947,1.3605,1.3314,1.3021,1.2589,1.217,1.1697,1.1179,1.0564,1.0104,0.9134,0.8873,0.8616,0.8005,0.7955,0.7955,0.7955,0.8156,0.8256,0.8262,0.8312,0.8468,0.8355,0.814,0.7827,0.772,0.7563,0.7195,0.7136,0.681,0.6537,0.5662,0.4512,0.347,0.3302,0.3188,0.3188,0.3246,0.3302,0.3302,0.3302,0.3302,0.3135,0.291,0.2685,0.2179,0.179,0.1343,0.1063,0.1007,0.0951,0.0951,0.0951,0.1286,0.1677,0.1789,0.19,0.1509,0.1273,0.1381,0.0887,0.0332,-0.0327,-0.0538,-0.0585,-0.0522,-0.0303,-0.0245,-0.0332,-0.0,-0.0,-0.0,-0.046,-0.0733,-0.088,-0.0737,-0.0227,-0.0045,0.0134,0.0227,0.0322,0.0459,0.0413,0.0046,-0.0509,-0.0792,-0.0975,-0.12,-0.2844,-0.2069,-0.1456,-0.1121,-0.1066,-0.1066,-0.1178,-0.1122,-0.0505,0.028,0.1283,0.2506,0.416,0.5794,0.7247,0.8373,1.0214,1.1028,1.1488,1.2349,1.2841,1.3163,1.3358,1.3511,1.3705,1.3747,1.3726,1.3563,1.3261,1.2967,1.2681,1.2447,1.2264,1.1904,1.1493,1.1238,1.0775,0.9961,0.9551,0.9183,0.8728,0.8527,0.8427,0.8521,0.8722,0.8817,0.8995,0.9208,0.9469,0.9194,0.8715,0.8293,0.8084,0.772,0.73,0.7246,0.6915,0.6586,0.5658,0.5062,0.4185,0.3855,0.352,0.3356,0.3416,0.3471,0.3471,0.3473,0.3471,0.3471,0.3414,0.3245,0.2796,0.235,0.2183,0.1846,0.1846,0.1734,0.2068,0.2012,0.2012,0.2293,0.2461,0.2629,0.2684,0.2537,0.2449,0.1805,0.1209,0.0651,0.0053,-0.0158,-0.0258,-0.0201,-0.0145,-0.0186,-0.0,-0.0,-0.0,-0.0,0.0409,0.0323,0.0367,0.046,0.0748,0.1038,0.1175,0.1321,0.1332,0.129,0.1099,0.0433,-0.0291,-0.0628,-0.0817,-0.3673,-0.268,-0.2013,-0.1401,-0.0953,-0.0953,-0.1066,-0.1122,-0.0224,0.0839,0.1949,0.3388,0.4824,0.6465,0.7794,0.8698,0.9503,1.0559,1.1019,1.1312,1.1787,1.2181,1.2478,1.2575,1.2783,1.3203,1.3271,1.288,1.2774,1.2681,1.2447,1.2264,1.2121,1.1968,1.1914,1.176,1.1296,1.0631,1.0167,0.9854,0.9451,0.9204,0.9155,0.9246,0.9336,0.9384,0.9566,0.9914,0.991,0.958,0.8988,0.8781,0.8415,0.7892,0.7625,0.73,0.6802,0.6253,0.5925,0.5496,0.5117,0.4734,0.4189,0.3805,0.3585,0.3584,0.3583,0.3583,0.3583,0.3583,0.3526,0.3131,0.2738,0.2572,0.2463,0.235,0.2407,0.2686,0.3188,0.3301,0.3301,0.3413,0.3355,0.3467,0.3354,0.3335,0.3129,0.283,0.2295,0.1863,0.1235,0.0524,0.0359,0.005,-0.0,0.0047,-0.0,-0.0,-0.0,0.045,0.0956,0.1485,0.1549,0.1623,0.1769,0.193,0.2049,0.2109,0.2092,0.1995,0.1896,0.1251,0.0453,-0.0,-0.0254,-0.3394,-0.2624,-0.1624,-0.1066,-0.0841,-0.0505,-0.0336,-0.028,0.0392,0.1395,0.2616,0.3508,0.478,0.6216,0.7012,0.7969,0.8866,0.9703,1.0261,1.0555,1.0641,1.0897,1.1099,1.1249,1.1521,1.1841,1.2049,1.23,1.2309,1.2309,1.2309,1.213,1.2076,1.2076,1.2071,1.2071,1.1556,1.1137,1.0775,1.047,1.0115,0.9766,0.9769,0.981,1.0016,1.0016,1.0194,1.0624,1.0667,1.0604,0.9666,0.9201,0.9099,0.8153,0.7521,0.7467,0.6969,0.6583,0.6691,0.615,0.5716,0.5716,0.5391,0.4519,0.4024,0.3747,0.3799,0.3802,0.3802,0.3858,0.3858,0.352,0.3405,0.3405,0.3296,0.3294,0.335,0.3518,0.3965,0.4076,0.4078,0.3968,0.3967,0.3801,0.3742,0.385,0.3773,0.3513,0.3273,0.2847,0.2288,0.154,0.1145,0.0867,0.0493,0.0429,0.0804,-0.0,0.1107,0.1147,0.1498,0.2004,0.2518,0.2726,0.2652,0.2747,0.2854,0.2838,0.2686,0.2708,0.2555,0.1932,0.1309,0.0895,0.0478,-0.3671,-0.2681,-0.1901,-0.1344,-0.0841,-0.0224,0.0112,0.0448,0.1006,0.1897,0.2951,0.3624,0.4677,0.5996,0.6534,0.7176,0.8031,0.8346,0.881,0.9225,0.954,0.9795,0.9898,1.0312,1.0884,1.1158,1.1519,1.1968,1.2026,1.2076,1.2076,1.2081,1.2076,1.2076,1.2076,1.2071,1.1918,1.1547,1.1233,1.0981,1.0732,1.0431,1.0332,1.0482,1.0702,1.0702,1.0753,1.1167,1.1272,1.1116,1.0079,0.9514,0.9256,0.8365,0.7625,0.7571,0.7348,0.7238,0.7295,0.6915,0.6642,0.6477,0.6315,0.5607,0.5005,0.462,0.4403,0.4242,0.4187,0.4132,0.4133,0.4135,0.4298,0.4462,0.4403,0.4345,0.4345,0.4345,0.4457,0.4567,0.4568,0.4462,0.4296,0.413,0.3967,0.3965,0.3962,0.3889,0.3754,0.3587,0.2972,0.2278,0.1973,0.1728,0.1368,0.1084,0.1515,0.1986,0.229,0.2337,0.2373,0.2577,0.3048,0.3266,0.3386,0.3369,0.3249,0.3321,0.3259,0.3226,0.3134,0.2812,0.2271,0.1844,0.1479,-0.4283,-0.2682,-0.2514,-0.1677,-0.0841,-0.0056,0.056,0.1061,0.1733,0.2401,0.3231,0.3795,0.4791,0.5832,0.6209,0.6532,0.7179,0.7501,0.7928,0.7981,0.8458,0.8925,0.9655,1.0123,1.0592,1.1213,1.1673,1.1823,1.2071,1.2166,1.2215,1.2126,1.2314,1.2363,1.226,1.226,1.2252,1.2268,1.1913,1.1601,1.171,1.1469,1.1167,1.1464,1.1464,1.136,1.1267,1.1272,1.1272,1.0905,1.0336,0.9666,0.8939,0.8471,0.7943,0.7729,0.7619,0.7622,0.7678,0.7461,0.719,0.6972,0.6699,0.6423,0.6039,0.5435,0.5111,0.4899,0.4844,0.4844,0.4844,0.4846,0.5009,0.5119,0.5115,0.5111,0.5111,0.5111,0.5218,0.5275,0.5222,0.5115,0.5064,0.4954,0.4741,0.4356,0.4242,0.4237,0.4067,0.4056,0.3586,0.2965,0.2561,0.2309,0.2224,0.2119,0.239,0.2762,0.311,0.3272,0.3118,0.3259,0.3576,0.3562,0.354,0.3582,0.3534,0.352,0.3504,0.3473,0.3492,0.3569,0.3238,0.2665,0.2446,-0.4276,-0.2567,-0.123,-0.0448,-0.0112,0.0896,0.1621,0.2177,0.274,0.3352,0.3798,0.4353,0.4853,0.5513,0.6102,0.6426,0.6532,0.7182,0.7717,0.8037,0.8256,0.883,0.9506,0.9969,1.0494,1.1061,1.1473,1.1819,1.2166,1.2403,1.2452,1.2274,1.2657,1.2934,1.2633,1.2638,1.2739,1.2881,1.2615,1.2398,1.2442,1.2379,1.2223,1.2129,1.1981,1.1651,1.151,1.1272,1.1272,1.1116,1.0182,0.9249,0.8315,0.8055,0.7898,0.7845,0.7842,0.7845,0.7845,0.7791,0.7628,0.7628,0.7518,0.7408,0.7074,0.6359,0.5871,0.5714,0.5607,0.5607,0.5607,0.5664,0.5719,0.5771,0.5878,0.5821,0.5821,0.5873,0.5982,0.5982,0.593,0.5878,0.5828,0.5668,0.546,0.5238,0.5066,0.4897,0.4513,0.4336,0.3957,0.3398,0.2935,0.2689,0.277,0.2959,0.3114,0.3207,0.3453,0.3591,0.3807,0.4001,0.4147,0.3757,0.3574,0.3859,0.3913,0.363,0.3627,0.3695,0.3641,0.3641,0.3695,0.3345,0.3238,-0.4006,-0.2512,-0.0,-0.0,-0.0,0.151,0.2399,0.2952,0.3898,0.4618,0.5001,0.5062,0.5177,0.5515,0.6161,0.6374,0.6426,0.7128,0.7557,0.7987,0.857,0.9044,0.951,1.0075,1.0651,1.1221,1.1628,1.1977,1.2417,1.2642,1.2691,1.2929,1.3503,1.352,1.317,1.32,1.3247,1.3451,1.3247,1.3152,1.3079,1.2817,1.2428,1.2281,1.1945,1.1706,1.156,1.1322,1.1272,1.112,1.0446,0.951,0.8732,0.8418,0.8159,0.8005,0.7901,0.7904,0.7904,0.7904,0.7904,0.7904,0.7904,0.7681,0.7681,0.7017,0.6743,0.6532,0.6312,0.6312,0.6426,0.6428,0.6699,0.6861,0.6856,0.6853,0.6853,0.6907,0.6964,0.7023,0.6861,0.6537,0.6431,0.6102,0.5889,0.5716,0.5601,0.533,0.4948,0.4734,0.4346,0.405,0.365,0.3445,0.3524,0.3615,0.3756,0.3789,0.3918,0.4343,0.4733,0.4759,0.4675,0.446,0.4406,0.4567,0.4512,0.4187,0.4024,0.4135,0.3914,0.3695,0.3805,0.4024,0.4021,-0.3629,-0.24,-0.0615,-0.0,0.056,0.2065,0.3062,0.3775,0.4988,0.5923,0.6305,0.6032,0.5714,0.5998,0.6492,0.6487,0.6699,0.7238,0.761,0.814,0.8725,0.9454,1.0186,1.0757,1.1167,1.1573,1.1972,1.2417,1.2905,1.3127,1.3483,1.3947,1.3931,1.3789,1.3768,1.3752,1.383,1.391,1.3848,1.3565,1.3316,1.303,1.2589,1.2157,1.1769,1.1615,1.1519,1.1423,1.1322,1.1065,1.0655,0.9721,0.904,0.8623,0.8312,0.8109,0.7904,0.7904,0.7904,0.7904,0.7904,0.7904,0.7904,0.7901,0.7955,0.7839,0.756,0.7396,0.723,0.7074,0.7187,0.7246,0.7518,0.7678,0.7673,0.7616,0.7619,0.7673,0.7732,0.7794,0.7521,0.7195,0.6977,0.6647,0.6423,0.6251,0.5975,0.5594,0.5324,0.5222,0.4978,0.4852,0.4652,0.4496,0.4383,0.4318,0.4411,0.4777,0.4971,0.5362,0.5632,0.5427,0.538,0.5439,0.5384,0.5273,0.5113,0.4787,0.468,0.4627,0.4463,0.4353,0.4408,0.4627,0.4791,-0.378,-0.184,-0.0056,0.1174,0.212,0.3336,0.4326,0.5095,0.5864,0.6527,0.6966,0.734,0.7233,0.6761,0.692,0.7025,0.7238,0.761,0.8087,0.8672,0.9298,1.0127,1.0749,1.1167,1.1573,1.1918,1.2309,1.2681,1.2977,1.3552,1.3899,1.3789,1.4667,1.4697,1.473,1.4633,1.4526,1.4655,1.4218,1.3782,1.3561,1.3264,1.3045,1.2725,1.2423,1.1994,1.1665,1.1473,1.1372,1.1167,1.0757,0.9928,0.9354,0.8988,0.8676,0.8368,0.8165,0.8162,0.8162,0.8162,0.8215,0.8159,0.8159,0.8165,0.8265,0.8521,0.8352,0.8355,0.814,0.7833,0.7839,0.7839,0.8002,0.7946,0.7889,0.7839,0.7839,0.7842,0.7848,0.7851,0.7794,0.7631,0.7631,0.7357,0.7246,0.7023,0.6753,0.6369,0.5712,0.566,0.5609,0.5555,0.5498,0.5386,0.5216,0.505,0.5152,0.5603,0.5934,0.614,0.6133,0.5914,0.5921,0.6145,0.5873,0.5601,0.5439,0.555,0.5334,0.5224,0.5171,0.5119,0.5173,0.523,0.5395]},{"header":{"parameterUnit":"m.s-1","parameterCategory":1,"la1":31.0,"la2":29.5877,"lo1":-88.7671,"lo2":-86.6584,"dy":0.0162,"dx":0.0185,"nx":115,"ny":88,"refTime":"2024-06-30T12:00:00:Z","depth":0,"parameterNumber":3,"parameterNumberName":"V-component_of_WINDS"},"data":[0.0,0.0,0.0,0.0,0.0,0.0,0.0,0.0,0.0,0.0,0.0,0.0,0.0,0.0,0.0,0.0,0.0,0.0,0.0,0.0,0.0,0.0,0.0,0.0,0.0,0.0,0.0,0.0,0.0,0.0,0.0,0.0,0.0,0.0,0.0,0.0,0.0,0.0,0.0,0.0,0.0,0.0,0.0,0.0,0.0,0.0,0.0,0.0,0.0,0.0,0.0,0.0,0.0,0.0,0.0,0.0,0.0,0.0,0.0,0.0,0.0,0.0,0.0,0.0,0.0,0.0,0.0,0.0,0.0,0.0,0.0,0.0,0.0,0.0,0.0,0.0,0.0,0.0,0.0,0.0,0.0,0.0,0.0,0.0,0.0,0.0,0.0,0.0,0.0,0.0,0.0,0.0,0.0,0.0,0.0,0.0,0.0,0.0,0.0,0.0,0.0,0.0,0.0,0.0,0.0,0.0,0.0,0.0,0.0,0.0,0.0,0.0,0.0,0.0,0.0,0.0,0.0,0.0,0.0,0.0,0.0,0.0,0.0,0.0,0.0,0.0,0.0,0.0,0.0,0.0,0.0,0.0,0.0,0.0,0.0,0.0,0.0,0.0,0.0,0.0,0.0,0.0,0.0,0.0,0.0,0.0,0.0,0.0,0.0,0.0,0.0,0.0,0.0,0.0,0.0,0.0,0.0,0.0,0.0,0.0,0.0,0.0,0.0,0.0,0.0,0.0,0.0,0.0,0.0,0.0,0.0,0.0,0.0,0.0,0.0,0.0,0.0,0.0,0.0,0.0,0.0,0.0,0.0,0.0,0.0,0.0,0.0,0.0,0.0,0.0,0.0,0.0,0.0,0.0,0.0,0.0,0.0,0.0,0.0,0.0,0.0,0.0,0.0,0.0,0.0,0.0,0.0,0.0,0.0,0.0,0.0,0.0,0.0,0.0,0.0,0.0,0.0,0.0,0.0,0.0,0.0,0.0,0.0,0.0,0.0,0.0,0.0,0.0,0.0,0.0,0.0,0.0,0.0,0.0,0.0,0.0,0.0,0.0,0.0,0.0,0.0,0.0,0.0,0.0,0.0,0.0,0.0,0.0,0.0,0.0,0.0,0.0,0.0,0.0,0.0,0.0,0.0,0.0,0.0,0.0,0.0,0.0,0.0,0.0,0.0,0.0,0.0,0.0,0.0,0.0,0.0,0.0,0.0,0.0,0.0,0.0,0.0,0.0,0.0,0.0,0.0,0.0,0.0,0.0,0.0,0.0,0.0,0.0,0.0,0.0,0.0,0.0,0.0,0.0,0.0,0.0,0.0,0.0,0.0,0.0,0.0,0.0,0.0,0.0,0.0,0.0,0.0,0.0,0.0,0.0,0.0,0.0,0.0,0.0,0.0,0.0,0.0,0.0,0.0,0.0,0.0,0.0,0.0,0.0,0.0,0.0,0.0,0.0,0.0,0.0,0.0,0.0,0.0,0.0,0.0,0.0,0.0,0.0,0.0,0.0,0.0,0.0,0.0,0.0,0.0,0.0,0.0,0.0,0.0,0.0,0.0,0.0,0.0,0.0,0.0,0.0,0.0,0.0,0.0,0.0,0.0,0.0,0.0,0.0,0.0,0.0,0.0,0.0,0.0,0.0,0.0,0.0,0.0,0.0,0.0,0.0,0.0,0.0,0.0,0.0,0.0,0.0,0.0,0.0,0.0,0.0,0.0,0.0,0.0,0.0,0.0,0.0,0.0,0.0,0.0,0.0,0.0,0.0,0.0,0.0,0.0,0.0,0.0,0.0,0.0,0.0,0.0,0.0,0.0,0.0,0.0,0.0,0.0,0.0,0.0,0.0,0.0,0.0,0.0,0.0,0.0,0.0,0.0,0.0,0.0,0.0,0.0,0.0,0.0,0.0,0.0,0.0,0.0,0.0,0.0,0.0,0.0,0.0,0.0,0.0,0.0,0.0,0.0,0.0,0.0,0.0,0.0,0.0,0.0,0.0,0.0,0.0,0.0,0.0,0.0,0.0,0.0,0.0,0.0,0.0,0.0,0.0,0.0,0.0,0.0,0.0,0.0,0.0,0.0,0.0,0.0,0.0,0.0,0.0,0.0,0.0,0.0,0.0,0.0,0.0,0.0,0.0,0.0,0.0,0.0,0.0,0.0,0.0,0.0,0.0,0.0,0.0,0.0,0.0,0.0,0.0,0.0,0.0,0.0,0.0,0.0,0.0,0.0,0.0,0.0,0.0,0.0,0.0,0.0,0.0,0.0,0.0,0.0,0.0,0.0,0.0,0.0,0.0,0.0,0.0,0.0,0.0,0.0,0.0,0.0,0.0,0.0,0.0,0.0,0.0,0.0,0.0,0.0,0.0,0.0,0.0,0.0,0.0,0.0,0.0,0.0,0.0,0.0,0.0,0.0,0.0,0.0,0.0,0.0,0.0,0.0,0.0,0.0,0.0,0.0,0.0,0.0,0.0,0.0,0.0,0.0,0.0,0.0,0.0,0.0,0.0,0.0,0.0,0.0,0.0,0.0,0.0,0.0,0.0,0.0,0.0,0.0,0.0,0.0,0.0,0.0,0.0,0.0,0.0,0.0,0.0,0.0,0.0,0.0,0.0,0.0,0.0,0.0,0.0,0.0,0.0,0.0,0.0,0.0,0.0,0.0,0.0,0.0,0.0,0.0,0.0,0.0,0.0,0.0,0.0,0.0,0.0,0.0,0.0,0.0,0.0,0.0,0.0,0.0,0.0,0.0,0.0,0.0,0.0,0.0,0.0,0.0,0.0,0.0,0.0,0.0,0.0,0.0,0.0,0.0,0.0,0.0,0.0,0.0,0.0,0.0,0.0,0.0,0.0,0.0,0.0,0.0,0.0,0.0,0.0,0.0,0.0,0.0,0.0,0.0,0.0,0.0,0.0,0.0,0.0,0.0,0.0,0.0,0.0,0.0,0.0,0.0,0.0,0.0,0.0,0.0,0.0,0.0,0.0,0.0,0.0,0.0,0.0,0.0,0.0,0.0,0.0,0.0,0.0,0.0,0.0,0.0,0.0,0.0,0.0,0.0,0.0,0.0,0.0,0.0,0.0,0.0,0.0,0.0,0.0,0.0,0.0,0.0,0.0,0.0,0.0,0.0,0.0,0.0,0.0,0.0,0.0,0.0,0.0,0.0,0.0,0.0,0.0,0.0,0.0,0.0,0.0,0.0,0.0,0.0,0.0,0.0,0.0,0.0,0.0,0.0,0.0,0.0,0.0,0.0,0.0,0.0,0.0,0.0,0.0,0.0,0.0,0.0,0.0,0.0,0.0,0.0,0.0,0.0,0.0,0.0,0.0,0.0,0.0,0.0,0.0,0.0,0.0,0.0,0.0,0.0,0.0,0.0,0.0,0.0,0.0,0.0,0.0,0.0,0.0,0.0,0.0,0.0,0.0,0.0,0.0,0.0,0.0,0.0,0.0,0.0,0.0,0.0,0.0,0.0,0.0,0.0,0.0,0.0,0.0,0.0,0.0,0.0,0.0,0.0,0.0,0.0,0.0,0.0,0.0,0.0,0.0,0.0,0.0,0.0,0.0,0.0,0.0,0.0,0.0,0.0,0.0,0.0,0.0,0.0,0.0,0.0,0.0,0.0,0.0,0.0,0.0,0.0,0.0,0.0,0.0,0.0,0.0,0.0,0.0,0.0,0.0,0.0,0.0,0.0,0.0,0.0,0.0,0.0,0.0,0.0,0.0,0.0,0.0,0.0,0.0,0.0,0.0,0.0,0.0,0.0,0.0,0.0,0.0,0.0,0.0,0.0,0.0,0.0,0.0,0.0,0.0,0.0,0.0,0.0,0.0,0.0,0.0,0.0,0.0,0.0,0.0,0.0,0.0,0.0,0.0,0.0,0.0,0.0,0.0,0.0,0.0,0.0,0.0,0.0,0.0,0.0,0.0,0.0,0.0,0.0,0.0,0.0,0.0,0.0,0.0,0.0,0.0,0.0,0.0,0.0,0.0,0.0,0.0,0.0,0.0,0.0,0.0,0.0,0.0,0.0,0.0,0.0,0.0,0.0,0.0,0.0,0.0,0.0,0.0,0.0,0.0,0.0,0.0,0.0,0.0,0.0,0.0,0.0,0.0,0.0,0.0,0.0,0.0,0.0,0.0,0.0,0.0,0.0,0.0,0.0,0.0,0.0,0.0,0.0,0.0,0.0,0.0,0.0,0.0,0.0,0.0,0.0,0.0,0.0,0.0,0.0,0.0,0.0,0.0,0.0,0.0,0.0,0.0,0.0,0.0,0.5326,0.0,0.0,0.0,0.0,0.0,0.0,0.0,0.0,0.0,0.0,0.0,0.0,0.0,0.0,0.0,0.0,0.0,0.0,0.0,0.0,0.0,0.0,0.0,0.0,0.0,0.0,0.0,0.0,0.0,0.0,0.0,0.0,0.0,0.0,0.0,0.0,0.0,0.0,0.0,0.0,0.0,0.0,0.0,0.0,0.0,0.0,0.0,0.0,0.0,0.0,0.0,0.0,0.0,0.0,0.0,0.0,0.0,0.0,0.0,0.0,0.0,0.0,0.0,0.0,0.0,0.0,0.0,0.0,0.0,0.0,0.0,0.0,0.0,0.0,0.0,0.0,0.0,0.0,0.0,0.0,0.0,0.0,0.0,0.0,0.0,0.0,0.0,0.0,0.0,0.0,0.0,0.0,0.0,0.0,0.0,0.0,0.0,0.0,0.0,0.0,0.0,0.0,0.0,0.0,0.0,0.0,0.0,0.0,0.0,0.0,0.5875,0.6396,0.5754,0.5228,0.4817,0.0,0.0,0.0,0.0,0.0,0.0,0.0,0.0,0.0,0.0,0.0,0.0,0.0,0.0,0.0,0.0,0.0,0.0,0.0,0.0,0.0,0.0,0.0,0.0,0.0,0.0,0.0,0.0,0.0,0.0,0.0,0.0,0.0,0.0,0.0,0.0,0.0,0.0,0.0,0.0,0.0,0.0,0.0,0.0,0.0,0.0,0.0,0.0,0.0,0.0,0.0,0.0,0.0,0.0,0.0,0.0,0.0,0.0,0.0,0.0,0.0,0.0,0.0,0.0,0.0,0.0,0.0,0.0,0.0,0.0,0.0,0.0,0.0,0.0,0.0,0.0,0.0,0.0,0.0,0.0,0.0,0.0,0.0,0.0,0.0,0.0,0.0,0.0,0.0,0.0,0.0,0.0,0.0,0.0,0.0,0.0,0.0,0.0,0.0,0.0,0.0,0.0,0.0,0.0,0.0,0.0,0.0,0.0,0.0,0.0,0.0,0.0,0.5605,0.4775,0.4047,0.0,0.0,0.0,0.0,0.0,0.0,0.0,0.0,0.0,0.0,0.0,0.0,0.0,0.0,0.0,0.0,0.0,0.0,0.0,0.0,0.0,0.0,0.0,0.0,0.0,0.0,0.0,0.0,0.0,0.0,0.0,0.0,0.0,0.0,0.0,0.0,0.0,0.0,0.0,0.0,0.0,0.0,0.0,0.0,0.0,0.0,0.0,0.0,0.0,0.0,0.0,0.0,0.0,0.0,0.0,0.0,0.0,0.0,0.0,0.0,0.0,0.0,0.0,0.0,0.0,0.0,0.0,0.0,0.0,0.0,0.0,0.0,0.0,0.0,0.0,0.0,0.0,0.0,0.0,0.0,0.0,0.0,0.0,0.0,0.0,0.0,0.0,0.0,0.0,0.0,0.0,0.0,0.0,0.0,0.0,0.0,0.0,0.0,0.0,0.0,0.0,0.0,0.0,0.0,0.0,0.0,0.0,0.0,0.0,0.0,0.6479,0.6716,0.5205,0.0,0.3182,0.0,0.0,0.0,0.0,0.0,0.0,0.0,0.0,0.0,0.0,0.0,0.0,0.0,0.0,0.0,0.0,0.0,0.0,0.0,0.0,0.0,0.0,0.0,0.0,0.0,0.0,0.0,0.0,0.0,0.0,0.0,0.0,0.0,0.0,0.0,0.0,0.0,0.0,0.0,0.0,0.0,0.0,0.0,0.0,0.0,0.0,0.0,0.0,0.0,0.0,0.0,0.0,0.0,0.0,0.0,0.0,0.0,0.0,0.0,0.0,0.0,0.0,0.0,0.0,0.0,0.0,0.0,0.0,0.0,0.0,0.0,0.0,0.0,0.0,0.0,0.0,0.0,0.0,0.0,0.0,0.0,0.0,0.0,0.0,0.0,0.0,0.0,0.0,0.0,0.0,0.0,0.0,0.0,0.0,0.0,0.0,0.0,0.0,0.0,0.0,0.0,0.0,0.0,0.0,0.0,0.0,0.0,0.0,0.0,0.0,0.0,0.728,0.5343,0.3883,0.0,0.0,0.0,0.0,0.0,0.0,0.0,0.0,0.0,0.0,0.0,0.0,0.0,0.0,0.0,0.0,0.0,0.0,0.0,0.0,0.0,0.0,0.0,0.0,0.0,0.0,0.0,0.0,0.0,0.0,0.0,0.0,0.0,0.0,0.0,0.0,0.0,0.0,0.0,0.0,0.0,0.0,0.0,0.0,0.0,0.0,0.0,0.0,0.0,0.0,0.0,0.0,0.0,0.0,0.0,0.0,0.0,0.0,0.0,0.0,0.0,0.0,0.0,0.0,0.0,0.0,0.0,0.0,0.0,0.0,0.0,0.0,0.0,0.0,0.0,0.0,0.0,0.0,0.0,0.0,0.0,0.0,0.0,0.0,0.0,0.0,0.0,0.0,0.0,0.0,0.0,0.0,0.0,0.0,0.0,0.0,0.0,0.0,0.0,0.0,0.0,0.0,0.0,0.0,0.0,0.0,0.0,0.0,0.0,0.0,0.7576,0.0,0.651,0.5178,0.3967,0.2965,0.0,0.0,0.0,0.0,0.0,0.0,0.0,0.0,0.0,0.0,0.0,0.0,0.0,0.0,0.0,0.0,0.0,0.0,0.0,0.0,0.0,0.0,0.0,0.0,0.0,0.0,0.0,0.0,0.0,0.0,0.0,0.0,0.0,0.0,0.0,0.0,0.0,0.0,0.0,0.0,0.0,0.0,0.0,0.0,0.0,0.0,0.0,0.0,0.0,0.0,0.0,0.0,0.0,0.0,0.0,0.0,0.0,0.0,0.0,0.0,0.0,0.0,0.0,0.0,0.0,0.0,0.0,0.0,0.0,0.0,0.0,0.0,0.0,0.0,0.0,0.0,0.0,0.0,0.0,0.0,0.0,0.0,0.0,0.0,0.0,0.0,0.0,0.0,0.0,0.0,0.0,0.0,0.0,0.0,0.0,0.0,0.0,0.0,0.0,0.0,0.0,0.0,0.0,0.0,0.0,0.0,0.0,0.0,0.0,0.7981,0.6387,0.3909,0.4275,0.4052,0.0,0.0,0.0,0.0,0.0,0.0,0.0,0.0,0.0,0.0,0.0,0.0,0.0,0.0,0.0,0.0,0.0,0.0,0.0,0.0,0.0,0.0,0.0,0.0,0.0,0.0,0.0,0.0,0.0,0.0,0.0,0.0,0.0,0.0,0.0,0.0,0.0,0.0,0.0,0.0,0.0,0.0,0.0,0.0,0.0,0.0,0.0,0.0,0.0,0.0,0.0,0.0,0.0,0.0,0.0,0.0,0.0,0.0,0.0,0.0,0.0,0.0,0.0,0.0,0.0,0.0,0.0,0.0,0.0,0.0,0.0,0.0,0.0,0.0,0.0,0.0,0.0,0.0,0.0,0.0,0.0,0.0,0.0,0.0,0.0,0.0,0.0,0.0,0.0,0.0,0.0,0.0,0.0,0.0,0.0,0.0,0.0,0.0,0.0,0.0,0.0,0.0,0.0,0.0,0.0,0.0,0.0,0.0,0.0,0.7999,0.7317,0.5842,0.3622,0.4424,0.4205,0.0,0.0,0.0,0.0,0.0,0.0,0.0,0.0,0.0,0.0,0.0,0.0,0.0,0.0,0.0,0.0,0.0,0.0,0.0,0.0,0.0,0.0,0.0,0.0,0.0,0.0,0.0,0.0,0.0,0.0,0.0,0.0,0.0,0.0,0.0,0.0,0.0,0.0,0.0,0.0,0.0,0.0,0.0,0.0,0.0,0.0,0.0,0.0,0.0,0.0,0.0,0.0,0.0,0.0,0.0,0.0,0.0,0.0,0.0,0.0,0.0,0.0,0.0,0.0,0.0,0.0,0.0,0.0,0.0,0.0,0.0,0.0,0.0,0.0,0.0,0.0,0.0,0.0,0.0,0.0,0.0,0.0,0.0,0.0,0.0,0.0,0.0,0.0,0.0,0.0,0.0,0.0,0.0,0.0,0.0,0.0,0.0,0.0,0.0,0.0,0.0,0.0,0.0,0.0,0.0,0.0,0.0,0.0,0.0,0.7678,0.0,0.5409,0.0,0.4381,0.4198,0.0,0.0,0.0,0.0,0.0,0.0,0.0,0.0,0.0,0.0,0.0,0.0,0.0,0.0,0.0,0.0,0.0,0.0,0.0,0.0,0.0,0.0,0.0,0.0,0.0,0.0,0.0,0.0,0.0,0.0,0.0,0.0,0.0,0.0,0.0,0.0,0.0,0.0,0.0,0.0,0.0,0.0,0.0,0.0,0.0,0.0,0.0,0.0,0.0,0.0,0.0,0.0,0.0,0.0,0.0,0.0,0.0,0.0,0.0,0.0,0.0,0.0,0.0,0.0,0.0,0.0,0.0,0.0,0.0,0.0,0.0,0.0,0.0,0.0,0.0,0.0,0.0,0.0,0.0,0.0,0.0,0.0,0.0,0.0,0.0,0.0,0.0,0.0,0.0,0.0,0.0,0.0,0.0,0.0,0.0,0.0,0.0,0.0,0.0,0.0,0.0,0.0,0.0,0.0,0.0,0.0,0.0,0.0,0.8532,0.7662,0.6325,0.4882,0.349,0.4067,0.3855,0.0,0.0,0.0,0.0,0.0,0.0,0.0,0.0,0.0,0.0,0.0,0.0,0.0,0.0,0.0,0.0,0.0,0.0,0.0,0.0,0.0,0.0,0.0,0.0,0.0,0.0,0.0,0.0,0.0,0.0,0.0,0.0,0.0,0.0,0.0,0.0,0.0,0.0,0.0,0.0,0.0,0.0,0.0,0.0,0.0,0.0,0.0,0.0,0.0,0.0,0.0,0.0,0.0,0.0,0.0,0.0,0.0,0.0,0.0,0.0,0.0,0.0,0.0,0.0,0.0,0.0,0.0,0.0,0.0,0.0,0.0,0.0,0.0,0.0,0.0,0.0,0.0,0.0,0.0,0.0,0.0,0.0,0.0,0.0,0.0,0.0,0.0,0.0,0.0,0.0,0.0,0.0,0.0,0.0,0.0,0.0,0.0,0.0,0.0,0.0,0.0,0.0,0.0,0.0,0.0,0.0,0.0,0.0,0.0,0.6809,0.5416,0.4209,0.3323,0.3372,0.3152,0.0,0.0,0.0,0.0,0.0,0.0,0.0,0.0,0.0,0.0,0.0,0.0,0.0,0.0,0.0,0.0,0.0,0.0,0.0,0.0,0.0,0.0,0.0,0.0,0.0,0.0,0.0,0.0,0.0,0.0,0.0,0.0,0.0,0.0,0.0,0.0,0.0,0.0,0.0,0.0,0.0,0.0,0.0,0.0,0.0,0.0,0.0,0.0,0.0,0.0,0.0,0.0,0.0,0.0,0.0,0.0,0.0,0.0,0.0,0.0,0.0,0.0,0.0,0.0,0.0,0.0,0.0,0.0,0.0,0.0,0.0,0.0,0.0,0.0,0.0,0.0,0.0,0.0,0.0,0.0,0.0,0.0,0.0,0.0,0.0,0.0,0.0,0.0,0.0,0.0,0.0,0.0,0.0,0.0,0.0,0.0,0.0,0.0,0.0,0.0,0.0,0.0,0.0,0.0,0.0,0.0,0.0,0.0,0.0,0.5748,0.4596,0.3548,0.2546,0.2435,0.2206,0.1879,0.0,0.0,0.0,0.0,0.0,0.0,0.0,0.0,0.0,0.0,0.0,0.0,0.0,0.0,0.0,0.0,0.0,0.0,0.0,0.0,0.0,0.0,0.0,0.0,0.0,0.0,0.0,0.0,0.0,0.0,0.0,0.0,0.0,0.0,0.0,0.0,0.0,0.0,0.0,0.0,0.0,0.0,0.0,0.0,0.0,0.0,0.0,0.0,0.0,0.0,0.0,0.0,0.0,0.0,0.0,0.0,0.0,0.0,0.0,0.0,0.0,0.0,0.0,0.0,0.0,0.0,0.0,0.0,0.0,0.0,0.0,0.0,0.0,0.0,0.0,0.0,0.0,0.0,0.0,0.0,0.0,0.0,0.0,0.0,0.0,0.0,0.0,0.0,0.0,0.0,0.0,0.0,0.0,0.0,0.0,0.0,0.0,0.0,0.0,0.0,0.0,0.0,0.0,0.0,0.0,0.0,0.0,0.0,0.4658,0.3683,0.2462,0.1205,0.1104,0.0998,0.0,0.0,0.0,0.0,0.0,0.0,0.0,0.0,0.0,0.0,0.0,0.0,0.0,0.0,0.0,0.0,0.0,0.0,0.0,0.0,0.0,0.0,0.0,0.0,0.0,0.0,0.0,0.0,0.0,0.0,0.0,0.0,0.0,0.0,0.0,0.0,0.0,0.0,0.0,0.0,0.0,0.0,0.0,0.0,0.0,0.0,0.0,0.0,0.0,0.0,0.0,0.0,0.0,0.0,0.0,0.0,0.0,0.0,0.0,0.0,0.0,0.0,0.0,0.0,0.0,0.0,0.0,0.0,0.0,0.0,0.0,0.0,0.0,0.0,0.0,0.0,0.0,0.0,0.0,0.0,0.0,0.0,0.0,0.0,0.0,0.0,0.0,0.0,0.0,0.0,0.0,0.0,0.0,0.0,0.0,0.0,0.0,0.0,0.0,0.0,0.0,0.0,0.0,0.0,0.0,0.0,0.0,0.0,0.0,0.4183,0.0791,-0.0886,-0.0862,-0.133,-0.098,0.0,0.0,0.0,0.0,0.0,0.0,0.0,0.0,0.0,0.0,0.0,0.0,0.0,0.0,0.0,0.0,0.0,0.0,0.0,0.0,0.0,0.0,0.0,0.0,0.0,0.0,0.0,0.0,0.0,0.0,0.0,0.0,0.0,0.0,0.0,0.0,0.0,0.0,0.0,0.0,0.0,0.0,0.0,0.0,0.0,0.0,0.0,0.0,0.0,0.0,0.0,0.0,0.0,0.0,0.0,0.0,0.0,0.0,0.0,0.0,0.0,0.0,0.0,0.0,0.0,0.0,0.0,0.0,0.0,0.0,0.0,0.0,0.0,0.0,0.0,0.0,0.0,0.0,0.0,0.0,0.0,0.0,0.0,0.0,0.0,0.0,0.0,0.0,0.0,0.0,0.0,0.0,0.0,0.0,0.0,0.0,0.0,0.0,0.0,0.0,0.0,0.0,0.0,0.0,0.0,0.0,0.0,0.0,0.986,0.3331,-0.0152,-0.4034,-0.8493,-0.6173,-0.4316,0.0,0.0,0.0,0.0,0.0,0.0,0.0,0.0,0.0,0.0,0.0,0.0,0.0,0.0,0.0,0.0,0.0,0.0,0.0,0.0,0.0,0.0,0.0,0.0,0.0,0.0,0.0,0.0,0.0,0.0,0.0,0.0,0.0,0.0,0.0,0.0,0.0,0.0,0.0,0.0,0.0,0.0,0.0,0.0,0.0,0.0,0.0,0.0,0.0,0.0,0.0,0.0,0.0,0.0,0.0,0.0,0.0,0.0,0.0,0.0,0.0,0.0,0.0,0.0,0.0,0.0,0.0,0.0,0.0,0.0,0.0,0.0,0.0,0.0,0.0,0.0,0.0,0.0,0.0,0.0,0.0,0.0,0.0,0.0,0.0,0.0,0.0,0.0,0.0,0.0,0.0,0.0,0.0,0.0,0.0,0.0,0.0,0.0,0.0,0.0,0.0,0.0,0.0,0.0,0.0,0.0,0.0,0.0,1.2324,0.2211,-0.0405,-0.7134,-1.7942,-1.2412,-0.8494,0.0,0.0,0.0,0.0,0.0,0.0,0.0,0.0,0.0,0.0,0.0,0.0,0.0,0.0,0.0,0.0,0.0,0.0,0.0,0.0,0.0,0.0,0.0,0.0,0.0,0.0,0.0,0.0,0.0,0.0,0.0,0.0,0.0,0.0,0.0,0.0,0.0,0.0,0.0,0.0,0.0,0.0,0.0,0.0,0.0,0.0,0.0,0.0,0.0,0.0,0.0,0.0,0.0,0.0,0.0,0.0,0.0,0.0,0.0,0.0,0.0,0.0,0.0,0.0,0.0,0.0,0.0,0.0,0.0,0.0,0.0,0.0,0.0,0.0,0.0,0.0,0.0,0.0,0.0,0.0,0.0,0.0,0.0,0.0,0.0,0.0,0.0,0.0,0.0,0.0,0.0,0.0,0.0,0.0,0.0,0.0,0.0,0.0,0.0,0.0,0.0,0.0,0.0,0.0,0.0,0.0,0.0,0.0,1.1674,0.0906,-0.3287,-1.0648,-2.1591,-1.7904,-1.3244,0.0,0.0,0.0,0.0,0.0,0.0,0.0,0.0,0.0,0.0,0.0,0.0,0.0,0.0,0.0,0.0,0.0,0.0,0.0,0.0,0.0,0.0,0.0,0.0,0.0,0.0,0.0,0.0,0.0,0.0,0.0,0.0,0.0,0.0,0.0,0.0,0.0,0.0,0.0,0.0,0.0,0.0,0.0,0.0,0.0,0.0,0.0,0.0,0.5406,0.0,0.0,0.0,0.0,0.0,0.0,0.0,0.0,0.0,0.0,0.0,0.0,0.0,0.0,0.0,0.0,0.0,0.0,0.0,0.0,0.0,0.0,0.0,0.0,0.0,0.0,0.0,0.0,0.0,0.0,0.0,0.0,0.0,0.0,0.0,0.0,0.0,0.0,0.0,0.0,0.0,0.0,0.0,0.0,0.0,0.0,0.0,0.0,0.0,0.0,0.0,0.0,0.0,0.0,0.0,0.0,0.0,0.0,0.0,0.9465,-0.1106,-0.7077,-1.5095,-2.5086,-2.3456,-1.9398,0.0,0.0,0.0,0.0,0.0,0.0,0.0,0.0,0.0,0.0,0.0,0.0,0.0,0.0,0.0,0.0,0.0,0.0,0.0,0.0,0.0,0.0,0.0,0.0,0.0,0.0,0.0,0.0,0.0,0.0,0.0,0.0,0.0,0.0,0.0,0.0,0.0,0.0,0.0,0.0,0.0,0.0,0.0,0.0,0.0,0.0,0.0,0.0,0.0,0.0,0.0,0.0,0.0,0.0,0.0,0.0,0.0,0.0,0.0,0.0,0.0,0.0,0.0,0.0,0.0,0.0,0.0,0.0,0.0,0.0,0.0,0.0,0.0,0.0,0.0,0.0,0.0,0.0,0.0,0.0,0.0,0.0,0.0,0.0,0.0,0.0,0.0,0.0,0.0,0.0,0.0,0.0,0.0,0.0,0.0,0.0,0.0,0.0,0.0,0.0,0.0,0.0,0.0,0.0,0.0,0.0,0.0,1.4422,0.6558,-0.3321,-1.0782,-1.9102,-2.8286,-2.7638,-2.4672,-1.9506,0.0,0.0,0.0,0.0,0.0,0.0,0.0,0.0,0.0,0.0,0.0,0.0,0.0,0.0,0.0,0.0,0.0,0.0,0.0,0.0,0.0,0.0,0.0,0.0,0.0,0.0,0.0,0.0,0.0,0.0,0.0,0.0,0.0,0.0,0.0,0.0,0.0,0.0,0.6936,0.85,0.0,0.0,0.0,0.0,0.0,0.0,0.0,0.0,1.0751,0.0,0.0,0.0,0.0,0.0,0.0,0.0,0.0,0.0,0.0,0.0,0.0,0.0,0.0,0.0,0.0,0.0,0.0,0.0,0.0,0.0,0.0,0.0,0.0,0.0,0.0,0.0,0.0,0.0,0.0,0.0,0.0,0.0,0.0,0.0,0.0,0.0,0.0,0.0,0.0,0.0,0.0,0.0,0.0,0.0,0.0,0.0,0.0,0.0,0.0,0.0,0.0,0.0,0.0,0.0,0.0,2.0297,1.2178,0.3667,-0.5046,-1.2843,-2.0153,-2.6819,-2.6796,-2.4718,-2.0658,0.0,0.0,0.0,0.0,0.0,0.0,0.0,0.0,0.0,0.0,0.0,0.0,0.0,0.0,0.0,0.0,0.0,0.0,0.0,0.0,0.0,0.0,0.0,0.0,0.0,0.0,0.0,0.0,0.0,0.0,0.0,0.0,0.0,0.0,0.0,0.0,0.0,0.0,0.0,0.9745,1.0347,0.0,0.0,0.0,0.0,0.0,0.0,0.0,0.0,0.7871,0.0,0.0,0.0,0.0,0.0,0.0,0.0,0.0,0.0,0.0,0.0,0.0,0.0,0.0,0.0,0.0,0.0,0.0,0.0,0.0,0.0,0.0,0.0,0.0,0.0,0.0,0.0,0.0,0.0,0.0,0.0,0.0,0.0,0.0,0.0,0.0,0.0,0.0,0.0,0.0,0.0,0.0,0.0,0.0,0.0,0.0,0.0,0.0,0.0,0.0,0.0,0.0,0.0,0.0,0.0,1.4307,0.5159,-0.2284,-0.7621,-1.7202,-2.37,-2.6577,-2.5611,-2.4186,0.0,0.0,0.0,0.0,0.0,0.0,0.0,0.0,0.0,0.0,0.0,0.0,0.0,0.0,0.0,0.0,0.0,0.0,0.0,0.0,0.0,0.0,0.0,0.0,0.0,0.0,0.0,0.0,0.0,0.0,0.0,0.0,0.0,0.0,0.0,0.0,0.0,0.0,0.0,0.0,1.0362,0.9223,0.5479,0.0,0.0,0.0,0.0,0.0,0.0,0.8707,0.5879,0.0,0.0,0.0,0.0,0.0,0.0,0.0,0.0,0.0,0.0,0.0,0.0,0.0,0.0,0.0,0.0,0.0,0.0,0.0,0.0,0.0,0.0,0.0,0.0,0.0,0.0,0.0,0.0,0.0,0.0,0.0,0.0,0.0,0.0,0.0,0.0,0.0,0.0,0.0,0.0,0.0,0.0,0.0,0.0,0.0,0.0,0.0,0.0,0.0,0.0,0.0,0.0,0.0,0.0,0.0,0.6391,-0.2417,-0.8353,-1.1335,-2.1383,-2.672,-2.6468,-2.4821,-2.3921,0.0,0.0,0.0,0.0,0.0,0.0,0.0,0.0,0.0,0.0,0.0,0.0,0.0,0.0,0.0,0.0,0.0,0.0,0.0,0.0,0.0,0.0,0.0,0.0,0.0,0.0,0.0,0.0,0.0,0.0,0.0,0.0,0.0,0.0,0.0,0.0,0.0,0.0,0.0,0.0,0.0,0.6599,-0.0,-0.0876,0.0,0.0,0.0,0.0,0.8102,0.8043,0.0,0.0,0.0,0.0,0.0,0.0,0.0,0.0,0.0,0.0,0.0,0.0,0.0,0.0,0.0,0.0,0.0,0.0,0.0,0.0,0.0,0.0,0.0,0.0,0.0,0.0,0.0,0.0,0.0,0.0,0.0,0.0,0.0,0.0,0.0,0.0,0.0,0.0,0.0,0.0,0.0,0.0,0.0,0.0,0.0,0.0,0.0,0.0,0.0,0.0,0.0,0.0,0.0,0.0,0.0,0.0,-0.2914,-0.7713,-1.232,-1.6796,-2.3443,-2.6579,-2.5759,-2.5271,-2.4684,0.0,0.0,0.0,0.0,0.0,0.0,0.0,0.0,0.0,0.0,0.0,0.0,0.0,0.0,0.0,0.0,0.0,0.0,0.0,0.0,0.0,0.0,0.0,0.0,0.0,0.0,0.0,0.0,0.0,0.0,0.0,0.0,0.0,0.0,0.0,0.0,0.0,0.0,0.0,0.0,0.0,0.2059,-0.8376,-0.9279,-0.7077,0.0,0.0,0.5211,0.6037,0.4765,0.0,0.0,0.0,0.0,0.0,0.0,0.0,0.0,0.0,0.0,0.0,0.0,0.0,0.0,0.0,0.0,0.0,0.0,0.0,0.0,0.0,0.0,0.0,0.0,0.0,0.0,0.0,0.0,0.0,0.0,0.0,0.0,0.0,0.0,0.0,0.0,0.0,0.0,0.0,0.0,0.0,0.0,0.0,0.0,0.0,0.0,0.0,0.0,0.0,0.0,0.0,0.0,0.0,0.0,0.0,-0.4473,-0.853,-1.2712,-1.5984,-1.8367,-2.3479,-2.6014,-2.5598,-2.4865,-2.4059,0.0,0.0,0.0,0.0,0.0,0.0,0.0,0.0,0.0,0.0,0.0,0.0,0.0,0.0,0.0,0.0,0.0,0.0,0.0,0.0,0.0,0.0,0.0,0.0,0.0,0.0,0.0,0.0,0.0,0.0,0.0,0.0,0.0,0.0,0.0,0.0,0.0,0.0,0.0,0.0,0.0,0.0,-0.4633,-0.9177,0.0,0.0,0.0,-0.2973,-0.4409,0.0,0.0,0.0,0.0,0.0,0.0,0.0,0.0,0.0,0.0,0.0,0.0,0.0,0.0,0.0,0.0,0.0,0.0,0.0,0.0,0.0,0.0,0.0,0.0,0.0,0.0,0.0,0.0,0.0,0.0,0.0,0.0,0.0,0.0,0.0,0.0,0.0,0.0,0.0,0.0,0.0,0.0,0.0,0.0,0.0,0.0,0.0,0.0,0.0,0.0,0.0,0.0,0.0,0.0,0.0,0.0,0.0,-1.4457,-1.7101,-1.9106,-2.0528,-2.3821,-2.5604,-2.5593,-2.4752,0.0,0.0,0.0,0.0,0.0,0.0,0.0,0.0,0.0,0.0,0.0,0.0,0.0,0.0,0.0,0.0,0.0,0.0,0.0,0.0,0.0,0.0,0.0,0.0,0.0,0.0,0.0,-0.3574,0.0,0.0,0.0,0.0,0.0,0.0,0.0,0.0,0.0,0.0,0.0,0.0,0.0,0.0,-0.2576,-0.5003,-1.1559,-1.5133,0.0,0.0,-1.0316,-1.2381,-1.1427,-1.3129,0.0,0.0,0.0,0.0,0.0,0.0,0.0,0.0,0.0,0.0,0.0,0.0,0.0,0.0,0.0,0.0,0.0,0.0,0.0,0.0,0.0,0.0,0.0,0.0,0.0,0.0,0.0,0.0,0.0,0.0,0.0,0.0,0.0,0.0,0.0,0.0,0.0,0.0,0.0,0.0,0.0,0.0,0.0,0.0,0.0,0.0,0.0,0.0,0.0,0.0,0.0,0.0,0.0,0.0,0.0,-2.206,-2.059,-2.145,-2.4957,-2.5444,-2.5601,-2.5601,-2.5463,-2.463,0.0,0.0,0.0,0.0,0.0,0.0,0.0,0.0,0.0,0.0,0.0,0.0,0.0,0.0,0.0,0.0,0.0,0.0,0.0,0.0,0.0,0.0,0.0,0.0,0.0,0.0,0.0,0.0,0.0,0.0,0.0,0.0,0.0,0.0,0.0,0.0,0.0,0.0,0.0,0.0,0.0,-1.4496,-1.6812,-2.114,-2.2132,0.0,0.0,-1.3706,-1.3177,-1.1974,-1.3674,-2.1415,0.0,0.0,0.0,0.0,0.0,0.0,0.0,0.0,0.0,0.0,0.0,0.0,0.0,0.0,0.0,0.0,0.0,0.0,0.0,0.0,0.0,0.0,0.0,0.0,0.0,0.0,0.0,0.0,0.0,0.0,0.0,0.0,0.0,0.0,0.0,0.0,0.0,0.0,0.0,0.0,0.0,0.0,0.0,0.0,0.0,0.0,0.0,0.0,0.0,0.0,0.0,0.0,0.0,-1.9025,-2.1879,-2.2723,-2.3933,-2.5517,-2.5605,-2.56,-2.56,-2.5538,-2.4702,0.0,0.0,0.0,0.0,0.0,0.0,0.0,0.0,0.0,0.0,0.0,0.0,0.0,0.0,0.0,0.0,0.0,0.0,0.0,0.0,0.0,0.0,0.0,0.0,0.0,0.0,0.0,0.0,-1.3751,-1.5769,-1.4906,0.0,0.0,0.0,0.0,0.0,0.0,0.0,0.0,0.0,0.0,-0.9062,-1.6401,-2.2282,0.0,0.0,-2.1746,-2.084,-1.9999,-1.9121,-1.9552,-2.2643,-2.3091,0.0,0.0,0.0,0.0,0.0,0.0,0.0,0.0,0.0,0.0,0.0,0.0,0.0,0.0,0.0,0.0,0.0,0.0,0.0,0.0,0.0,0.0,0.0,0.0,0.0,0.0,0.0,0.0,0.0,0.0,0.0,0.0,0.0,0.0,0.0,0.0,0.0,0.0,0.0,0.0,0.0,0.0,0.0,0.0,0.0,0.0,0.0,0.0,0.0,0.0,0.0,0.0,-2.0062,-2.1288,-2.3903,-2.5328,-2.5511,-2.5551,-2.558,-2.5576,-2.5538,-2.4714,0.0,0.0,0.0,0.0,0.0,0.0,0.0,0.0,0.0,0.0,0.0,0.0,0.0,0.0,0.0,0.0,0.0,0.0,0.0,0.0,0.0,0.0,0.0,0.0,0.0,0.0,0.0,0.0,-1.7354,-1.8905,-1.7864,0.0,0.0,0.0,0.0,0.0,0.0,0.0,0.0,0.0,0.0,-0.9944,-1.8998,-2.4003,-2.6684,-2.6514,-2.5814,-2.5049,-2.4315,-2.3666,-2.3341,-2.3516,0.0,0.0,0.0,0.0,0.0,0.0,0.0,0.0,0.0,0.0,0.0,0.0,0.0,0.0,0.0,0.0,0.0,0.0,0.0,0.0,0.0,0.0,0.0,0.0,0.0,0.0,0.0,0.0,0.0,0.0,0.1146,0.0,0.0,0.0,0.0,0.0,0.0,0.0,0.0,0.0,0.0,0.0,0.0,0.0,0.0,0.0,0.0,0.0,0.0,0.0,0.0,0.0,0.0,-2.0427,-2.1509,-2.4064,-2.5361,-2.5312,-2.544,-2.5485,-2.5476,-2.5546,-2.4757,-2.304,0.0,0.0,0.0,0.0,0.0,0.0,0.0,0.0,0.0,0.0,0.0,0.0,0.0,0.0,0.0,0.0,0.0,0.0,0.0,0.0,0.0,0.0,0.0,0.0,0.0,0.0,-1.3643,-1.8574,-2.1752,0.0,0.0,0.0,0.0,0.0,0.0,0.0,0.0,0.0,0.0,-1.703,-2.1271,-2.7057,-2.7587,-2.7038,-2.6488,-2.5668,-2.4941,-2.4461,-2.3991,-2.3694,0.0,0.0,0.0,0.0,0.0,0.0,0.0,0.0,0.0,0.0,0.0,0.0,0.0,0.0,0.0,0.0,0.0,0.0,0.0,0.0,0.0,0.0,0.0,0.0,0.0,0.0,0.0,1.4121,1.1832,0.0,0.0,0.0,0.0,0.0,0.0,0.0,0.0,0.0,0.0,0.0,-1.5105,-1.6082,0.0,0.0,0.0,0.0,0.0,0.0,0.0,0.0,0.0,0.0,0.0,0.0,-2.0871,-2.2188,-2.4157,-2.5234,-2.5302,-2.5387,-2.5125,-2.4447,-2.4556,-2.3828,-2.2194,0.0,0.0,0.0,0.0,0.0,0.0,0.0,0.0,0.0,0.0,0.0,0.0,0.0,0.0,0.0,0.0,0.0,0.0,0.0,0.0,0.0,0.0,0.0,0.0,0.0,-2.2217,0.0,0.0,0.0,0.0,0.0,0.0,0.0,0.0,0.0,0.0,0.0,-0.909,-1.7987,-1.8458,-2.0552,-2.7708,-2.7697,-2.6777,0.0,0.0,0.0,0.0,0.0,0.0,0.0,0.0,0.0,0.0,0.0,0.0,0.0,0.0,-0.8387,-0.7518,-0.9532,-1.2015,-1.4148,0.0,0.0,0.0,0.0,0.0,0.0,0.0,0.0,0.0,0.0,0.0,0.0,0.0,0.0,0.9963,0.0,0.2071,0.0,0.0,0.0,0.0,0.0,0.0,0.0,0.0,-1.0514,-1.132,-1.2474,-1.3821,-1.4754,0.0,-1.0709,-0.6692,0.0,0.0,0.0,0.0,0.0,0.0,0.0,0.0,-2.1897,-2.2825,-2.4364,-2.5058,-2.4821,-2.4889,-2.4494,-2.3554,-2.3299,-2.2709,-2.1668,-2.0247,-1.9619,0.0,0.0,0.0,0.0,0.0,0.0,0.0,0.0,0.0,0.0,0.0,0.0,0.0,0.0,0.0,0.0,0.0,0.0,0.0,0.0,0.0,0.0,0.0,-2.1833,0.0,0.0,0.0,0.0,0.0,0.0,0.0,0.0,0.0,-1.3436,-0.7444,-0.7322,-1.7689,-1.7077,-1.8898,-2.7725,0.0,0.0,0.0,0.0,0.0,0.0,0.0,-2.4839,-2.4996,-2.5281,-2.507,-2.3866,-1.9745,-1.6596,-1.6589,0.0,0.0,-1.1341,-1.2733,-1.4671,-1.6392,-1.7612,-1.8824,-2.0134,-2.1272,-2.2393,0.0,0.0,0.0,0.0,0.0,0.0,0.0,0.0,0.8258,0.8709,0.0,0.4445,0.0,0.0,0.0,0.0,0.0,0.0,0.0,0.0,-0.4138,-0.3572,-0.5942,-0.6705,-0.7631,-0.891,-0.6843,-0.5426,-0.5195,-1.0096,0.0,0.0,0.0,0.0,0.0,0.0,-2.3421,-2.3512,-2.4681,-2.4848,-2.402,-2.4063,-2.3667,-2.278,-2.1941,-2.1459,-2.143,-2.0632,-1.9904,-1.9233,-1.9563,0.0,0.0,0.0,0.0,0.0,0.0,0.0,0.0,0.0,0.0,0.0,0.0,0.0,0.0,0.0,0.0,0.0,0.0,0.0,0.0,-1.7346,0.0,0.0,0.0,0.0,0.0,0.0,0.0,0.0,0.0,0.0,-0.762,-0.7166,-0.9145,-1.3696,0.0,0.0,0.0,0.0,-2.7206,-2.6225,-2.5443,-2.4641,-2.3752,-2.4067,-2.4397,-2.4377,0.0,0.0,-2.2415,-2.0322,-1.8628,-1.7587,-1.6367,-1.5187,-1.435,-1.5216,-1.6629,-1.8288,-1.903,-1.9832,-2.1272,-2.2292,-2.312,-1.943,0.0,0.0,0.0,0.0,-0.1352,0.2587,0.4121,-0.0581,-0.2598,-0.3054,-0.8316,0.0,0.0,0.0,0.0,0.0,0.0,-0.6337,-0.4057,-0.4828,-0.6106,-0.7705,-0.9165,-1.0216,-1.085,-1.0329,-0.9033,-0.738,-1.1504,-1.1665,-0.7998,0.0,0.0,0.0,0.0,-2.4085,-2.4726,-2.5034,-2.5045,-2.4846,-2.4252,-2.3275,-2.1838,-2.1054,-2.0616,-2.0583,-2.0421,-2.0543,-2.0937,-2.0887,0.0,0.0,0.0,0.0,0.0,0.0,0.0,0.0,0.0,0.0,0.0,0.0,0.0,0.0,0.0,0.0,0.0,0.0,0.0,-1.7859,-1.812,-1.9792,0.0,0.0,0.0,0.0,0.0,0.0,0.0,0.0,0.0,-0.9423,-0.6347,-0.7327,0.0,0.0,-1.8006,-2.6973,-2.7514,-2.6748,-2.6107,0.0,0.0,0.0,-2.4053,-2.4506,-2.4831,-2.4831,-2.4289,-2.2782,-2.1349,-1.9895,-1.8413,-1.8043,-1.7761,-1.7025,-1.6997,-1.7572,-1.8685,-1.9703,-2.0785,-2.1981,-2.2912,-2.3701,-1.8073,-1.8616,-1.5646,-1.3129,-1.0724,-0.6612,-0.355,-0.1734,-0.6108,-0.8482,-0.9412,-1.2429,-1.4939,-1.6828,-1.4768,0.0,0.0,0.0,-0.6365,-0.4742,-0.6735,-0.8488,-1.0077,-1.1407,-1.2128,-1.2355,-1.2409,-1.1199,-0.8994,-1.1072,-1.0253,-0.7096,0.0,0.0,-1.9889,-2.2858,-2.4661,-2.5234,-2.518,-2.5016,-2.4705,-2.3592,-2.2451,-2.1366,-2.0629,-2.022,-2.0122,-2.0251,-2.0753,-2.1656,-2.1438,-2.1333,0.0,0.0,0.0,0.0,0.0,0.0,0.0,0.0,0.0,0.0,0.0,-1.9924,-1.9659,0.0,0.0,0.0,-1.9247,-1.7596,-1.6754,-1.5434,0.0,0.0,0.0,0.0,0.0,0.0,0.0,-1.6711,-1.5923,-1.469,-1.2017,-0.9346,-0.9856,-1.5808,-1.6133,-1.8394,-2.5617,0.0,-2.5843,-2.5524,-2.45,-2.3625,-2.3382,-2.3523,-2.3881,-2.4642,-2.4672,-2.4145,-2.3018,-2.2072,-2.1055,-1.9869,-1.9359,-1.9067,-1.8721,-1.8738,-1.9014,-1.9625,-2.0421,-2.1424,-2.2529,-2.3245,-2.3907,-1.7224,-1.773,-1.8757,-1.7455,-1.4717,-1.3829,-1.1388,-0.821,-0.9104,-1.0067,-1.0959,-1.0375,-1.263,-1.662,-1.3027,0.0,0.0,-0.5408,-0.6489,-0.8328,-0.9184,-1.0677,-1.2508,-1.3061,-1.3381,-1.3463,-1.3199,-1.221,-1.0587,-0.9714,-0.8339,-0.682,-1.5599,-1.9934,-1.9818,-2.3227,-2.5107,-2.5182,-2.5168,-2.4797,-2.3976,-2.2539,-2.1625,-2.1328,-2.0652,-2.0249,-2.0127,-2.0171,-2.07,-2.1701,-2.1545,-2.1699,-2.2239,0.0,0.0,0.0,0.0,0.0,0.0,0.0,0.0,0.0,0.0,0.0,0.0,0.0,0.0,0.0,-1.7018,0.0,-1.6164,-1.1173,0.0,0.0,0.0,-1.959,-1.6275,-1.8466,-1.8827,-1.5215,0.0,0.0,0.0,0.0,-1.4985,-1.6584,-1.6567,-1.8352,-2.3769,-2.4587,-2.4598,-2.468,-2.3606,-2.2768,-2.2508,-2.2591,-2.3013,-2.3876,-2.4291,-2.4013,-2.3157,-2.2488,-2.1945,-2.1219,-2.0252,-1.9542,-1.9839,-2.0316,-2.0888,-2.0857,-2.1151,-2.1762,-2.2863,-2.3376,-2.3884,-1.6904,-1.7079,-1.7563,-1.671,-1.4914,-1.3932,-1.2338,-1.0564,-1.1008,-1.1461,-1.1878,-1.2145,-1.2608,-1.3002,-1.1066,-0.9476,-0.8235,-0.7987,-0.8471,-0.9647,-1.097,-1.2028,-1.2883,-1.3795,-1.3959,-1.3531,-1.3666,-1.2843,-1.1241,-1.0944,-0.9636,-0.7681,-1.4077,-1.704,-1.6524,-2.2035,-2.4981,-2.5043,-2.4932,-2.4566,-2.3866,-2.3523,-2.3007,-2.2284,-2.157,-2.1148,-2.1063,-2.0566,-2.0985,-2.2442,-2.2428,-2.263,-2.3222,-2.2549,0.0,0.0,0.0,0.0,0.0,0.0,0.0,0.0,0.0,-2.1941,-2.0088,0.0,-2.364,0.0,-1.7833,-1.5686,-1.4351,-1.4343,0.0,0.0,-1.871,-1.96,-1.8732,-1.882,-1.8685,-1.8016,-1.739,-1.6957,-1.6711,-1.6296,-1.6156,-1.6561,-1.6809,-1.8406,-2.2232,-2.2979,-2.3382,-2.3982,-2.2825,-2.1421,-2.0826,-2.1891,-2.2847,-2.2812,-2.3167,-2.329,-2.2984,-2.2466,-2.1897,-2.1439,-2.0957,-2.0616,-2.0523,-2.1026,-2.1485,-2.1747,-2.1916,-2.2207,-2.2949,-2.3297,-2.3795,-1.7022,-1.7279,-1.7312,-1.6498,-1.5143,-1.4131,-1.2875,-1.1611,-1.217,-1.2481,-1.2601,-1.3148,-1.3091,-1.2464,-1.1466,-1.0992,-1.0927,-1.0421,-1.08,-1.1943,-1.2513,-1.317,-1.3983,-1.4542,-1.4528,-1.4028,-1.4343,-1.3613,-1.2036,-1.1814,-1.126,-1.0396,-1.4676,-1.6969,-1.7479,-2.224,-2.4785,-2.491,-2.4874,-2.4684,-2.435,-2.4044,-2.3677,-2.3176,-2.247,-2.2047,-2.1991,-2.1603,-2.1856,-2.2789,-2.3157,-2.3458,-2.3749,-2.3348,-2.2766,0.0,0.0,0.0,0.0,0.0,0.0,0.0,0.0,0.0,0.0,0.0,-2.3281,0.0,-1.8327,0.0,-1.6213,-1.7115,-1.7986,-1.8679,-1.9467,-1.9926,-1.9845,-1.9478,-1.922,-1.918,-1.8372,-1.763,-1.7297,-1.6824,-1.6466,-1.645,-1.6547,-1.7495,-1.9918,-2.0933,-2.1567,-2.2103,-2.1557,-2.0778,-2.0011,-2.1265,-2.2259,-2.2118,-2.2752,-2.3173,-2.2717,-2.2327,-2.1907,-2.1314,-2.0941,-2.0785,-2.0874,-2.1229,-2.1662,-2.206,-2.1958,-2.2024,-2.2779,-2.3537,-2.436,-1.7195,-1.7793,-1.7373,-1.6462,-1.5235,-1.4328,-1.3195,-1.193,-1.2838,-1.3195,-1.3139,-1.3812,-1.3877,-1.3571,-1.2907,-1.2838,-1.313,-1.2409,-1.2887,-1.4282,-1.3812,-1.4089,-1.5133,-1.5133,-1.497,-1.463,-1.4873,-1.4253,-1.2824,-1.25,-1.2848,-1.3861,-1.6138,-1.8226,-2.008,-2.2963,-2.455,-2.4766,-2.4828,-2.4892,-2.4971,-2.4366,-2.4058,-2.4048,-2.3352,-2.2889,-2.2735,-2.2765,-2.2821,-2.2923,-2.3671,-2.414,-2.4164,-2.4005,-2.3747,0.0,-2.282,0.0,0.0,0.0,0.0,0.0,0.0,0.0,0.0,-2.3588,-2.2546,-2.0415,-1.8902,-1.8425,-1.9444,-1.9327,-1.9673,-2.0683,-2.0612,-2.043,-2.0283,-2.0277,-2.0035,-1.9492,-1.8918,-1.8196,-1.7329,-1.6763,-1.6473,-1.6388,-1.6198,-1.6592,-1.7821,-1.8954,-1.9572,-1.9516,-2.0085,-2.0406,-2.0174,-2.0848,-2.1498,-2.1637,-2.2519,-2.3142,-2.2419,-2.2157,-2.1686,-2.0889,-2.0543,-2.0571,-2.0899,-2.1218,-2.1558,-2.2059,-2.1635,-2.1605,-2.2609,-2.3692,-2.4804,-1.7027,-1.7301,-1.6837,-1.5864,-1.4652,-1.3988,-1.3199,-1.2359,-1.2585,-1.3074,-1.3821,-1.4355,-1.4424,-1.4079,-1.3454,-1.3571,-1.4163,-1.2964,-1.3329,-1.4961,-1.4125,-1.4132,-1.4865,-1.4733,-1.47,-1.4701,-1.466,-1.417,-1.3342,-1.3239,-1.3398,-1.3868,-1.6509,-1.8639,-2.022,0.0,0.0,0.0,-2.4692,-2.4779,-2.4847,-2.4816,-2.4864,-2.5004,-2.4274,0.0,-2.2911,-2.2827,-2.2835,-2.2916,-2.3711,0.0,0.0,0.0,0.0,0.0,0.0,0.0,0.0,0.0,0.0,0.0,-2.5821,-2.4562,-2.2529,-2.2412,-2.196,-2.0746,-2.0443,-2.0158,-1.97,-2.0155,-2.057,-2.0894,-2.0908,-2.0822,-2.056,-2.051,-2.026,-1.9667,-1.9175,-1.858,-1.78,-1.7338,-1.6875,-1.627,-1.6321,-1.6645,-1.7165,-1.7767,-1.8139,-1.8481,-1.9433,-1.9894,-1.9582,-2.049,-2.1076,-2.1137,-2.1828,-2.2393,-2.2262,-2.1613,-2.0776,-1.9821,-1.9842,-2.0251,-2.0763,-2.115,-2.1384,-2.1341,-2.1387,-2.1812,-2.3014,-2.3285,-2.3778,-1.638,0.0,-1.6035,-1.5205,0.0,-1.3526,-1.307,-1.2622,-1.3045,-1.3748,-1.4606,-1.4848,-1.4729,-1.4369,-1.4346,-1.4465,-1.4725,-1.3919,-1.4103,-1.4893,-1.411,-1.391,-1.4312,-1.422,-1.4228,-1.4318,-1.4279,-1.4119,-1.3868,-1.3474,-1.4433,-1.6601,-1.7657,-1.9492,-2.2134,-2.3442,-2.4182,-2.4339,-2.4545,-2.4685,-2.4804,-2.4968,-2.5136,-2.5293,0.0,0.0,0.0,0.0,0.0,0.0,0.0,0.0,0.0,0.0,0.0,-2.405,-2.3948,-2.428,-2.5162,-2.5521,-2.6022,-2.6764,-2.6004,-2.4827,-2.3275,-2.2591,-2.2042,-2.1695,-2.1226,-2.0819,-2.0683,-2.1199,-2.1458,-2.1237,-2.1229,-2.104,-2.0534,-2.0274,-1.9993,-1.9555,-1.9094,-1.8571,-1.7947,-1.7521,-1.7045,-1.645,-1.6447,-1.6704,-1.707,-1.7406,-1.7889,-1.886,-1.9263,-1.9641,-1.9763,-2.0052,-2.0576,-2.0808,-2.1173,-2.1553,-2.1827,-2.0962,-2.005,-1.9876,-2.0059,-2.0269,-2.0693,-2.0848,-2.0969,-2.1218,-2.1442,-2.1917,-2.3051,-2.3359,-2.3658,-1.5753,-1.5496,-1.5335,-1.4656,-1.3643,-1.3268,-1.3091,-1.3127,0.0,0.0,0.0,-1.5158,-1.5007,-1.4824,-1.523,-1.5357,-1.5196,-1.486,-1.4704,-1.4648,-1.3985,-1.3634,-1.3639,-1.3636,-1.369,-1.3886,-1.3926,-1.408,-1.4258,-1.3927,-1.5682,-1.9141,-1.9049,-2.0663,-2.4036,-2.4257,-2.4248,-2.4275,-2.4467,-2.4685,-2.4818,-2.5009,-2.519,-2.5303,-2.5375,-2.5379,-2.5282,-2.5442,-2.5129,-2.4352,-2.4994,-2.5026,-2.418,-2.4352,-2.4486,-2.4504,-2.5038,-2.5541,-2.5947,-2.6665,-2.6959,-2.6649,-2.5529,-2.4743,-2.4373,-2.3135,-2.246,-2.2584,-2.1627,-2.1233,-2.1618,-2.1952,-2.2008,-2.1535,-2.1528,-2.1241,-2.0479,-2.0059,-1.97,-1.9286,-1.8866,-1.8428,-1.7854,-1.7548,-1.7188,-1.6752,-1.6705,-1.6951,-1.7489,-1.7848,-1.8402,-1.9441,-1.9561,-1.9523,-1.9897,-2.0003,-2.0112,-2.0683,-2.0803,-2.09,-2.1015,-2.0377,-1.9888,-2.0228,-2.0278,-2.0335,-2.0518,-2.05,-2.0574,-2.1198,-2.144,-2.1858,-2.2871,-2.346,-2.3815,-1.5582,-1.6024,-1.5174,-1.4541,-1.4136,-1.3711,-1.3897,-1.4425,-1.3905,-1.4177,-1.499,-1.4868,-1.5177,-1.5874,-1.5531,-1.5637,-1.6078,-1.5255,-1.4792,0.0,-1.4001,-1.3497,-1.3057,-1.3143,-1.3405,-1.3788,-1.3613,-1.391,-1.466,-1.5507,-1.7189,-1.9349,-2.0475,-2.2139,-2.4269,-2.4519,-2.451,-2.4461,-2.455,-2.4691,-2.4869,-2.5087,-2.5251,-2.5379,-2.5454,-2.5158,-2.451,-2.5186,-2.5168,-2.4296,-2.4963,-2.5257,-2.4935,-2.4095,-2.3879,-2.4286,-2.443,-2.5079,-2.6467,-2.7367,-2.7647,-2.7079,-2.5685,-2.4534,-2.3863,-2.3407,-2.2863,-2.2218,-2.1941,-2.1905,-2.1884,-2.1912,-2.1889,-2.1747,-2.1732,-2.144,-2.0702,-2.0331,-1.9795,-1.89,-1.8604,-1.8175,-1.7611,-1.7556,-1.7517,-1.7203,-1.7368,-1.786,-1.8419,-1.8862,-1.9124,-1.9524,-1.9597,-1.9625,-1.9882,-2.0035,-2.0319,-2.0728,-2.1038,-2.1054,-2.0852,-2.054,-2.017,-1.9837,-1.9944,-1.9965,-2.0033,-2.0246,-2.053,-2.0795,-2.1014,-2.1639,-2.2733,-2.2981,-2.348,-1.4784,-1.4779,-1.4632,-1.4171,-1.3625,-1.3821,-1.4116,-1.4364,-1.4216,-1.4522,-1.5111,-1.5063,-1.5455,-1.615,-1.6437,-1.6492,-1.6392,-1.5817,-1.5028,-1.4081,-1.3572,-1.3011,-1.2459,-1.2803,-1.315,-1.3472,-1.352,-1.3747,-1.4325,-1.5753,-1.7494,-1.9508,-2.2045,-2.3813,-2.4646,-2.467,-2.4664,-2.4651,-2.4738,-2.4813,-2.4892,-2.5132,-2.5301,-2.539,-2.5459,-2.5357,-2.5017,-2.5349,-2.5349,-2.4934,-2.4564,-2.4329,-2.42,-2.285,-2.2517,-2.357,-2.3998,-2.4968,-2.6757,-2.7571,-2.7504,-2.6365,-2.5451,-2.4554,-2.3707,-2.2985,-2.2449,-2.2157,-2.191,-2.1869,-2.2147,-2.2292,-2.2243,-2.1887,-2.1869,-2.1532,-2.0685,-2.0152,-1.9599,-1.8819,-1.8589,-1.8357,-1.7882,-1.8094,-1.8173,-1.7947,-1.8192,-1.8521,-1.8752,-1.917,-1.9501,-1.9603,-1.9661,-1.9861,-2.0093,-2.0361,-2.0638,-2.1038,-2.1183,-2.1214,-2.1007,-2.0852,-2.0679,-2.0455,-2.0387,-2.0368,-2.0326,-2.0512,-2.0695,-2.0867,-2.13,-2.1955,-2.2541,-2.2785,-2.3538,-1.4134,-1.4046,-1.4274,-1.4019,-1.3437,-1.4061,-1.4299,-1.4346,-1.4616,-1.499,-1.5416,-1.5407,-1.571,-1.6395,-1.7071,-1.7128,-1.666,-1.6222,-1.5214,-1.3782,-1.3313,-1.272,-1.2043,-1.2568,-1.291,-1.3095,-1.3654,-1.4109,-1.454,-1.6606,-1.8739,-2.077,-2.3642,-2.5039,-2.4934,-2.4856,-2.4808,-2.4856,-2.4922,-2.4957,-2.4929,-2.5176,-2.536,-2.5418,-2.5499,-2.5542,-2.5566,-2.5357,-2.5226,-2.5138,-2.3999,-2.332,-2.3177,-2.1718,-2.1458,-2.2745,-2.3352,-2.457,-2.657,-2.7046,-2.6756,-2.5652,-2.5102,-2.4472,-2.3687,-2.2795,-2.2315,-2.2439,-2.1945,-2.1771,-2.2287,-2.2469,-2.2386,-2.1909,-2.1837,-2.1446,-2.0579,-1.9975,-1.9428,-1.8808,-1.8728,-1.8634,-1.8514,-1.8662,-1.8815,-1.8762,-1.8921,-1.9029,-1.9075,-1.9514,-1.9703,-1.976,-1.9788,-2.0015,-2.0418,-2.0679,-2.0925,-2.1254,-2.1309,-2.1309,-2.1246,-2.1159,-2.1095,-2.099,-2.0885,-2.0786,-2.0794,-2.0868,-2.0933,-2.1079,-2.1384,-2.1738,-2.1929,-2.2408,-2.3096,-1.4228,-1.5017,-1.4658,-1.4514,-1.456,-1.4658,-1.4943,-1.5271,-1.5147,-1.5435,-1.5954,-1.5618,-1.6024,-1.6749,-1.6988,-1.7148,-1.7148,-1.6339,-1.5255,-1.4094,-1.376,-1.3049,-1.2018,-1.244,-1.2559,-1.2639,-1.429,-1.5357,-1.5978,-1.9356,-2.2258,-2.429,-2.511,-2.5274,-2.5103,-2.5072,-2.5041,-2.498,-2.5096,-2.512,-2.5006,-2.5254,-2.5427,-2.5485,-2.561,-2.5631,-2.5528,-2.4817,-2.4364,-2.4174,-2.3374,-2.2757,-2.2443,-2.1512,-2.1344,-2.2103,-2.2286,-2.3405,-2.5797,-2.5386,-2.5204,-2.5555,-2.4811,-2.4186,-2.3825,-2.3305,-2.3093,-2.3073,-2.2348,-2.2007,-2.2467,-2.2109,-2.1782,-2.1694,-2.1565,-2.1167,-2.063,-2.0177,-1.9671,-1.8974,-1.895,-1.8791,-1.8867,-1.9011,-1.9154,-1.9251,-1.9413,-1.9669,-2.0005,-2.008,-2.0116,-2.0119,-2.007,-2.0258,-2.0697,-2.0869,-2.1047,-2.1277,-2.1363,-2.1371,-2.1317,-2.1222,-2.1095,-2.1159,-2.0998,-2.0917,-2.095,-2.1023,-2.1167,-2.0997,-2.0919,-2.0729,-2.0858,-2.1345,-2.2101,-1.4305,-1.5057,-1.5187,-1.5433,-1.5764,-1.5908,-1.5996,-1.6095,-1.5876,-1.6045,-1.6398,-1.661,-1.701,-1.7568,-1.7678,-1.7685,-1.7486,-1.6741,-1.5587,-1.419,-1.3782,-1.3062,-1.2135,-1.2098,-1.2751,-1.3934,-1.4944,-1.6079,-1.7659,-2.0356,-2.2896,-2.4907,-2.5313,-2.5351,-2.5231,-2.5176,-2.5127,-2.5057,-2.516,-2.5165,-2.5153,-2.5332,-2.549,-2.5551,-2.5661,-2.5662,-2.5601,-2.5245,-2.4792,-2.4166,-2.3248,-2.2422,-2.172,-2.084,-2.0712,-2.1538,-2.2507,-2.3517,-2.4642,-2.4747,-2.4844,-2.5063,-2.4678,-2.432,-2.4056,-2.3662,-2.3451,-2.3272,-2.2464,-2.1951,-2.2109,-2.1873,-2.1708,-2.1664,-2.1573,-2.1309,-2.0788,-2.0652,-2.035,-1.9726,-1.9852,-1.9852,-1.9682,-1.9667,-1.9607,-1.9581,-1.9713,-2.0146,-2.052,-2.0545,-2.0565,-2.0701,-2.0838,-2.087,-2.0919,-2.1134,-2.134,-2.1458,-2.152,-2.1481,-2.1481,-2.145,-2.1396,-2.1388,-2.1285,-2.1254,-2.1309,-2.1308,-2.1346,-2.092,-2.0298,-1.9917,-1.9984,-2.0262,-2.0759,-1.4755,-1.5439,-1.5976,-1.6447,-1.6876,-1.7021,-1.7015,-1.687,-1.6721,-1.687,-1.7272,-1.7659,-1.8099,-1.8446,-1.841,-1.8149,-1.7726,-1.7099,-1.5999,-1.4567,-1.4003,-1.3175,-1.2272,-1.268,-1.3518,-1.4933,-1.6439,-1.8172,-2.0096,-2.1743,-2.3563,-2.5062,-2.536,-2.5369,-2.5332,-2.5261,-2.5219,-2.52,-2.5235,-2.5272,-2.5324,-2.547,-2.5561,-2.561,-2.5669,-2.5693,-2.568,-2.5404,-2.4817,-2.3864,-2.2916,-2.1942,-2.0947,-2.0295,-2.0233,-2.0872,-2.2037,-2.3009,-2.3474,-2.4007,-2.4403,-2.4628,-2.4632,-2.4493,-2.4229,-2.3899,-2.364,-2.3387,-2.2678,-2.2164,-2.2068,-2.2056,-2.1978,-2.1861,-2.1768,-2.1526,-2.1079,-2.1029,-2.0797,-2.0339,-2.045,-2.0676,-2.041,-2.033,-2.0176,-1.9691,-2.0019,-2.0585,-2.0966,-2.1094,-2.1126,-2.1285,-2.1644,-2.1655,-2.1227,-2.143,-2.1686,-2.1612,-2.1581,-2.1612,-2.1628,-2.1606,-2.1606,-2.1536,-2.1597,-2.1425,-2.1133,-2.1155,-2.0944,-2.0172,-1.9575,-1.9232,-1.9268,-1.9311,-1.9725,-1.5638,-1.6618,-1.7264,-1.7572,-1.774,-1.774,-1.7814,-1.7786,-1.7612,-1.8046,-1.8722,-1.8677,-1.9081,-1.9711,-1.8955,-1.8321,-1.7956,-1.7332,-1.6574,-1.5642,-1.4732,-1.3527,-1.2585,-1.4361,-1.5004,-1.5215,-1.872,-2.1893,-2.4284,-2.467,-2.5039,-2.5367,-2.5387,-2.5387,-2.537,-2.5322,-2.5332,-2.5367,-2.5379,-2.545,-2.5561,-2.5643,-2.5653,-2.5628,-2.5677,-2.568,-2.5549,-2.482,-2.3991,-2.3027,-2.223,-2.127,-2.0322,-2.0135,-2.0098,-2.0146,-2.039,-2.1264,-2.2644,-2.2996,-2.351,-2.46,-2.4728,-2.4522,-2.4321,-2.395,-2.3683,-2.3513,-2.3126,-2.2797,-2.2678,-2.2608,-2.2456,-2.222,-2.2059,-2.1786,-2.134,-2.1238,-2.0917,-2.0622,-2.0704,-2.0861,-2.0813,-2.0886,-2.059,-2.02,-2.0495,-2.1143,-2.1613,-2.1744,-2.1745,-2.1883,-2.2209,-2.2436,-2.1928,-2.1857,-2.1869,-2.1797,-2.1738,-2.1686,-2.1658,-2.1644,-2.1644,-2.1579,-2.1502,-2.1261,-2.0854,-2.0368,-1.991,-1.9316,-1.8787,-1.8516,-1.8576,-1.8559,-1.8965,-1.65,-1.751,-1.812,-1.8394,-1.8503,-1.8602,-1.8602,-1.8472,-1.8323,-1.8574,-1.9126,-1.928,-1.9771,-2.0462,-2.0185,-1.96,-1.8864,-1.8536,-1.8029,-1.7337,-1.7087,-1.6691,-1.611,-1.6762,-1.7738,-1.8874,-2.0216,-2.2335,-2.4819,-2.5091,-2.5222,-2.536,-2.5388,-2.5389,-2.5341,-2.5361,-2.5379,-2.5392,-2.5449,-2.5519,-2.5595,-2.5658,-2.5686,-2.5673,-2.5683,-2.5697,-2.5668,-2.5346,-2.4773,-2.3883,-2.2983,-2.2072,-2.1183,-2.0506,-2.0188,-2.0253,-2.0786,-2.1644,-2.2717,-2.3387,-2.4043,-2.487,-2.4891,-2.4669,-2.438,-2.4136,-2.3959,-2.3816,-2.361,-2.3455,-2.3335,-2.2991,-2.2652,-2.2538,-2.2404,-2.2147,-2.1803,-2.1803,-2.1765,-2.1275,-2.1291,-2.1491,-2.1483,-2.143,-2.1298,-2.1251,-2.1306,-2.1606,-2.2102,-2.2239,-2.2288,-2.2599,-2.2883,-2.3011,-2.2771,-2.2332,-2.2124,-2.2047,-2.1969,-2.184,-2.1806,-2.1839,-2.1839,-2.1271,-2.1168,-2.0829,-2.0287,-1.9483,-1.9005,-1.8825,-1.8269,-1.8004,-1.7863,-1.7996,-1.8394,-1.7746,-1.8444,-1.9088,-1.9354,-1.9413,-1.9551,-1.9551,-1.942,-1.9339,-1.9535,-1.9974,-2.0173,-2.0567,-2.1142,-2.1391,-2.1046,-2.0198,-1.9905,-1.9449,-1.902,-1.9024,-1.881,-1.8493,-1.8873,-1.9843,-2.1184,-2.1839,-2.3159,-2.4903,-2.5168,-2.5253,-2.536,-2.5379,-2.5389,-2.5351,-2.5389,-2.5415,-2.5466,-2.5483,-2.5547,-2.5629,-2.5666,-2.5701,-2.5697,-2.5702,-2.5692,-2.5699,-2.5698,-2.5281,-2.4409,-2.35,-2.2462,-2.1336,-2.0617,-2.0389,-2.0729,-2.1265,-2.2109,-2.3178,-2.3891,-2.4448,-2.5026,-2.5003,-2.4785,-2.4484,-2.4293,-2.4163,-2.4056,-2.3946,-2.3864,-2.3728,-2.3364,-2.2996,-2.2881,-2.2729,-2.2495,-2.2158,-2.2315,-2.2222,-2.1878,-2.1953,-2.2084,-2.2073,-2.1915,-2.1965,-2.232,-2.207,-2.2157,-2.2649,-2.2781,-2.2789,-2.3095,-2.3327,-2.3424,-2.3303,-2.2969,-2.2466,-2.233,-2.2079,-2.1972,-2.1924,-2.1995,-2.169,-2.1058,-2.0556,-2.0163,-1.9538,-1.87,-1.8394,-1.8293,-1.8044,-1.7752,-1.762,-1.7538,-1.8021,-1.9346,-1.9543,-2.0139,-2.0342,-2.0376,-2.0455,-2.063,-2.0638,-2.0632,-2.0797,-2.1126,-2.1298,-2.1483,-2.1924,-2.2324,-2.2398,-2.1859,-2.116,-2.076,-2.0574,-2.0169,-1.9791,-1.9579,-2.1041,-2.1586,-2.1707,-2.3703,-2.4848,-2.5145,-2.5139,-2.5183,-2.5303,-2.536,-2.5398,-2.5396,-2.5388,-2.5464,-2.5544,-2.5523,-2.5566,-2.5671,-2.5697,-2.5697,-2.5695,-2.5701,-2.5697,-2.5701,-2.5698,-2.532,-2.4456,-2.3558,-2.221,-2.0921,-2.0475,-2.0712,-2.1461,-2.1673,-2.253,-2.388,-2.4245,-2.4614,-2.5004,-2.5044,-2.4873,-2.4598,-2.4373,-2.4248,-2.4181,-2.4095,-2.3987,-2.3926,-2.3765,-2.3562,-2.3283,-2.3096,-2.2898,-2.266,-2.2538,-2.2494,-2.2449,-2.2563,-2.2508,-2.2377,-2.2332,-2.2443,-2.2703,-2.2738,-2.2756,-2.3149,-2.3262,-2.3341,-2.3396,-2.3544,-2.3718,-2.3674,-2.3576,-2.3058,-2.26,-2.2312,-2.2099,-2.2054,-2.2032,-2.1443,-2.0829,-1.9927,-1.9492,-1.8876,-1.8128,-1.7943,-1.7823,-1.7614,-1.7589,-1.7566,-1.7592,-1.7778,-1.9907,-2.0189,-2.0436,-2.0613,-2.072,-2.082,-2.0878,-2.0901,-2.0983,-2.1197,-2.1483,-2.169,-2.2014,-2.2356,-2.2738,-2.2855,-2.2804,-2.2801,-2.2649,-2.2314,-2.2486,-2.2627,-2.2862,-2.3682,-2.403,-2.3908,-2.4581,-2.506,-2.5126,-2.515,-2.5223,-2.5293,-2.536,-2.5369,-2.5341,-2.5378,-2.5443,-2.5508,-2.5514,-2.5532,-2.5639,-2.5668,-2.5672,-2.5634,-2.568,-2.5697,-2.5693,-2.57,-2.5568,-2.5236,-2.4379,-2.332,-2.2245,-2.1521,-2.1596,-2.2365,-2.3072,-2.3489,-2.4065,-2.4765,-2.5169,-2.528,-2.5197,-2.5055,-2.4869,-2.4693,-2.4531,-2.4373,-2.4284,-2.4201,-2.4018,-2.3946,-2.3834,-2.3616,-2.3531,-2.3359,-2.3113,-2.294,-2.2996,-2.315,-2.3111,-2.2998,-2.2933,-2.2883,-2.2916,-2.3082,-2.3074,-2.3188,-2.3431,-2.3544,-2.3649,-2.3762,-2.3873,-2.3882,-2.385,-2.3786,-2.3468,-2.3072,-2.2752,-2.2366,-2.2265,-2.1868,-2.1288,-2.0353,-1.9487,-1.8776,-1.815,-1.7831,-1.7679,-1.765,-1.7673,-1.7673,-1.765,-1.7721,-1.785,-2.0581,-2.0828,-2.1071,-2.1236,-2.1368,-2.1571,-2.1622,-2.1592,-2.1745,-2.1828,-2.1928,-2.2203,-2.2449,-2.2686,-2.3054,-2.3347,-2.3563,-2.3969,-2.4035,-2.3868,-2.4172,-2.454,-2.4763,-2.5046,-2.5138,-2.5009,-2.5051,-2.5106,-2.5138,-2.5201,-2.5253,-2.5313,-2.5361,-2.5379,-2.5341,-2.5404,-2.5464,-2.5514,-2.551,-2.5541,-2.5617,-2.5658,-2.5642,-2.5603,-2.565,-2.5661,-2.5661,-2.5657,-2.5653,-2.5512,-2.4774,-2.3857,-2.2994,-2.24,-2.2448,-2.3212,-2.3839,-2.4307,-2.4617,-2.5216,-2.5554,-2.5435,-2.5309,-2.5177,-2.5053,-2.492,-2.4737,-2.4636,-2.4482,-2.4372,-2.4211,-2.4095,-2.4034,-2.3921,-2.3819,-2.3685,-2.3535,-2.3441,-2.3401,-2.3513,-2.3414,-2.3337,-2.3259,-2.3221,-2.3277,-2.3369,-2.3378,-2.3468,-2.3692,-2.3795,-2.3917,-2.3996,-2.3996,-2.3985,-2.3985,-2.3915,-2.3843,-2.3562,-2.3259,-2.2889,-2.2625,-2.1919,-2.1242,-1.9833,-1.8767,-1.8373,-1.7794,-1.7776,-1.7712,-1.7726,-1.7763,-1.7772,-1.7749,-1.7695,-1.7767,-2.1363,-2.1479,-2.1924,-2.2136,-2.2286,-2.26,-2.2652,-2.2686,-2.278,-2.266,-2.2563,-2.279,-2.2934,-2.2996,-2.345,-2.3846,-2.42,-2.4468,-2.4743,-2.4939,-2.5066,-2.5134,-2.5244,-2.5172,-2.5111,-2.5104,-2.5098,-2.5141,-2.519,-2.524,-2.5291,-2.5312,-2.537,-2.5389,-2.5405,-2.5472,-2.5509,-2.5565,-2.5535,-2.5561,-2.5673,-2.5633,-2.5587,-2.558,-2.5593,-2.5608,-2.5607,-2.5606,-2.5602,-2.5506,-2.4725,-2.3947,-2.3321,-2.3052,-2.3329,-2.4098,-2.4316,-2.4778,-2.5305,-2.5511,-2.5586,-2.5521,-2.5403,-2.5255,-2.5157,-2.5065,-2.4943,-2.4873,-2.4698,-2.4544,-2.4484,-2.4365,-2.4247,-2.4114,-2.3987,-2.3896,-2.3926,-2.3937,-2.3858,-2.3717,-2.3631,-2.3588,-2.3441,-2.3383,-2.3513,-2.3683,-2.3735,-2.3828,-2.3948,-2.4047,-2.4075,-2.4104,-2.4095,-2.4084,-2.4065,-2.4025,-2.3917,-2.3753,-2.3444,-2.3024,-2.2506,-2.1739,-2.0727,-1.9307,-1.8385,-1.7965,-1.7752,-1.7789,-1.7833,-1.7847,-1.7869,-1.7869,-1.7839,-1.7786,-1.7755,-2.1678,-2.1794,-2.2155,-2.2368,-2.2485,-2.2914,-2.3021,-2.2889,-2.3069,-2.3065,-2.3003,-2.3135,-2.3292,-2.3423,-2.3792,-2.4127,-2.4411,-2.4774,-2.5034,-2.5184,-2.5303,-2.5281,-2.5256,-2.5216,-2.5146,-2.5126,-2.5154,-2.5184,-2.5208,-2.5219,-2.527,-2.5302,-2.537,-2.5398,-2.54,-2.5459,-2.5502,-2.5529,-2.556,-2.5547,-2.5567,-2.5589,-2.5541,-2.5471,-2.5546,-2.5593,-2.561,-2.5609,-2.56,-2.5548,-2.4801,-2.4559,-2.466,-2.4213,-2.4215,-2.4898,-2.5127,-2.5253,-2.5507,-2.5639,-2.5643,-2.5596,-2.5527,-2.5485,-2.54,-2.532,-2.5206,-2.509,-2.4965,-2.4879,-2.4747,-2.4655,-2.4582,-2.4441,-2.4201,-2.4045,-2.4084,-2.4133,-2.4133,-2.4115,-2.4096,-2.403,-2.3992,-2.3972,-2.4001,-2.4125,-2.4125,-2.4097,-2.422,-2.4247,-2.4247,-2.4229,-2.4201,-2.4181,-2.4152,-2.4084,-2.4008,-2.3839,-2.3456,-2.2922,-2.2176,-2.1264,-2.0018,-1.8594,-1.8305,-1.7932,-1.7903,-1.7931,-1.7974,-1.7979,-1.7996,-1.7996,-1.7949,-1.7888,-1.788,-2.2011,-2.213,-2.2556,-2.2797,-2.2947,-2.341,-2.353,-2.3441,-2.345,-2.3432,-2.3413,-2.3468,-2.3619,-2.3799,-2.4165,-2.4484,-2.474,-2.505,-2.5274,-2.54,-2.5397,-2.5337,-2.5264,-2.5227,-2.5168,-2.5154,-2.518,-2.5195,-2.5209,-2.5219,-2.5261,-2.5302,-2.5369,-2.5412,-2.5451,-2.5502,-2.5547,-2.5545,-2.5579,-2.5566,-2.5514,-2.5524,-2.5503,-2.5455,-2.5522,-2.5577,-2.5586,-2.5605,-2.5609,-2.5537,-2.5205,-2.5115,-2.5426,-2.5099,-2.5027,-2.5536,-2.5567,-2.5594,-2.56,-2.5664,-2.5675,-2.565,-2.5629,-2.559,-2.5541,-2.5479,-2.5369,-2.5293,-2.5206,-2.5094,-2.4975,-2.4876,-2.4757,-2.4632,-2.4408,-2.4257,-2.4256,-2.4247,-2.4284,-2.4302,-2.432,-2.4365,-2.44,-2.4418,-2.4409,-2.4417,-2.4409,-2.4392,-2.4428,-2.441,-2.4401,-2.4401,-2.4383,-2.4366,-2.4312,-2.4266,-2.3989,-2.3832,-2.2802,-2.2372,-2.1529,-2.0607,-1.9689,-1.8615,-1.8276,-1.8039,-1.8057,-1.8083,-1.8087,-1.8108,-1.8125,-1.8168,-1.8129,-1.8065,-1.8035,-2.236,-2.2525,-2.3023,-2.3323,-2.3526,-2.4001,-2.4126,-2.4069,-2.399,-2.3883,-2.3815,-2.3871,-2.3994,-2.41,-2.4465,-2.4807,-2.5168,-2.5269,-2.544,-2.5511,-2.5479,-2.534,-2.5273,-2.5216,-2.5201,-2.5189,-2.5205,-2.5208,-2.52,-2.526,-2.5291,-2.5312,-2.5365,-2.5422,-2.5473,-2.5539,-2.5571,-2.5549,-2.5562,-2.5544,-2.549,-2.5461,-2.5464,-2.5509,-2.55,-2.5544,-2.5566,-2.5576,-2.5609,-2.5698,-2.5644,-2.5562,-2.5592,-2.5577,-2.5595,-2.5605,-2.5658,-2.5667,-2.5621,-2.5669,-2.5693,-2.5684,-2.5644,-2.5609,-2.5581,-2.5535,-2.5502,-2.5476,-2.5346,-2.5263,-2.5207,-2.5019,-2.4869,-2.4785,-2.4676,-2.4521,-2.441,-2.433,-2.4347,-2.4424,-2.4431,-2.4517,-2.4584,-2.4635,-2.4629,-2.4591,-2.4601,-2.4584,-2.4594,-2.4584,-2.4594,-2.4603,-2.4587,-2.458,-2.4512,-2.4442,-2.4076,-2.3665,-2.2143,-2.1252,-2.046,-1.9686,-1.9251,-1.8714,-1.8428,-1.8236,-1.8164,-1.8189,-1.8255,-1.8287,-1.8336,-1.8385,-1.8397,-1.8304,-1.8258,-2.2634,-2.3063,-2.3378,-2.3649,-2.3899,-2.4275,-2.4383,-2.4275,-2.4329,-2.4265,-2.4192,-2.4137,-2.4299,-2.4548,-2.472,-2.4926,-2.521,-2.5359,-2.5492,-2.5494,-2.5405,-2.5303,-2.524,-2.5193,-2.5191,-2.5201,-2.5201,-2.5205,-2.5208,-2.5219,-2.525,-2.5312,-2.5332,-2.5359,-2.5432,-2.5459,-2.5439,-2.5452,-2.5499,-2.5488,-2.5453,-2.5464,-2.5474,-2.5511,-2.551,-2.5518,-2.5522,-2.5566,-2.561,-2.5615,-2.5637,-2.5642,-2.5605,-2.5606,-2.5622,-2.5664,-2.5678,-2.5697,-2.5693,-2.5684,-2.5699,-2.5695,-2.5671,-2.5665,-2.5609,-2.559,-2.558,-2.5585,-2.5541,-2.5482,-2.5444,-2.5274,-2.5122,-2.5039,-2.4925,-2.4811,-2.4776,-2.467,-2.4632,-2.4685,-2.4706,-2.4731,-2.477,-2.477,-2.477,-2.477,-2.4755,-2.4755,-2.4755,-2.4755,-2.4755,-2.4764,-2.4764,-2.4749,-2.4679,-2.4476,-2.3952,-2.3397,-2.1961,-2.058,-1.9786,-1.9244,-1.8956,-1.8772,-1.8592,-1.8443,-1.8333,-1.8414,-1.8496,-1.8515,-1.8517,-1.8565,-1.8575,-1.8492,-1.8513,-2.3014,-2.3414,-2.3783,-2.4014,-2.422,-2.4467,-2.4568,-2.4543,-2.4493,-2.451,-2.4515,-2.4487,-2.4617,-2.4903,-2.5025,-2.5177,-2.5259,-2.5365,-2.5378,-2.5335,-2.5263,-2.5216,-2.519,-2.5108,-2.5082,-2.5177,-2.521,-2.5203,-2.5206,-2.5208,-2.5209,-2.5272,-2.5322,-2.5378,-2.5406,-2.5427,-2.5432,-2.5422,-2.5454,-2.5459,-2.5432,-2.544,-2.5464,-2.5499,-2.5519,-2.5514,-2.5561,-2.5573,-2.5601,-2.561,-2.5635,-2.5644,-2.5607,-2.56,-2.5624,-2.5683,-2.5702,-2.5698,-2.5693,-2.5693,-2.5693,-2.5699,-2.5699,-2.5676,-2.5652,-2.5655,-2.5627,-2.561,-2.56,-2.56,-2.5554,-2.5382,-2.5274,-2.5223,-2.5089,-2.5006,-2.4961,-2.4847,-2.476,-2.4842,-2.4847,-2.4884,-2.4911,-2.4911,-2.4934,-2.4934,-2.4851,-2.4851,-2.4907,-2.4907,-2.4892,-2.4906,-2.4925,-2.4911,-2.4842,-2.4482,-2.3817,-2.3076,-2.2006,-2.0689,-1.9632,-1.9226,-1.8878,-1.8752,-1.8658,-1.8582,-1.8515,-1.862,-1.8705,-1.8696,-1.8706,-1.8725,-1.8753,-1.8725,-1.8789,-2.3388,-2.3762,-2.4165,-2.4386,-2.45,-2.4636,-2.477,-2.4776,-2.467,-2.4716,-2.4818,-2.479,-2.49,-2.5136,-2.5263,-2.534,-2.5278,-2.5182,-2.5094,-2.5091,-2.4986,-2.5013,-2.5037,-2.4968,-2.4934,-2.512,-2.5098,-2.5101,-2.5151,-2.5174,-2.5145,-2.5212,-2.5303,-2.535,-2.5383,-2.5427,-2.5418,-2.5382,-2.5437,-2.5455,-2.5414,-2.5412,-2.5437,-2.549,-2.5515,-2.5527,-2.5557,-2.558,-2.5602,-2.5605,-2.5609,-2.56,-2.5609,-2.5609,-2.5613,-2.5683,-2.5681,-2.5698,-2.5692,-2.5693,-2.5693,-2.5693,-2.5699,-2.5701,-2.5695,-2.5696,-2.5665,-2.5619,-2.5603,-2.5581,-2.5506,-2.541,-2.5341,-2.5302,-2.521,-2.5158,-2.5107,-2.4984,-2.4945,-2.4955,-2.4981,-2.5016,-2.5028,-2.5041,-2.5072,-2.5069,-2.4993,-2.4966,-2.5019,-2.5047,-2.5053,-2.5056,-2.5087,-2.5065,-2.5006,-2.4794,-2.4086,-2.3165,-2.2145,-2.1043,-1.9867,-1.9381,-1.9096,-1.8852,-1.8743,-1.8706,-1.8734,-1.8807,-1.8852,-1.8852,-1.8896,-1.8931,-1.8957,-1.8993,-1.9051,-2.3593,-2.4346,-2.4425,-2.4568,-2.4738,-2.4827,-2.487,-2.4911,-2.4944,-2.5044,-2.5124,-2.5063,-2.5129,-2.5282,-2.5234,-2.5119,-2.4937,-2.4734,-2.4669,-2.4711,-2.4598,-2.4584,-2.4785,-2.4687,-2.4691,-2.4759,-2.4749,-2.479,-2.497,-2.4996,-2.5031,-2.516,-2.5203,-2.5243,-2.5293,-2.5341,-2.5312,-2.5293,-2.5341,-2.536,-2.535,-2.5359,-2.5394,-2.5466,-2.5464,-2.5488,-2.5519,-2.5567,-2.5612,-2.5602,-2.5611,-2.5597,-2.5594,-2.56,-2.5621,-2.5636,-2.5664,-2.5685,-2.568,-2.5698,-2.5692,-2.5693,-2.5693,-2.5699,-2.5693,-2.5695,-2.5679,-2.5658,-2.5609,-2.557,-2.5525,-2.5447,-2.5434,-2.5399,-2.5361,-2.532,-2.5271,-2.5221,-2.5169,-2.5138,-2.5147,-2.5136,-2.5145,-2.5145,-2.5145,-2.5134,-2.5087,-2.5087,-2.5134,-2.5177,-2.5198,-2.522,-2.524,-2.521,-2.5169,-2.4937,-2.4468,-2.3569,-2.2598,-2.1711,-2.0649,-1.9801,-1.9365,-1.9161,-1.9008,-1.8983,-1.9009,-1.9017,-1.9034,-1.9034,-1.9093,-1.9152,-1.915,-1.9173,-1.924,-2.4054,-2.4702,-2.4776,-2.4904,-2.5046,-2.5053,-2.508,-2.5117,-2.5145,-2.518,-2.5236,-2.5262,-2.5292,-2.536,-2.5303,-2.4981,-2.4482,-2.4182,-2.4125,-2.4155,-2.4026,-2.4127,-2.4374,-2.4273,-2.421,-2.4146,-2.41,-2.4361,-2.4784,-2.4818,-2.4861,-2.4923,-2.4984,-2.5028,-2.5075,-2.5089,-2.5103,-2.5113,-2.5145,-2.5158,-2.5161,-2.5185,-2.5225,-2.5284,-2.5359,-2.5385,-2.5401,-2.5427,-2.5483,-2.5521,-2.5488,-2.5485,-2.5528,-2.5578,-2.56,-2.5604,-2.5625,-2.5632,-2.5639,-2.5649,-2.5676,-2.5649,-2.5672,-2.5693,-2.5692,-2.5699,-2.5699,-2.5675,-2.564,-2.5575,-2.5515,-2.5455,-2.5405,-2.5406,-2.5389,-2.5389,-2.537,-2.537,-2.5341,-2.5303,-2.5264,-2.5253,-2.5252,-2.5242,-2.5212,-2.5191,-2.516,-2.5202,-2.5244,-2.5264,-2.5284,-2.5322,-2.5332,-2.5293,-2.5243,-2.5063,-2.479,-2.3958,-2.3131,-2.2237,-2.138,-2.0531,-1.9903,-1.9497,-1.939,-1.9246,-1.9198,-1.9189,-1.9205,-1.9227,-1.928,-1.9331,-1.9341,-1.9376,-1.9434,-2.4492,-2.4971,-2.5082,-2.5216,-2.5302,-2.5235,-2.5254,-2.5302,-2.5244,-2.5265,-2.535,-2.5399,-2.5411,-2.5367,-2.5135,-2.4685,-2.3933,-2.3646,-2.3566,-2.3493,-2.3409,-2.3551,-2.3706,-2.3721,-2.3611,-2.3581,-2.3595,-2.3806,-2.4416,-2.4552,-2.4617,-2.4746,-2.479,-2.4837,-2.4893,-2.4951,-2.4902,-2.4902,-2.4902,-2.491,-2.493,-2.4974,-2.5022,-2.5096,-2.5202,-2.5254,-2.5255,-2.5265,-2.5311,-2.5354,-2.5346,-2.5346,-2.5437,-2.549,-2.5525,-2.5545,-2.5561,-2.5551,-2.5557,-2.5592,-2.5625,-2.5611,-2.5658,-2.5689,-2.5701,-2.5693,-2.5698,-2.5668,-2.5632,-2.5565,-2.5482,-2.5398,-2.5366,-2.5396,-2.5424,-2.5415,-2.5415,-2.5414,-2.5429,-2.5394,-2.5378,-2.5341,-2.5303,-2.5293,-2.5254,-2.5254,-2.5225,-2.5284,-2.533,-2.5311,-2.533,-2.5403,-2.5412,-2.5369,-2.5284,-2.519,-2.4891,-2.4378,-2.3647,-2.2858,-2.2046,-2.1226,-2.0568,-1.9849,-1.9596,-1.9453,-1.9405,-1.938,-1.9409,-1.9443,-1.9485,-1.9508,-1.9493,-1.9524,-1.957,-2.4726,-2.5172,-2.5245,-2.5309,-2.5365,-2.5265,-2.5274,-2.5363,-2.5312,-2.5356,-2.5486,-2.5492,-2.5525,-2.5388,-2.485,-2.4102,-2.346,-2.3165,-2.3012,-2.2861,-2.282,-2.2853,-2.2972,-2.3191,-2.3091,-2.3067,-2.3212,-2.3678,-2.4013,-2.4099,-2.4355,-2.4572,-2.4666,-2.4804,-2.4779,-2.4813,-2.4902,-2.4888,-2.4888,-2.4906,-2.4949,-2.4959,-2.5005,-2.5061,-2.5105,-2.5117,-2.5118,-2.5131,-2.5154,-2.5174,-2.5194,-2.5235,-2.5282,-2.5265,-2.533,-2.5414,-2.5479,-2.5511,-2.5496,-2.5526,-2.555,-2.5577,-2.5646,-2.5689,-2.5681,-2.5679,-2.5663,-2.5622,-2.5604,-2.556,-2.5466,-2.5419,-2.5404,-2.5422,-2.5458,-2.5448,-2.5447,-2.5478,-2.5493,-2.5473,-2.5441,-2.5358,-2.5303,-2.5303,-2.5293,-2.5303,-2.5312,-2.5364,-2.5406,-2.5387,-2.5403,-2.5471,-2.5481,-2.5443,-2.5368,-2.5264,-2.5032,-2.4667,-2.4176,-2.3483,-2.2646,-2.1799,-2.079,-2.0179,-1.9898,-1.9716,-1.9698,-1.9682,-1.9666,-1.965,-1.9685,-1.9644,-1.9602,-1.9658,-1.9774,-2.5178,-2.5322,-2.5387,-2.5432,-2.5449,-2.5391,-2.5408,-2.5446,-2.5425,-2.5496,-2.56,-2.561,-2.5517,-2.5218,-2.4625,-2.3879,-2.3182,-2.2841,-2.2473,-2.225,-2.2214,-2.2224,-2.2207,-2.2361,-2.2449,-2.2467,-2.2591,-2.2814,-2.3232,-2.3604,-2.3864,-2.409,-2.4256,-2.4346,-2.4493,-2.4619,-2.4626,-2.4626,-2.4651,-2.4689,-2.4706,-2.4732,-2.4771,-2.487,-2.491,-2.4952,-2.4975,-2.4987,-2.5039,-2.5072,-2.5082,-2.5075,-2.5154,-2.5154,-2.5175,-2.5216,-2.5216,-2.5264,-2.5357,-2.5456,-2.549,-2.5513,-2.5578,-2.5626,-2.5632,-2.564,-2.564,-2.5607,-2.5608,-2.5563,-2.5508,-2.5482,-2.5488,-2.5507,-2.5517,-2.5517,-2.5524,-2.5538,-2.5557,-2.5538,-2.5512,-2.5442,-2.5387,-2.5412,-2.542,-2.5412,-2.5427,-2.5449,-2.5489,-2.5506,-2.5518,-2.5541,-2.5541,-2.5528,-2.5434,-2.5331,-2.5205,-2.4937,-2.4858,-2.4119,-2.3246,-2.2331,-2.1283,-2.0476,-2.0087,-1.9971,-1.9989,-1.9926,-1.9821,-1.9845,-1.9859,-1.9846,-1.984,-1.9982,-2.0084,-2.5466,-2.5437,-2.5505,-2.5554,-2.555,-2.5519,-2.5519,-2.554,-2.5504,-2.5586,-2.5655,-2.563,-2.5401,-2.4966,-2.4433,-2.3762,-2.3008,-2.2651,-2.2113,-2.1794,-2.1667,-2.1688,-2.1663,-2.1731,-2.1866,-2.173,-2.2124,-2.2368,-2.2591,-2.2923,-2.3236,-2.3566,-2.3821,-2.397,-2.4096,-2.4275,-2.4383,-2.4481,-2.4524,-2.454,-2.4528,-2.4528,-2.4596,-2.466,-2.4734,-2.4804,-2.4842,-2.4847,-2.4906,-2.4932,-2.4915,-2.4919,-2.5024,-2.5003,-2.5018,-2.5053,-2.5032,-2.5072,-2.5224,-2.5357,-2.543,-2.5476,-2.5515,-2.5599,-2.5603,-2.5609,-2.5606,-2.5605,-2.5605,-2.56,-2.5596,-2.5547,-2.5546,-2.5564,-2.5587,-2.5603,-2.5603,-2.5604,-2.559,-2.5576,-2.5566,-2.5581,-2.5546,-2.5556,-2.555,-2.5543,-2.5549,-2.5545,-2.5575,-2.559,-2.561,-2.5615,-2.5566,-2.5532,-2.5431,-2.5354,-2.5243,-2.5033,-2.4953,-2.4501,-2.3487,-2.2614,-2.1675,-2.0984,-2.028,-2.0172,-2.0155,-2.0068,-2.0002,-2.0031,-2.0074,-2.0081,-2.0129,-2.0255,-2.0314,-2.5499,-2.5511,-2.5629,-2.5671,-2.5671,-2.5546,-2.5576,-2.5663,-2.5546,-2.5591,-2.5681,-2.5555,-2.5243,-2.4765,-2.4364,-2.3701,-2.2839,-2.2598,-2.2044,-2.1579,-2.134,-2.1253,-2.1237,-2.1314,-2.1507,-2.1524,-2.1756,-2.2002,-2.2203,-2.2368,-2.2848,-2.3401,-2.3491,-2.3708,-2.3892,-2.403,-2.4284,-2.442,-2.4509,-2.4507,-2.4513,-2.4504,-2.4547,-2.4589,-2.4663,-2.4714,-2.4723,-2.4732,-2.4749,-2.4779,-2.4774,-2.4789,-2.4874,-2.4832,-2.4874,-2.491,-2.4879,-2.4955,-2.5117,-2.5264,-2.5375,-2.547,-2.5547,-2.5603,-2.5599,-2.5607,-2.5603,-2.5605,-2.5605,-2.5605,-2.5606,-2.5605,-2.558,-2.5611,-2.5632,-2.5624,-2.5624,-2.5628,-2.5613,-2.5611,-2.5611,-2.5631,-2.5635,-2.5627,-2.5614,-2.56,-2.5618,-2.5623,-2.564,-2.5658,-2.5661,-2.5658,-2.5593,-2.5521,-2.5396,-2.5123,-2.4498,-2.4426,-2.4462,-2.4082,-2.3461,-2.2627,-2.1469,-2.1019,-2.0292,-2.0305,-2.0291,-2.0234,-2.0207,-2.025,-2.0279,-2.0267,-2.0283,-2.0352,-2.0392,-2.554,-2.5635,-2.5675,-2.57,-2.5699,-2.5648,-2.5657,-2.5695,-2.5653,-2.5638,-2.5689,-2.5497,-2.5263,-2.4867,-2.4373,-2.377,-2.3017,-2.2642,-2.2007,-2.1526,-2.1285,-2.1039,-2.0926,-2.0893,-2.0999,-2.1023,-2.1316,-2.1579,-2.1645,-2.2002,-2.2294,-2.2721,-2.3093,-2.3294,-2.3509,-2.384,-2.4182,-2.4411,-2.4509,-2.4507,-2.4507,-2.4498,-2.4506,-2.4538,-2.4606,-2.4657,-2.4698,-2.4701,-2.4682,-2.4682,-2.4682,-2.4744,-2.4789,-2.4723,-2.4749,-2.4818,-2.4764,-2.4879,-2.5084,-2.5224,-2.5377,-2.5521,-2.5583,-2.5605,-2.56,-2.5604,-2.56,-2.5601,-2.56,-2.5595,-2.5602,-2.5605,-2.5612,-2.5648,-2.5664,-2.5645,-2.5642,-2.5655,-2.5651,-2.5647,-2.5661,-2.5675,-2.5687,-2.569,-2.5668,-2.5658,-2.5681,-2.5693,-2.5693,-2.5644,-2.5618,-2.5396,-2.5271,-2.4947,-2.4788,-2.4243,-2.363,-2.3776,-2.3928,-2.345,-2.289,-2.1735,-2.0756,-2.0448,-2.04,-2.04,-2.0385,-2.0388,-2.0375,-2.0366,-2.0395,-2.0434,-2.0449,-2.0454,-2.0454,-2.5561,-2.5658,-2.569,-2.5694,-2.5697,-2.57,-2.5697,-2.5699,-2.5699,-2.5676,-2.5664,-2.5469,-2.5263,-2.4942,-2.4389,-2.3817,-2.315,-2.2617,-2.1953,-2.1479,-2.1143,-2.0885,-2.072,-2.0687,-2.0852,-2.0728,-2.0958,-2.1285,-2.1579,-2.1895,-2.2209,-2.2501,-2.2747,-2.3009,-2.3289,-2.3637,-2.4057,-2.4312,-2.4384,-2.4456,-2.4482,-2.45,-2.45,-2.4513,-2.4547,-2.4599,-2.4657,-2.467,-2.4686,-2.4686,-2.4692,-2.4686,-2.4701,-2.4701,-2.4692,-2.4707,-2.4764,-2.4865,-2.5063,-2.5284,-2.5421,-2.5528,-2.5548,-2.5564,-2.5577,-2.558,-2.5558,-2.5556,-2.5566,-2.5579,-2.559,-2.5601,-2.5604,-2.5633,-2.568,-2.5673,-2.5676,-2.5678,-2.5684,-2.5688,-2.5688,-2.5662,-2.5662,-2.5663,-2.5665,-2.5662,-2.5686,-2.5694,-2.5701,-2.5613,-2.5469,-2.517,-2.4803,-2.4401,-2.3978,-2.3305,-2.2806,-2.3213,-2.3216,-2.2717,-2.2007,-2.1022,-2.0531,-2.0493,-2.0487,-2.0487,-2.048,-2.0486,-2.0461,-2.0439,-2.0472,-2.0522,-2.049,-2.048,-2.0492,-2.5541,-2.5603,-2.5676,-2.5696,-2.5694,-2.5694,-2.5697,-2.5693,-2.5697,-2.5678,-2.5602,-2.541,-2.5213,-2.4898,-2.4323,-2.3784,-2.3264,-2.2582,-2.1953,-2.1524,-2.1214,-2.0925,-2.0852,-2.0877,-2.0966,-2.1063,-2.1254,-2.1464,-2.1721,-2.1882,-2.2178,-2.248,-2.2712,-2.2892,-2.3144,-2.35,-2.384,-2.4078,-2.4126,-2.4266,-2.4456,-2.4509,-2.45,-2.4507,-2.447,-2.4506,-2.454,-2.453,-2.4521,-2.4521,-2.4596,-2.4613,-2.4622,-2.4679,-2.4686,-2.4698,-2.4799,-2.4932,-2.5075,-2.5347,-2.5481,-2.5511,-2.5528,-2.5535,-2.5528,-2.5518,-2.5509,-2.5534,-2.5528,-2.5543,-2.5571,-2.5597,-2.5595,-2.562,-2.5664,-2.5682,-2.5673,-2.5674,-2.5664,-2.5663,-2.5634,-2.5608,-2.561,-2.5619,-2.5633,-2.5654,-2.5682,-2.5684,-2.5638,-2.5395,-2.5164,-2.4832,-2.4367,-2.3725,-2.3188,-2.2367,-2.2039,-2.248,-2.2476,-2.194,-2.1721,-2.1285,-2.0899,-2.0674,-2.0544,-2.0518,-2.0546,-2.0585,-2.0651,-2.071,-2.0579,-2.0567,-2.0536,-2.0589,-2.0685,-2.5547,-2.5611,-2.5676,-2.5701,-2.5693,-2.57,-2.5697,-2.5694,-2.5693,-2.5662,-2.5576,-2.5464,-2.5226,-2.4875,-2.4479,-2.3921,-2.3328,-2.3016,-2.2412,-2.1966,-2.1568,-2.1422,-2.1329,-2.1275,-2.1252,-2.1298,-2.1415,-2.1579,-2.1773,-2.194,-2.2104,-2.2364,-2.265,-2.2833,-2.3047,-2.3314,-2.3517,-2.3952,-2.405,-2.4164,-2.4456,-2.4482,-2.4482,-2.4482,-2.4375,-2.4321,-2.4339,-2.4312,-2.4248,-2.4266,-2.4329,-2.4452,-2.4486,-2.4545,-2.4686,-2.4682,-2.4764,-2.4828,-2.5022,-2.5264,-2.5497,-2.551,-2.5505,-2.5505,-2.5517,-2.551,-2.551,-2.551,-2.551,-2.5531,-2.5538,-2.5543,-2.5552,-2.5592,-2.5629,-2.5622,-2.5625,-2.5627,-2.5617,-2.5627,-2.5602,-2.559,-2.5582,-2.5574,-2.558,-2.5339,-2.5294,-2.5395,-2.5398,-2.4978,-2.4643,-2.4358,-2.391,-2.3172,-2.245,-2.1765,-2.1299,-2.1504,-2.1465,-2.1098,-2.0993,-2.1212,-2.11,-2.079,-2.0654,-2.0546,-2.0839,-2.1052,-2.103,-2.1012,-2.1064,-2.1185,-2.1343,-2.1276,-2.1128,-2.5457,-2.558,-2.5642,-2.5679,-2.5701,-2.5701,-2.5696,-2.5698,-2.5698,-2.5653,-2.5544,-2.5443,-2.5196,-2.4851,-2.4467,-2.4146,-2.3491,-2.312,-2.2916,-2.2509,-2.213,-2.1906,-2.1799,-2.1728,-2.1617,-2.1579,-2.165,-2.1811,-2.1961,-2.2124,-2.2301,-2.2455,-2.2588,-2.2747,-2.2925,-2.304,-2.3239,-2.361,-2.3789,-2.3923,-2.4145,-2.4247,-2.4303,-2.4229,-2.4126,-2.406,-2.4057,-2.3987,-2.3885,-2.395,-2.4108,-2.4256,-2.4337,-2.4486,-2.4645,-2.466,-2.4725,-2.4795,-2.5003,-2.516,-2.535,-2.5412,-2.5451,-2.5493,-2.5515,-2.5507,-2.5507,-2.5517,-2.5507,-2.5507,-2.5505,-2.5507,-2.5531,-2.5576,-2.5591,-2.5598,-2.5598,-2.5596,-2.5561,-2.5565,-2.5565,-2.5561,-2.5556,-2.5549,-2.5533,-2.5195,-2.487,-2.5023,-2.5166,-2.4845,-2.4414,-2.4072,-2.367,-2.2997,-2.2187,-2.1317,-2.0918,-2.0644,-2.0596,-2.0596,-2.0826,-2.1121,-2.1012,-2.1098,-2.1413,-2.1606,-2.1521,-2.159,-2.1785,-2.1866,-2.1877,-2.2027,-2.2195,-2.2139,-2.2006,-2.5331,-2.5494,-2.5575,-2.5655,-2.5695,-2.5695,-2.5701,-2.5698,-2.5692,-2.5631,-2.5472,-2.5311,-2.5107,-2.4776,-2.4349,-2.4062,-2.3819,-2.3305,-2.3102,-2.2939,-2.2643,-2.2434,-2.2281,-2.2226,-2.2141,-2.1973,-2.1978,-2.2198,-2.2237,-2.2301,-2.2455,-2.2588,-2.2677,-2.2747,-2.2764,-2.2833,-2.3033,-2.3327,-2.3522,-2.3644,-2.384,-2.3978,-2.4007,-2.393,-2.3853,-2.3824,-2.3825,-2.3788,-2.3779,-2.3861,-2.4039,-2.4125,-2.4266,-2.4472,-2.4556,-2.4645,-2.4736,-2.485,-2.492,-2.5049,-2.5149,-2.5234,-2.5369,-2.5459,-2.5511,-2.5501,-2.5492,-2.5492,-2.5492,-2.5492,-2.549,-2.5502,-2.5517,-2.5545,-2.5575,-2.5576,-2.558,-2.5553,-2.5505,-2.55,-2.55,-2.5495,-2.5483,-2.5478,-2.5473,-2.5328,-2.503,-2.4839,-2.4973,-2.5068,-2.4588,-2.3998,-2.3532,-2.29,-2.21,-2.1387,-2.1123,-2.1055,-2.0674,-2.063,-2.0857,-2.1237,-2.1477,-2.1844,-2.2479,-2.2633,-2.2299,-2.2411,-2.2765,-2.2803,-2.2812,-2.2905,-2.3081,-2.3291,-2.326,-2.535,-2.55,-2.5632,-2.5691,-2.5699,-2.5698,-2.5701,-2.5692,-2.5661,-2.5558,-2.5422,-2.5364,-2.5175,-2.493,-2.4657,-2.4344,-2.4032,-2.3717,-2.3459,-2.3296,-2.3215,-2.3106,-2.301,-2.2937,-2.2856,-2.2747,-2.266,-2.2536,-2.2553,-2.2553,-2.2553,-2.2694,-2.2712,-2.2712,-2.2703,-2.2703,-2.2926,-2.3089,-2.3239,-2.3378,-2.3544,-2.3723,-2.3732,-2.3683,-2.3597,-2.3597,-2.3585,-2.3448,-2.3407,-2.3403,-2.3774,-2.3969,-2.4018,-2.4366,-2.4599,-2.4615,-2.471,-2.4785,-2.4756,-2.4896,-2.5009,-2.5009,-2.5091,-2.5303,-2.5406,-2.5448,-2.5421,-2.544,-2.544,-2.5432,-2.5432,-2.5451,-2.5437,-2.5437,-2.5461,-2.5452,-2.5444,-2.5432,-2.5395,-2.5378,-2.5387,-2.5415,-2.5405,-2.543,-2.5419,-2.5383,-2.5247,-2.4998,-2.4864,-2.4985,-2.4895,-2.4307,-2.384,-2.3353,-2.2582,-2.1841,-2.1655,-2.1455,-2.1123,-2.1004,-2.1422,-2.1812,-2.2103,-2.261,-2.3277,-2.3207,-2.283,-2.3117,-2.3578,-2.3772,-2.3809,-2.3877,-2.3978,-2.4134,-2.436,-2.5321,-2.5504,-2.5584,-2.5648,-2.5699,-2.5692,-2.5693,-2.566,-2.5605,-2.5525,-2.5405,-2.5387,-2.5234,-2.4974,-2.4818,-2.462,-2.4355,-2.4238,-2.4042,-2.3876,-2.3762,-2.3647,-2.3604,-2.3437,-2.3209,-2.3133,-2.2977,-2.2747,-2.2738,-2.2712,-2.2712,-2.272,-2.2712,-2.2712,-2.2712,-2.2703,-2.2773,-2.2909,-2.3032,-2.3153,-2.328,-2.3427,-2.3482,-2.3405,-2.3348,-2.3348,-2.3324,-2.3151,-2.3111,-2.3175,-2.3602,-2.3846,-2.3958,-2.4293,-2.4556,-2.4573,-2.461,-2.4632,-2.4626,-2.4725,-2.479,-2.4823,-2.4865,-2.5034,-2.5161,-2.5235,-2.5293,-2.5351,-2.536,-2.5369,-2.5378,-2.5388,-2.5341,-2.5303,-2.5293,-2.5284,-2.5284,-2.5284,-2.5274,-2.5254,-2.5264,-2.5303,-2.5332,-2.5359,-2.5405,-2.5395,-2.5376,-2.5269,-2.5121,-2.5126,-2.5108,-2.4788,-2.4393,-2.3961,-2.3192,-2.2572,-2.2371,-2.2147,-2.1784,-2.1779,-2.2109,-2.2617,-2.315,-2.3613,-2.4089,-2.3973,-2.3872,-2.401,-2.4343,-2.4505,-2.4635,-2.4684,-2.472,-2.4814,-2.5083,-2.5255,-2.5514,-2.5521,-2.559,-2.5689,-2.5693,-2.5658,-2.5593,-2.5586,-2.5522,-2.5401,-2.5392,-2.5233,-2.5013,-2.4902,-2.4809,-2.4629,-2.4533,-2.4399,-2.4381,-2.422,-2.4031,-2.3747,-2.3562,-2.3376,-2.3118,-2.291,-2.2833,-2.2703,-2.2642,-2.2615,-2.2685,-2.2561,-2.2535,-2.258,-2.258,-2.2684,-2.2952,-2.2886,-2.2892,-2.2859,-2.3003,-2.3151,-2.2994,-2.2994,-2.3035,-2.3102,-2.3111,-2.3111,-2.3253,-2.3491,-2.3774,-2.4067,-2.4257,-2.4445,-2.4513,-2.4538,-2.4547,-2.454,-2.4596,-2.4667,-2.4719,-2.4784,-2.4837,-2.4913,-2.5032,-2.512,-2.5202,-2.5213,-2.5213,-2.5213,-2.5222,-2.518,-2.5158,-2.5139,-2.512,-2.512,-2.512,-2.5088,-2.5086,-2.5107,-2.5139,-2.5169,-2.5191,-2.5272,-2.5351,-2.5351,-2.5322,-2.532,-2.5252,-2.5116,-2.505,-2.4888,-2.454,-2.4205,-2.3626,-2.3227,-2.291,-2.2481,-2.2567,-2.2914,-2.3565,-2.4289,-2.4567,-2.4797,-2.5087,-2.5143,-2.5047,-2.4931,-2.5112,-2.5248,-2.5395,-2.5449,-2.5358,-2.54,-2.5216,-2.5496,-2.5605,-2.567,-2.5693,-2.5648,-2.5583,-2.5523,-2.5537,-2.5464,-2.5411,-2.5332,-2.5261,-2.5125,-2.4938,-2.4847,-2.4809,-2.4639,-2.4476,-2.4373,-2.4321,-2.4097,-2.3828,-2.3628,-2.3431,-2.319,-2.3011,-2.2825,-2.2642,-2.249,-2.2463,-2.2605,-2.2371,-2.2178,-2.2328,-2.2337,-2.2515,-2.2883,-2.2641,-2.2482,-2.2446,-2.2448,-2.2511,-2.2573,-2.2652,-2.2867,-2.296,-2.3111,-2.3111,-2.3175,-2.3558,-2.3939,-2.4321,-2.4429,-2.449,-2.4507,-2.4498,-2.4507,-2.4507,-2.4524,-2.4566,-2.4566,-2.4589,-2.4613,-2.467,-2.4813,-2.4933,-2.5,-2.5034,-2.5034,-2.5034,-2.5031,-2.5019,-2.4997,-2.4962,-2.4965,-2.4965,-2.4943,-2.4917,-2.4917,-2.4939,-2.4962,-2.4994,-2.505,-2.5146,-2.5184,-2.5179,-2.5192,-2.5274,-2.5236,-2.4982,-2.4965,-2.527,-2.5061,-2.4797,-2.4539,-2.4057,-2.3562,-2.3103,-2.3329,-2.37,-2.4232,-2.4782,-2.5141,-2.5434,-2.5441,-2.5423,-2.5426,-2.5406,-2.5485,-2.5503,-2.5503,-2.5485,-2.5406,-2.5449,-2.529,-2.5502,-2.5654,-2.5693,-2.5674,-2.56,-2.5493,-2.5415,-2.5327,-2.5225,-2.5142,-2.516,-2.5166,-2.5134,-2.4944,-2.487,-2.4847,-2.4654,-2.4526,-2.44,-2.4201,-2.4028,-2.3837,-2.3593,-2.3371,-2.3135,-2.2944,-2.2764,-2.2516,-2.2345,-2.2318,-2.2282,-2.1928,-2.1848,-2.2027,-2.2077,-2.2266,-2.261,-2.2266,-2.2106,-2.2093,-2.22,-2.2421,-2.2501,-2.2704,-2.285,-2.2935,-2.3086,-2.3111,-2.3184,-2.3463,-2.3837,-2.4154,-2.4275,-2.4384,-2.4456,-2.45,-2.4509,-2.4509,-2.4509,-2.4509,-2.4509,-2.4509,-2.4549,-2.4549,-2.4676,-2.4732,-2.4809,-2.4855,-2.4855,-2.4847,-2.4856,-2.4784,-2.474,-2.4721,-2.4712,-2.4712,-2.4697,-2.4691,-2.4695,-2.474,-2.4828,-2.4865,-2.4938,-2.5009,-2.5009,-2.5005,-2.5075,-2.5163,-2.5234,-2.4966,-2.4868,-2.5176,-2.5313,-2.5076,-2.4935,-2.4765,-2.4266,-2.3731,-2.4015,-2.4349,-2.4772,-2.5225,-2.5293,-2.5313,-2.5254,-2.5264,-2.536,-2.5406,-2.5388,-2.5433,-2.5485,-2.5459,-2.5406,-2.5387,-2.5416,-2.5512,-2.5637,-2.5684,-2.5658,-2.5522,-2.5392,-2.5257,-2.5075,-2.4911,-2.4827,-2.4885,-2.5,-2.4983,-2.488,-2.4861,-2.4784,-2.4632,-2.451,-2.4329,-2.4135,-2.3849,-2.3567,-2.3333,-2.3151,-2.2961,-2.2756,-2.2516,-2.224,-2.2064,-2.1894,-2.1787,-2.1763,-2.1749,-2.182,-2.1796,-2.1919,-2.2261,-2.2162,-2.2027,-2.2053,-2.2121,-2.2364,-2.2624,-2.285,-2.2918,-2.2977,-2.3036,-2.3086,-2.3199,-2.338,-2.3762,-2.4019,-2.4182,-2.4312,-2.4411,-2.4509,-2.4509,-2.4509,-2.4509,-2.4509,-2.4509,-2.4509,-2.45,-2.4482,-2.4489,-2.4536,-2.4575,-2.4604,-2.467,-2.4657,-2.466,-2.4589,-2.454,-2.4521,-2.4528,-2.4538,-2.4521,-2.4523,-2.4534,-2.4599,-2.4686,-2.4738,-2.4808,-2.4837,-2.4841,-2.4888,-2.4977,-2.5046,-2.5107,-2.5027,-2.4962,-2.51,-2.5178,-2.5178,-2.513,-2.5014,-2.4867,-2.4431,-2.4698,-2.4888,-2.4994,-2.5044,-2.5051,-2.5063,-2.5077,-2.513,-2.5214,-2.5253,-2.5273,-2.5313,-2.5332,-2.5322,-2.5273,-2.5233,-2.5295,-2.551,-2.5586,-2.5598,-2.5517,-2.5338,-2.5178,-2.5044,-2.4905,-2.479,-2.47,-2.4582,-2.4614,-2.4798,-2.4744,-2.4704,-2.4632,-2.451,-2.4346,-2.4154,-2.391,-2.3571,-2.3315,-2.3151,-2.2961,-2.2773,-2.2553,-2.2301,-2.2141,-2.1794,-2.1609,-2.1749,-2.1143,-2.1384,-2.2045,-2.2004,-2.1946,-2.2353,-2.2425,-2.2272,-2.2681,-2.263,-2.2147,-2.2265,-2.2412,-2.2678,-2.2893,-2.3011,-2.3061,-2.3151,-2.3333,-2.3676,-2.3899,-2.4039,-2.4164,-2.4303,-2.4403,-2.4393,-2.4393,-2.4393,-2.4375,-2.4384,-2.4384,-2.4403,-2.4348,-2.4229,-2.4257,-2.4266,-2.4329,-2.447,-2.4489,-2.4489,-2.4446,-2.4454,-2.4462,-2.4489,-2.4489,-2.4498,-2.4517,-2.4526,-2.4534,-2.4575,-2.4575,-2.4638,-2.466,-2.4695,-2.477,-2.4851,-2.499,-2.5012,-2.5043,-2.5056,-2.5058,-2.5072,-2.5078,-2.5102,-2.5042,-2.5015,-2.4958,-2.4858,-2.483,-2.4873,-2.4901,-2.4877,-2.4943,-2.5005,-2.5051,-2.5037,-2.5094,-2.5117,-2.5138,-2.5158,-2.5147,-2.5145,-2.5111]}]]